[[{"header":{"parameterUnit":"m.s-1","parameterCategory":1,"la1":31.0,"la2":29.5877,"lo1":-88.7671,"lo2":-86.6584,"dy":0.0162,"dx":0.0185,"nx":115,"ny":88,"refTime":"2024-02-15T18:00:00:Z","depth":0,"parameterNumber":2,"parameterNumberName":"U-component_of_WINDS"},"data":[0.0,0.0,0.0,0.0,0.0,0.0,0.0,0.0,0.0,0.0,0.0,0.0,0.0,0.0,0.0,0.0,0.0,0.0,0.0,0.0,0.0,0.0,0.0,0.0,0.0,0.0,0.0,0.0,0.0,0.0,0.0,0.0,0.0,0.0,0.0,0.0,0.0,0.0,0.0,0.0,0.0,0.0,0.0,0.0,0.0,0.0,0.0,0.0,0.0,0.0,0.0,0.0,0.0,0.0,0.0,0.0,0.0,0.0,0.0,0.0,0.0,0.0,0.0,0.0,0.0,0.0,0.0,0.0,0.0,0.0,0.0,0.0,0.0,0.0,0.0,0.0,0.0,0.0,0.0,0.0,0.0,0.0,0.0,0.0,0.0,0.0,0.0,0.0,0.0,0.0,0.0,0.0,0.0,0.0,0.0,0.0,0.0,0.0,0.0,0.0,0.0,0.0,0.0,0.0,0.0,0.0,0.0,0.0,0.0,0.0,0.0,0.0,0.0,0.0,0.0,0.0,0.0,0.0,0.0,0.0,0.0,0.0,0.0,0.0,0.0,0.0,0.0,0.0,0.0,0.0,0.0,0.0,0.0,0.0,0.0,0.0,0.0,0.0,0.0,0.0,0.0,0.0,0.0,0.0,0.0,0.0,0.0,0.0,0.0,0.0,0.0,0.0,0.0,0.0,0.0,0.0,0.0,0.0,0.0,0.0,0.0,0.0,0.0,0.0,0.0,0.0,0.0,0.0,0.0,0.0,0.0,0.0,0.0,0.0,0.0,0.0,0.0,0.0,0.0,0.0,0.0,0.0,0.0,0.0,0.0,0.0,0.0,0.0,0.0,0.0,0.0,0.0,0.0,0.0,0.0,0.0,0.0,0.0,0.0,0.0,0.0,0.0,0.0,0.0,0.0,0.0,0.0,0.0,0.0,0.0,0.0,0.0,0.0,0.0,0.0,0.0,0.0,0.0,0.0,0.0,0.0,0.0,0.0,0.0,0.0,0.0,0.0,0.0,0.0,0.0,0.0,0.0,0.0,0.0,0.0,0.0,0.0,0.0,0.0,0.0,0.0,0.0,0.0,0.0,0.0,0.0,0.0,0.0,0.0,0.0,0.0,0.0,0.0,0.0,0.0,0.0,0.0,0.0,0.0,0.0,0.0,0.0,0.0,0.0,0.0,0.0,0.0,0.0,0.0,0.0,0.0,0.0,0.0,0.0,0.0,0.0,0.0,0.0,0.0,0.0,0.0,0.0,0.0,0.0,0.0,0.0,0.0,0.0,0.0,0.0,0.0,0.0,0.0,0.0,0.0,0.0,0.0,0.0,0.0,0.0,0.0,0.0,0.0,0.0,0.0,0.0,0.0,0.0,0.0,0.0,0.0,0.0,0.0,0.0,0.0,0.0,0.0,0.0,0.0,0.0,0.0,0.0,0.0,0.0,0.0,0.0,0.0,0.0,0.0,0.0,0.0,0.0,0.0,0.0,0.0,0.0,0.0,0.0,0.0,0.0,0.0,0.0,0.0,0.0,0.0,0.0,0.0,0.0,0.0,0.0,0.0,0.0,0.0,0.0,0.0,0.0,0.0,0.0,0.0,0.0,0.0,0.0,0.0,0.0,0.0,0.0,0.0,0.0,0.0,0.0,0.0,0.0,0.0,0.0,0.0,0.0,0.0,0.0,0.0,0.0,0.0,0.0,0.0,0.0,0.0,0.0,0.0,0.0,0.0,0.0,0.0,0.0,0.0,0.0,0.0,0.0,0.0,0.0,0.0,0.0,0.0,0.0,0.0,0.0,0.0,0.0,0.0,0.0,0.0,0.0,0.0,0.0,0.0,0.0,0.0,0.0,0.0,0.0,0.0,0.0,0.0,0.0,0.0,0.0,0.0,0.0,0.0,0.0,0.0,0.0,0.0,0.0,0.0,0.0,0.0,0.0,0.0,0.0,0.0,0.0,0.0,0.0,0.0,0.0,0.0,0.0,0.0,0.0,0.0,0.0,0.0,0.0,0.0,0.0,0.0,0.0,0.0,0.0,0.0,0.0,0.0,0.0,0.0,0.0,0.0,0.0,0.0,0.0,0.0,0.0,0.0,0.0,0.0,0.0,0.0,0.0,0.0,0.0,0.0,0.0,0.0,0.0,0.0,0.0,0.0,0.0,0.0,0.0,0.0,0.0,0.0,0.0,0.0,0.0,0.0,0.0,0.0,0.0,0.0,0.0,0.0,0.0,0.0,0.0,0.0,0.0,0.0,0.0,0.0,0.0,0.0,0.0,0.0,0.0,0.0,0.0,0.0,0.0,0.0,0.0,0.0,0.0,0.0,0.0,0.0,0.0,0.0,0.0,0.0,0.0,0.0,0.0,0.0,0.0,0.0,0.0,0.0,0.0,0.0,0.0,0.0,0.0,0.0,0.0,0.0,0.0,0.0,0.0,0.0,0.0,0.0,0.0,0.0,0.0,0.0,0.0,0.0,0.0,0.0,0.0,0.0,0.0,0.0,0.0,0.0,0.0,0.0,0.0,0.0,0.0,0.0,0.0,0.0,0.0,0.0,0.0,0.0,0.0,0.0,0.0,0.0,0.0,0.0,0.0,0.0,0.0,0.0,0.0,0.0,0.0,0.0,0.0,0.0,0.0,0.0,0.0,0.0,0.0,0.0,0.0,0.0,0.0,0.0,0.0,0.0,0.0,0.0,0.0,0.0,0.0,0.0,0.0,0.0,0.0,0.0,0.0,0.0,0.0,0.0,0.0,0.0,0.0,0.0,0.0,0.0,0.0,0.0,0.0,0.0,0.0,0.0,0.0,0.0,0.0,0.0,0.0,0.0,0.0,0.0,0.0,0.0,0.0,0.0,0.0,0.0,0.0,0.0,0.0,0.0,0.0,0.0,0.0,0.0,0.0,0.0,0.0,0.0,0.0,0.0,0.0,0.0,0.0,0.0,0.0,0.0,0.0,0.0,0.0,0.0,0.0,0.0,0.0,0.0,0.0,0.0,0.0,0.0,0.0,0.0,0.0,0.0,0.0,0.0,0.0,0.0,0.0,0.0,0.0,0.0,0.0,0.0,0.0,0.0,0.0,0.0,0.0,0.0,0.0,0.0,0.0,0.0,0.0,0.0,0.0,0.0,0.0,0.0,0.0,0.0,0.0,0.0,0.0,0.0,0.0,0.0,0.0,0.0,0.0,0.0,0.0,0.0,0.0,0.0,0.0,0.0,0.0,0.0,0.0,0.0,0.0,0.0,0.0,0.0,0.0,0.0,0.0,0.0,0.0,0.0,0.0,0.0,0.0,0.0,0.0,0.0,0.0,0.0,0.0,0.0,0.0,0.0,0.0,0.0,0.0,0.0,0.0,0.0,0.0,0.0,0.0,0.0,0.0,0.0,0.0,0.0,0.0,0.0,0.0,0.0,0.0,0.0,0.0,0.0,0.0,0.0,0.0,0.0,0.0,0.0,0.0,0.0,0.0,0.0,0.0,0.0,0.0,0.0,0.0,0.0,0.0,0.0,0.0,0.0,0.0,0.0,0.0,0.0,0.0,0.0,0.0,0.0,0.0,0.0,0.0,0.0,0.0,0.0,0.0,0.0,0.0,0.0,0.0,0.0,0.0,0.0,0.0,0.0,0.0,0.0,0.0,0.0,0.0,0.0,0.0,0.0,0.0,0.0,0.0,0.0,0.0,0.0,0.0,0.0,0.0,0.0,0.0,0.0,0.0,0.0,0.0,0.0,0.0,0.0,0.0,0.0,0.0,0.0,0.0,0.0,0.0,0.0,0.0,0.0,0.0,0.0,0.0,0.0,0.0,0.0,0.0,0.0,0.0,0.0,0.0,0.0,0.0,0.0,0.0,0.0,0.0,0.0,0.0,0.0,0.0,0.0,0.0,0.0,0.0,0.0,0.0,0.0,0.0,0.0,0.0,0.0,0.0,0.0,0.0,0.0,0.0,0.0,0.0,0.0,0.0,0.0,0.0,0.0,0.0,0.0,0.0,0.0,0.0,0.0,0.0,0.0,0.0,0.0,0.0,0.0,0.0,0.0,0.0,0.0,0.0,0.0,0.0,0.0,0.0,0.0,0.0,0.0,0.0,0.0,0.0,0.0,0.0,0.0,0.0,0.0,0.0,0.0,0.0,0.0,0.0,0.0,0.0,0.0,0.0,0.0,0.0,0.0,0.0,0.0,0.0,0.0,0.0,0.0,0.0,0.0,0.0,0.0,0.0,0.0,0.0,0.0,0.0,0.0,0.0,0.0,0.0,0.0,0.0,0.0,0.0,0.0,0.0,1.4805,0.0,0.0,0.0,0.0,0.0,0.0,0.0,0.0,0.0,0.0,0.0,0.0,0.0,0.0,0.0,0.0,0.0,0.0,0.0,0.0,0.0,0.0,0.0,0.0,0.0,0.0,0.0,0.0,0.0,0.0,0.0,0.0,0.0,0.0,0.0,0.0,0.0,0.0,0.0,0.0,0.0,0.0,0.0,0.0,0.0,0.0,0.0,0.0,0.0,0.0,0.0,0.0,0.0,0.0,0.0,0.0,0.0,0.0,0.0,0.0,0.0,0.0,0.0,0.0,0.0,0.0,0.0,0.0,0.0,0.0,0.0,0.0,0.0,0.0,0.0,0.0,0.0,0.0,0.0,0.0,0.0,0.0,0.0,0.0,0.0,0.0,0.0,0.0,0.0,0.0,0.0,0.0,0.0,0.0,0.0,0.0,0.0,0.0,0.0,0.0,0.0,0.0,0.0,0.0,0.0,0.0,0.0,0.0,0.0,0.0,1.4506,1.4632,1.4686,1.474,1.4796,0.0,0.0,0.0,0.0,0.0,0.0,0.0,0.0,0.0,0.0,0.0,0.0,0.0,0.0,0.0,0.0,0.0,0.0,0.0,0.0,0.0,0.0,0.0,0.0,0.0,0.0,0.0,0.0,0.0,0.0,0.0,0.0,0.0,0.0,0.0,0.0,0.0,0.0,0.0,0.0,0.0,0.0,0.0,0.0,0.0,0.0,0.0,0.0,0.0,0.0,0.0,0.0,0.0,0.0,0.0,0.0,0.0,0.0,0.0,0.0,0.0,0.0,0.0,0.0,0.0,0.0,0.0,0.0,0.0,0.0,0.0,0.0,0.0,0.0,0.0,0.0,0.0,0.0,0.0,0.0,0.0,0.0,0.0,0.0,0.0,0.0,0.0,0.0,0.0,0.0,0.0,0.0,0.0,0.0,0.0,0.0,0.0,0.0,0.0,0.0,0.0,0.0,0.0,0.0,0.0,0.0,0.0,0.0,0.0,0.0,0.0,0.0,1.4689,1.4779,1.4778,0.0,0.0,0.0,0.0,0.0,0.0,0.0,0.0,0.0,0.0,0.0,0.0,0.0,0.0,0.0,0.0,0.0,0.0,0.0,0.0,0.0,0.0,0.0,0.0,0.0,0.0,0.0,0.0,0.0,0.0,0.0,0.0,0.0,0.0,0.0,0.0,0.0,0.0,0.0,0.0,0.0,0.0,0.0,0.0,0.0,0.0,0.0,0.0,0.0,0.0,0.0,0.0,0.0,0.0,0.0,0.0,0.0,0.0,0.0,0.0,0.0,0.0,0.0,0.0,0.0,0.0,0.0,0.0,0.0,0.0,0.0,0.0,0.0,0.0,0.0,0.0,0.0,0.0,0.0,0.0,0.0,0.0,0.0,0.0,0.0,0.0,0.0,0.0,0.0,0.0,0.0,0.0,0.0,0.0,0.0,0.0,0.0,0.0,0.0,0.0,0.0,0.0,0.0,0.0,0.0,0.0,0.0,0.0,0.0,0.0,1.4552,1.4671,1.4708,0.0,1.4714,0.0,0.0,0.0,0.0,0.0,0.0,0.0,0.0,0.0,0.0,0.0,0.0,0.0,0.0,0.0,0.0,0.0,0.0,0.0,0.0,0.0,0.0,0.0,0.0,0.0,0.0,0.0,0.0,0.0,0.0,0.0,0.0,0.0,0.0,0.0,0.0,0.0,0.0,0.0,0.0,0.0,0.0,0.0,0.0,0.0,0.0,0.0,0.0,0.0,0.0,0.0,0.0,0.0,0.0,0.0,0.0,0.0,0.0,0.0,0.0,0.0,0.0,0.0,0.0,0.0,0.0,0.0,0.0,0.0,0.0,0.0,0.0,0.0,0.0,0.0,0.0,0.0,0.0,0.0,0.0,0.0,0.0,0.0,0.0,0.0,0.0,0.0,0.0,0.0,0.0,0.0,0.0,0.0,0.0,0.0,0.0,0.0,0.0,0.0,0.0,0.0,0.0,0.0,0.0,0.0,0.0,0.0,0.0,0.0,0.0,1.4441,1.4563,1.4668,1.4652,0.0,0.0,0.0,0.0,0.0,0.0,0.0,0.0,0.0,0.0,0.0,0.0,0.0,0.0,0.0,0.0,0.0,0.0,0.0,0.0,0.0,0.0,0.0,0.0,0.0,0.0,0.0,0.0,0.0,0.0,0.0,0.0,0.0,0.0,0.0,0.0,0.0,0.0,0.0,0.0,0.0,0.0,0.0,0.0,0.0,0.0,0.0,0.0,0.0,0.0,0.0,0.0,0.0,0.0,0.0,0.0,0.0,0.0,0.0,0.0,0.0,0.0,0.0,0.0,0.0,0.0,0.0,0.0,0.0,0.0,0.0,0.0,0.0,0.0,0.0,0.0,0.0,0.0,0.0,0.0,0.0,0.0,0.0,0.0,0.0,0.0,0.0,0.0,0.0,0.0,0.0,0.0,0.0,0.0,0.0,0.0,0.0,0.0,0.0,0.0,0.0,0.0,0.0,0.0,0.0,0.0,0.0,0.0,0.0,0.0,1.4317,1.4381,1.4532,1.4644,1.4649,1.4567,0.0,0.0,0.0,0.0,0.0,0.0,0.0,0.0,0.0,0.0,0.0,0.0,0.0,0.0,0.0,0.0,0.0,0.0,0.0,0.0,0.0,0.0,0.0,0.0,0.0,0.0,0.0,0.0,0.0,0.0,0.0,0.0,0.0,0.0,0.0,0.0,0.0,0.0,0.0,0.0,0.0,0.0,0.0,0.0,0.0,0.0,0.0,0.0,0.0,0.0,0.0,0.0,0.0,0.0,0.0,0.0,0.0,0.0,0.0,0.0,0.0,0.0,0.0,0.0,0.0,0.0,0.0,0.0,0.0,0.0,0.0,0.0,0.0,0.0,0.0,0.0,0.0,0.0,0.0,0.0,0.0,0.0,0.0,0.0,0.0,0.0,0.0,0.0,0.0,0.0,0.0,0.0,0.0,0.0,0.0,0.0,0.0,0.0,0.0,0.0,0.0,0.0,0.0,0.0,0.0,0.0,0.0,0.0,1.4478,1.4364,1.4424,1.466,1.4718,1.4705,0.0,0.0,0.0,0.0,0.0,0.0,0.0,0.0,0.0,0.0,0.0,0.0,0.0,0.0,0.0,0.0,0.0,0.0,0.0,0.0,0.0,0.0,0.0,0.0,0.0,0.0,0.0,0.0,0.0,0.0,0.0,0.0,0.0,0.0,0.0,0.0,0.0,0.0,0.0,0.0,0.0,0.0,0.0,0.0,0.0,0.0,0.0,0.0,0.0,0.0,0.0,0.0,0.0,0.0,0.0,0.0,0.0,0.0,0.0,0.0,0.0,0.0,0.0,0.0,0.0,0.0,0.0,0.0,0.0,0.0,0.0,0.0,0.0,0.0,0.0,0.0,0.0,0.0,0.0,0.0,0.0,0.0,0.0,0.0,0.0,0.0,0.0,0.0,0.0,0.0,0.0,0.0,0.0,0.0,0.0,0.0,0.0,0.0,0.0,0.0,0.0,0.0,0.0,0.0,0.0,0.0,0.0,0.0,0.0,1.4234,1.4344,1.4487,1.4571,1.4668,1.4651,0.0,0.0,0.0,0.0,0.0,0.0,0.0,0.0,0.0,0.0,0.0,0.0,0.0,0.0,0.0,0.0,0.0,0.0,0.0,0.0,0.0,0.0,0.0,0.0,0.0,0.0,0.0,0.0,0.0,0.0,0.0,0.0,0.0,0.0,0.0,0.0,0.0,0.0,0.0,0.0,0.0,0.0,0.0,0.0,0.0,0.0,0.0,0.0,0.0,0.0,0.0,0.0,0.0,0.0,0.0,0.0,0.0,0.0,0.0,0.0,0.0,0.0,0.0,0.0,0.0,0.0,0.0,0.0,0.0,0.0,0.0,0.0,0.0,0.0,0.0,0.0,0.0,0.0,0.0,0.0,0.0,0.0,0.0,0.0,0.0,0.0,0.0,0.0,0.0,0.0,0.0,0.0,0.0,0.0,0.0,0.0,0.0,0.0,0.0,0.0,0.0,0.0,0.0,0.0,0.0,0.0,0.0,0.0,0.0,1.4163,0.0,1.4447,1.4489,1.4533,1.4554,0.0,0.0,0.0,0.0,0.0,0.0,0.0,0.0,0.0,0.0,0.0,0.0,0.0,0.0,0.0,0.0,0.0,0.0,0.0,0.0,0.0,0.0,0.0,0.0,0.0,0.0,0.0,0.0,0.0,0.0,0.0,0.0,0.0,0.0,0.0,0.0,0.0,0.0,0.0,0.0,0.0,0.0,0.0,0.0,0.0,0.0,0.0,0.0,0.0,0.0,0.0,0.0,0.0,0.0,0.0,0.0,0.0,0.0,0.0,0.0,0.0,0.0,0.0,0.0,0.0,0.0,0.0,0.0,0.0,0.0,0.0,0.0,0.0,0.0,0.0,0.0,0.0,0.0,0.0,0.0,0.0,0.0,0.0,0.0,0.0,0.0,0.0,0.0,0.0,0.0,0.0,0.0,0.0,0.0,0.0,0.0,0.0,0.0,0.0,0.0,0.0,0.0,0.0,0.0,0.0,0.0,0.0,0.0,1.4316,1.4338,1.4383,1.4497,1.4524,1.4475,1.4482,0.0,0.0,0.0,0.0,0.0,0.0,0.0,0.0,0.0,0.0,0.0,0.0,0.0,0.0,0.0,0.0,0.0,0.0,0.0,0.0,0.0,0.0,0.0,0.0,0.0,0.0,0.0,0.0,0.0,0.0,0.0,0.0,0.0,0.0,0.0,0.0,0.0,0.0,0.0,0.0,0.0,0.0,0.0,0.0,0.0,0.0,0.0,0.0,0.0,0.0,0.0,0.0,0.0,0.0,0.0,0.0,0.0,0.0,0.0,0.0,0.0,0.0,0.0,0.0,0.0,0.0,0.0,0.0,0.0,0.0,0.0,0.0,0.0,0.0,0.0,0.0,0.0,0.0,0.0,0.0,0.0,0.0,0.0,0.0,0.0,0.0,0.0,0.0,0.0,0.0,0.0,0.0,0.0,0.0,0.0,0.0,0.0,0.0,0.0,0.0,0.0,0.0,0.0,0.0,0.0,0.0,0.0,0.0,0.0,1.5405,1.593,1.6268,1.6275,1.6151,1.5859,0.0,0.0,0.0,0.0,0.0,0.0,0.0,0.0,0.0,0.0,0.0,0.0,0.0,0.0,0.0,0.0,0.0,0.0,0.0,0.0,0.0,0.0,0.0,0.0,0.0,0.0,0.0,0.0,0.0,0.0,0.0,0.0,0.0,0.0,0.0,0.0,0.0,0.0,0.0,0.0,0.0,0.0,0.0,0.0,0.0,0.0,0.0,0.0,0.0,0.0,0.0,0.0,0.0,0.0,0.0,0.0,0.0,0.0,0.0,0.0,0.0,0.0,0.0,0.0,0.0,0.0,0.0,0.0,0.0,0.0,0.0,0.0,0.0,0.0,0.0,0.0,0.0,0.0,0.0,0.0,0.0,0.0,0.0,0.0,0.0,0.0,0.0,0.0,0.0,0.0,0.0,0.0,0.0,0.0,0.0,0.0,0.0,0.0,0.0,0.0,0.0,0.0,0.0,0.0,0.0,0.0,0.0,0.0,0.0,1.7466,1.7664,1.7825,1.7957,1.776,1.7171,1.6191,0.0,0.0,0.0,0.0,0.0,0.0,0.0,0.0,0.0,0.0,0.0,0.0,0.0,0.0,0.0,0.0,0.0,0.0,0.0,0.0,0.0,0.0,0.0,0.0,0.0,0.0,0.0,0.0,0.0,0.0,0.0,0.0,0.0,0.0,0.0,0.0,0.0,0.0,0.0,0.0,0.0,0.0,0.0,0.0,0.0,0.0,0.0,0.0,0.0,0.0,0.0,0.0,0.0,0.0,0.0,0.0,0.0,0.0,0.0,0.0,0.0,0.0,0.0,0.0,0.0,0.0,0.0,0.0,0.0,0.0,0.0,0.0,0.0,0.0,0.0,0.0,0.0,0.0,0.0,0.0,0.0,0.0,0.0,0.0,0.0,0.0,0.0,0.0,0.0,0.0,0.0,0.0,0.0,0.0,0.0,0.0,0.0,0.0,0.0,0.0,0.0,0.0,0.0,0.0,0.0,0.0,0.0,0.0,2.0379,1.9687,1.9469,1.9652,1.9273,1.8408,0.0,0.0,0.0,0.0,0.0,0.0,0.0,0.0,0.0,0.0,0.0,0.0,0.0,0.0,0.0,0.0,0.0,0.0,0.0,0.0,0.0,0.0,0.0,0.0,0.0,0.0,0.0,0.0,0.0,0.0,0.0,0.0,0.0,0.0,0.0,0.0,0.0,0.0,0.0,0.0,0.0,0.0,0.0,0.0,0.0,0.0,0.0,0.0,0.0,0.0,0.0,0.0,0.0,0.0,0.0,0.0,0.0,0.0,0.0,0.0,0.0,0.0,0.0,0.0,0.0,0.0,0.0,0.0,0.0,0.0,0.0,0.0,0.0,0.0,0.0,0.0,0.0,0.0,0.0,0.0,0.0,0.0,0.0,0.0,0.0,0.0,0.0,0.0,0.0,0.0,0.0,0.0,0.0,0.0,0.0,0.0,0.0,0.0,0.0,0.0,0.0,0.0,0.0,0.0,0.0,0.0,0.0,0.0,0.0,2.3671,2.4304,2.3945,2.2608,2.1353,2.0168,0.0,0.0,0.0,0.0,0.0,0.0,0.0,0.0,0.0,0.0,0.0,0.0,0.0,0.0,0.0,0.0,0.0,0.0,0.0,0.0,0.0,0.0,0.0,0.0,0.0,0.0,0.0,0.0,0.0,0.0,0.0,0.0,0.0,0.0,0.0,0.0,0.0,0.0,0.0,0.0,0.0,0.0,0.0,0.0,0.0,0.0,0.0,0.0,0.0,0.0,0.0,0.0,0.0,0.0,0.0,0.0,0.0,0.0,0.0,0.0,0.0,0.0,0.0,0.0,0.0,0.0,0.0,0.0,0.0,0.0,0.0,0.0,0.0,0.0,0.0,0.0,0.0,0.0,0.0,0.0,0.0,0.0,0.0,0.0,0.0,0.0,0.0,0.0,0.0,0.0,0.0,0.0,0.0,0.0,0.0,0.0,0.0,0.0,0.0,0.0,0.0,0.0,0.0,0.0,0.0,0.0,0.0,0.0,2.2474,2.4728,2.6282,2.6513,2.5424,2.3765,2.2108,0.0,0.0,0.0,0.0,0.0,0.0,0.0,0.0,0.0,0.0,0.0,0.0,0.0,0.0,0.0,0.0,0.0,0.0,0.0,0.0,0.0,0.0,0.0,0.0,0.0,0.0,0.0,0.0,0.0,0.0,0.0,0.0,0.0,0.0,0.0,0.0,0.0,0.0,0.0,0.0,0.0,0.0,0.0,0.0,0.0,0.0,0.0,0.0,0.0,0.0,0.0,0.0,0.0,0.0,0.0,0.0,0.0,0.0,0.0,0.0,0.0,0.0,0.0,0.0,0.0,0.0,0.0,0.0,0.0,0.0,0.0,0.0,0.0,0.0,0.0,0.0,0.0,0.0,0.0,0.0,0.0,0.0,0.0,0.0,0.0,0.0,0.0,0.0,0.0,0.0,0.0,0.0,0.0,0.0,0.0,0.0,0.0,0.0,0.0,0.0,0.0,0.0,0.0,0.0,0.0,0.0,0.0,0.0,2.3629,2.4592,2.6686,2.7771,2.7697,2.5991,2.3881,0.0,0.0,0.0,0.0,0.0,0.0,0.0,0.0,0.0,0.0,0.0,0.0,0.0,0.0,0.0,0.0,0.0,0.0,0.0,0.0,0.0,0.0,0.0,0.0,0.0,0.0,0.0,0.0,0.0,0.0,0.0,0.0,0.0,0.0,0.0,0.0,0.0,0.0,0.0,0.0,0.0,0.0,0.0,0.0,0.0,0.0,0.0,0.0,0.0,0.0,0.0,0.0,0.0,0.0,0.0,0.0,0.0,0.0,0.0,0.0,0.0,0.0,0.0,0.0,0.0,0.0,0.0,0.0,0.0,0.0,0.0,0.0,0.0,0.0,0.0,0.0,0.0,0.0,0.0,0.0,0.0,0.0,0.0,0.0,0.0,0.0,0.0,0.0,0.0,0.0,0.0,0.0,0.0,0.0,0.0,0.0,0.0,0.0,0.0,0.0,0.0,0.0,0.0,0.0,0.0,0.0,0.0,0.0,2.4397,2.6393,2.767,2.8226,2.8023,2.5817,2.4023,0.0,0.0,0.0,0.0,0.0,0.0,0.0,0.0,0.0,0.0,0.0,0.0,0.0,0.0,0.0,0.0,0.0,0.0,0.0,0.0,0.0,0.0,0.0,0.0,0.0,0.0,0.0,0.0,0.0,0.0,0.0,0.0,0.0,0.0,0.0,0.0,0.0,0.0,0.0,0.0,0.0,0.0,0.0,0.0,0.0,0.0,0.0,0.0,2.2128,0.0,0.0,0.0,0.0,0.0,0.0,0.0,0.0,0.0,0.0,0.0,0.0,0.0,0.0,0.0,0.0,0.0,0.0,0.0,0.0,0.0,0.0,0.0,0.0,0.0,0.0,0.0,0.0,0.0,0.0,0.0,0.0,0.0,0.0,0.0,0.0,0.0,0.0,0.0,0.0,0.0,0.0,0.0,0.0,0.0,0.0,0.0,0.0,0.0,0.0,0.0,0.0,0.0,0.0,0.0,0.0,0.0,0.0,0.0,2.4837,2.6764,2.7677,2.8051,2.7872,2.6338,2.4723,0.0,0.0,0.0,0.0,0.0,0.0,0.0,0.0,0.0,0.0,0.0,0.0,0.0,0.0,0.0,0.0,0.0,0.0,0.0,0.0,0.0,0.0,0.0,0.0,0.0,0.0,0.0,0.0,0.0,0.0,0.0,0.0,0.0,0.0,0.0,0.0,0.0,0.0,0.0,0.0,0.0,0.0,0.0,0.0,0.0,0.0,0.0,0.0,0.0,0.0,0.0,0.0,0.0,0.0,0.0,0.0,0.0,0.0,0.0,0.0,0.0,0.0,0.0,0.0,0.0,0.0,0.0,0.0,0.0,0.0,0.0,0.0,0.0,0.0,0.0,0.0,0.0,0.0,0.0,0.0,0.0,0.0,0.0,0.0,0.0,0.0,0.0,0.0,0.0,0.0,0.0,0.0,0.0,0.0,0.0,0.0,0.0,0.0,0.0,0.0,0.0,0.0,0.0,0.0,0.0,0.0,0.0,2.3577,2.5099,2.6714,2.7371,2.7697,2.7669,2.6977,2.5546,0.0,0.0,0.0,0.0,0.0,0.0,0.0,0.0,0.0,0.0,0.0,0.0,0.0,0.0,0.0,0.0,0.0,0.0,0.0,0.0,0.0,0.0,0.0,0.0,0.0,0.0,0.0,0.0,0.0,0.0,0.0,0.0,0.0,0.0,0.0,0.0,0.0,0.0,0.0,1.8819,1.9416,0.0,0.0,0.0,0.0,0.0,0.0,0.0,0.0,2.3556,0.0,0.0,0.0,0.0,0.0,0.0,0.0,0.0,0.0,0.0,0.0,0.0,0.0,0.0,0.0,0.0,0.0,0.0,0.0,0.0,0.0,0.0,0.0,0.0,0.0,0.0,0.0,0.0,0.0,0.0,0.0,0.0,0.0,0.0,0.0,0.0,0.0,0.0,0.0,0.0,0.0,0.0,0.0,0.0,0.0,0.0,0.0,0.0,0.0,0.0,0.0,0.0,0.0,0.0,0.0,0.0,2.2876,2.3831,2.5348,2.7459,2.7635,2.7668,2.7593,2.6901,2.5705,2.3996,0.0,0.0,0.0,0.0,0.0,0.0,0.0,0.0,0.0,0.0,0.0,0.0,0.0,0.0,0.0,0.0,0.0,0.0,0.0,0.0,0.0,0.0,0.0,0.0,0.0,0.0,0.0,0.0,0.0,0.0,0.0,0.0,0.0,0.0,0.0,0.0,0.0,0.0,0.0,2.094,2.1233,0.0,0.0,0.0,0.0,0.0,0.0,0.0,0.0,2.4809,0.0,0.0,0.0,0.0,0.0,0.0,0.0,0.0,0.0,0.0,0.0,0.0,0.0,0.0,0.0,0.0,0.0,0.0,0.0,0.0,0.0,0.0,0.0,0.0,0.0,0.0,0.0,0.0,0.0,0.0,0.0,0.0,0.0,0.0,0.0,0.0,0.0,0.0,0.0,0.0,0.0,0.0,0.0,0.0,0.0,0.0,0.0,0.0,0.0,0.0,0.0,0.0,0.0,0.0,0.0,2.3684,2.5253,2.6799,2.8284,2.8737,2.8928,2.8868,2.7747,2.6366,0.0,0.0,0.0,0.0,0.0,0.0,0.0,0.0,0.0,0.0,0.0,0.0,0.0,0.0,0.0,0.0,0.0,0.0,0.0,0.0,0.0,0.0,0.0,0.0,0.0,0.0,0.0,0.0,0.0,0.0,0.0,0.0,0.0,0.0,0.0,0.0,0.0,0.0,0.0,0.0,2.2697,2.3442,2.5464,0.0,0.0,0.0,0.0,0.0,0.0,2.7411,2.6612,0.0,0.0,0.0,0.0,0.0,0.0,0.0,0.0,0.0,0.0,0.0,0.0,0.0,0.0,0.0,0.0,0.0,0.0,0.0,0.0,0.0,0.0,0.0,0.0,0.0,0.0,0.0,0.0,0.0,0.0,0.0,0.0,0.0,0.0,0.0,0.0,0.0,0.0,0.0,0.0,0.0,0.0,0.0,0.0,0.0,0.0,0.0,0.0,0.0,0.0,0.0,0.0,0.0,0.0,0.0,2.4522,2.6781,2.8337,2.9115,2.9753,3.0044,3.0015,2.8325,2.6775,0.0,0.0,0.0,0.0,0.0,0.0,0.0,0.0,0.0,0.0,0.0,0.0,0.0,0.0,0.0,0.0,0.0,0.0,0.0,0.0,0.0,0.0,0.0,0.0,0.0,0.0,0.0,0.0,0.0,0.0,0.0,0.0,0.0,0.0,0.0,0.0,0.0,0.0,0.0,0.0,0.0,2.5552,2.7764,2.7554,0.0,0.0,0.0,0.0,2.9548,2.9195,0.0,0.0,0.0,0.0,0.0,0.0,0.0,0.0,0.0,0.0,0.0,0.0,0.0,0.0,0.0,0.0,0.0,0.0,0.0,0.0,0.0,0.0,0.0,0.0,0.0,0.0,0.0,0.0,0.0,0.0,0.0,0.0,0.0,0.0,0.0,0.0,0.0,0.0,0.0,0.0,0.0,0.0,0.0,0.0,0.0,0.0,0.0,0.0,0.0,0.0,0.0,0.0,0.0,0.0,0.0,0.0,2.5293,2.7578,2.9154,2.9905,2.9946,2.9886,2.98,2.7587,2.6261,0.0,0.0,0.0,0.0,0.0,0.0,0.0,0.0,0.0,0.0,0.0,0.0,0.0,0.0,0.0,0.0,0.0,0.0,0.0,0.0,0.0,0.0,0.0,0.0,0.0,0.0,0.0,0.0,0.0,0.0,0.0,0.0,0.0,0.0,0.0,0.0,0.0,0.0,0.0,0.0,0.0,2.6166,2.787,2.8019,2.8,0.0,0.0,0.0,3.044,3.0976,0.0,0.0,0.0,0.0,0.0,0.0,0.0,0.0,0.0,0.0,0.0,0.0,0.0,0.0,0.0,0.0,0.0,0.0,0.0,0.0,0.0,0.0,0.0,0.0,0.0,0.0,0.0,0.0,0.0,0.0,0.0,0.0,0.0,0.0,0.0,0.0,0.0,0.0,0.0,0.0,0.0,0.0,0.0,0.0,0.0,0.0,0.0,0.0,0.0,0.0,0.0,0.0,0.0,0.0,0.0,2.5474,2.6651,2.9718,3.1297,3.1249,3.1594,3.1568,3.1111,2.8804,2.7338,0.0,0.0,0.0,0.0,0.0,0.0,0.0,0.0,0.0,0.0,0.0,0.0,0.0,0.0,0.0,0.0,0.0,0.0,0.0,0.0,0.0,0.0,0.0,0.0,0.0,0.0,0.0,0.0,0.0,0.0,0.0,0.0,0.0,0.0,0.0,0.0,0.0,0.0,0.0,0.0,0.0,0.0,2.9357,3.0286,0.0,0.0,0.0,3.1807,3.1348,0.0,0.0,0.0,0.0,0.0,0.0,0.0,0.0,0.0,0.0,0.0,0.0,0.0,0.0,0.0,0.0,0.0,0.0,0.0,0.0,0.0,0.0,0.0,0.0,0.0,0.0,0.0,0.0,0.0,0.0,0.0,0.0,0.0,0.0,0.0,0.0,0.0,0.0,0.0,0.0,0.0,0.0,0.0,0.0,0.0,0.0,0.0,0.0,0.0,0.0,0.0,0.0,0.0,0.0,0.0,0.0,0.0,2.7813,3.1568,3.3261,3.2711,3.302,3.3002,3.2589,3.0347,0.0,0.0,0.0,0.0,0.0,0.0,0.0,0.0,0.0,0.0,0.0,0.0,0.0,0.0,0.0,0.0,0.0,0.0,0.0,0.0,0.0,0.0,0.0,0.0,0.0,0.0,0.0,0.0,0.0,0.0,0.0,0.0,0.0,0.0,0.0,0.0,0.0,0.0,0.0,0.0,0.0,0.0,2.9901,3.0511,3.1974,3.3073,0.0,0.0,3.3166,3.2791,3.3404,3.3091,0.0,0.0,0.0,0.0,0.0,0.0,0.0,0.0,0.0,0.0,0.0,0.0,0.0,0.0,0.0,0.0,0.0,0.0,0.0,0.0,0.0,0.0,0.0,0.0,0.0,0.0,0.0,0.0,0.0,0.0,0.0,0.0,0.0,0.0,0.0,0.0,0.0,0.0,0.0,0.0,0.0,0.0,0.0,0.0,0.0,0.0,0.0,0.0,0.0,0.0,0.0,0.0,0.0,0.0,0.0,2.8615,3.2419,3.4363,3.4224,3.356,3.347,3.4015,3.177,3.017,0.0,0.0,0.0,0.0,0.0,0.0,0.0,0.0,0.0,0.0,0.0,0.0,0.0,0.0,0.0,0.0,0.0,0.0,0.0,0.0,0.0,0.0,0.0,0.0,0.0,0.0,0.0,0.0,0.0,0.0,0.0,0.0,0.0,0.0,0.0,0.0,0.0,0.0,0.0,0.0,0.0,3.0527,3.0591,3.1977,3.3274,0.0,0.0,3.437,3.5117,3.5912,3.5597,3.3144,0.0,0.0,0.0,0.0,0.0,0.0,0.0,0.0,0.0,0.0,0.0,0.0,0.0,0.0,0.0,0.0,0.0,0.0,0.0,0.0,0.0,0.0,0.0,0.0,0.0,0.0,0.0,0.0,0.0,0.0,0.0,0.0,0.0,0.0,0.0,0.0,0.0,0.0,0.0,0.0,0.0,0.0,0.0,0.0,0.0,0.0,0.0,0.0,0.0,0.0,0.0,0.0,0.0,2.9115,2.992,3.3666,3.5371,3.4899,3.4597,3.4335,3.4128,3.2789,3.1261,0.0,0.0,0.0,0.0,0.0,0.0,0.0,0.0,0.0,0.0,0.0,0.0,0.0,0.0,0.0,0.0,0.0,0.0,0.0,0.0,0.0,0.0,0.0,0.0,0.0,0.0,0.0,0.0,2.3879,2.4865,2.4216,0.0,0.0,0.0,0.0,0.0,0.0,0.0,0.0,0.0,0.0,3.1701,3.2683,3.4225,0.0,0.0,3.5742,3.5689,3.5507,3.5764,3.5117,3.2667,3.1586,0.0,0.0,0.0,0.0,0.0,0.0,0.0,0.0,0.0,0.0,0.0,0.0,0.0,0.0,0.0,0.0,0.0,0.0,0.0,0.0,0.0,0.0,0.0,0.0,0.0,0.0,0.0,0.0,0.0,0.0,0.0,0.0,0.0,0.0,0.0,0.0,0.0,0.0,0.0,0.0,0.0,0.0,0.0,0.0,0.0,0.0,0.0,0.0,0.0,0.0,0.0,0.0,2.9933,3.0709,3.4439,3.6096,3.553,3.5354,3.51,3.4737,3.399,3.2726,0.0,0.0,0.0,0.0,0.0,0.0,0.0,0.0,0.0,0.0,0.0,0.0,0.0,0.0,0.0,0.0,0.0,0.0,0.0,0.0,0.0,0.0,0.0,0.0,0.0,0.0,0.0,0.0,2.5273,2.5876,2.457,0.0,0.0,0.0,0.0,0.0,0.0,0.0,0.0,0.0,0.0,3.3218,3.4089,3.5426,3.6343,3.634,3.6343,3.6228,3.5912,3.5857,3.5191,3.3224,0.0,0.0,0.0,0.0,0.0,0.0,0.0,0.0,0.0,0.0,0.0,0.0,0.0,0.0,0.0,0.0,0.0,0.0,0.0,0.0,0.0,0.0,0.0,0.0,0.0,0.0,0.0,0.0,0.0,0.0,0.0,0.0,0.0,0.0,0.0,0.0,0.0,0.0,0.0,0.0,0.0,0.0,0.0,0.0,0.0,0.0,0.0,0.0,0.0,0.0,0.0,0.0,0.0,0.0,3.0744,3.4525,3.6428,3.626,3.5702,3.5672,3.618,3.5542,3.4771,3.3931,0.0,0.0,0.0,0.0,0.0,0.0,0.0,0.0,0.0,0.0,0.0,0.0,0.0,0.0,0.0,0.0,0.0,0.0,0.0,0.0,0.0,0.0,0.0,0.0,0.0,0.0,2.2253,2.4367,2.5586,0.0,0.0,0.0,0.0,0.0,0.0,0.0,0.0,0.0,0.0,3.3173,3.5113,3.4346,3.4983,3.5606,3.5602,3.5572,3.5795,3.6562,3.6664,3.6395,0.0,0.0,0.0,0.0,0.0,0.0,0.0,0.0,0.0,0.0,0.0,0.0,0.0,0.0,0.0,0.0,0.0,0.0,0.0,0.0,0.0,0.0,0.0,0.0,0.0,0.0,0.0,0.0,1.7753,0.0,0.0,0.0,0.0,0.0,0.0,0.0,0.0,0.0,0.0,0.0,2.5989,2.6842,0.0,0.0,0.0,0.0,0.0,0.0,0.0,0.0,0.0,0.0,0.0,0.0,3.0144,3.152,3.4698,3.6338,3.6289,3.6101,3.6084,3.6289,3.6059,3.5099,3.3335,0.0,0.0,0.0,0.0,0.0,0.0,0.0,0.0,0.0,0.0,0.0,0.0,0.0,0.0,0.0,0.0,0.0,0.0,0.0,0.0,0.0,0.0,0.0,0.0,0.0,2.3979,0.0,0.0,0.0,0.0,0.0,0.0,0.0,0.0,0.0,0.0,0.0,3.0044,3.1249,3.3115,3.4453,3.4693,3.5433,3.6326,0.0,0.0,0.0,0.0,0.0,0.0,0.0,0.0,0.0,0.0,0.0,0.0,0.0,0.0,3.1517,3.0533,3.0862,3.1209,3.0983,0.0,0.0,0.0,0.0,0.0,0.0,0.0,0.0,0.0,0.0,0.0,0.0,0.0,0.0,0.0,0.0,2.0421,0.0,0.0,0.0,0.0,0.0,0.0,0.0,0.0,2.697,2.8272,2.8881,2.9875,3.0467,0.0,2.9877,2.7868,0.0,0.0,0.0,0.0,0.0,0.0,0.0,0.0,3.0662,3.2214,3.4909,3.6284,3.6284,3.6284,3.6284,3.6284,3.6284,3.5594,3.4128,3.2391,3.0519,0.0,0.0,0.0,0.0,0.0,0.0,0.0,0.0,0.0,0.0,0.0,0.0,0.0,0.0,0.0,0.0,0.0,0.0,0.0,0.0,0.0,0.0,0.0,2.5059,0.0,0.0,0.0,0.0,0.0,0.0,0.0,0.0,0.0,2.7059,2.9511,3.1674,3.2613,3.4207,3.5294,3.525,0.0,0.0,0.0,0.0,0.0,0.0,0.0,3.6104,3.5644,3.5942,3.6175,3.5909,3.5918,3.5967,3.5962,0.0,0.0,3.3609,3.3765,3.4131,3.3892,3.4151,3.4409,3.442,3.5025,3.5539,0.0,0.0,0.0,0.0,0.0,0.0,0.0,0.0,2.3537,2.3525,0.0,2.2791,0.0,0.0,0.0,0.0,0.0,0.0,0.0,0.0,3.0818,3.1951,3.1305,3.2305,3.2878,3.2781,3.0713,3.0058,3.0709,3.0011,0.0,0.0,0.0,0.0,0.0,0.0,3.1464,3.2955,3.5168,3.6284,3.6284,3.6284,3.6284,3.6284,3.6284,3.6272,3.6197,3.4157,3.2995,3.2852,2.8726,0.0,0.0,0.0,0.0,0.0,0.0,0.0,0.0,0.0,0.0,0.0,0.0,0.0,0.0,0.0,0.0,0.0,0.0,0.0,0.0,2.4919,0.0,0.0,0.0,0.0,0.0,0.0,0.0,0.0,0.0,0.0,2.949,3.1454,3.3223,3.4004,0.0,0.0,0.0,0.0,3.7389,3.5973,3.5625,3.56,3.573,3.615,3.6789,3.7596,0.0,0.0,3.8827,3.8227,3.7743,3.7725,3.8356,3.8045,3.5481,3.5252,3.5345,3.5301,3.6079,3.6719,3.6825,3.7354,3.7929,2.5277,0.0,0.0,0.0,0.0,2.4679,2.4818,2.4996,2.4996,2.5001,2.498,2.479,0.0,0.0,0.0,0.0,0.0,0.0,2.7785,2.8733,3.0453,3.1434,3.1774,3.2339,3.2899,3.3357,3.2735,3.2946,3.3869,3.368,3.1714,2.8148,0.0,0.0,0.0,0.0,3.2236,3.3758,3.5439,3.6284,3.6284,3.6284,3.6284,3.6284,3.6284,3.6284,3.6289,3.5663,3.484,3.3771,3.1972,0.0,0.0,0.0,0.0,0.0,0.0,0.0,0.0,0.0,0.0,0.0,0.0,0.0,0.0,0.0,0.0,0.0,0.0,0.0,2.5675,2.7382,2.779,0.0,0.0,0.0,0.0,0.0,0.0,0.0,0.0,0.0,3.3081,3.3737,3.427,0.0,0.0,3.5779,3.5269,3.6042,3.6889,3.7558,0.0,0.0,0.0,3.8497,3.8216,3.8767,3.9494,4.0017,4.0011,4.0256,4.0452,4.0447,4.0634,4.0516,3.9812,3.8926,3.8349,3.8183,3.8362,3.8545,3.8585,3.9206,3.9739,2.8759,2.8034,2.6899,2.656,2.6858,2.6874,2.7036,2.7305,2.7289,2.73,2.7267,2.6987,2.6707,2.6421,2.6281,0.0,0.0,0.0,2.9003,3.0418,3.114,3.2031,3.3051,3.3399,3.3896,3.445,3.4149,3.4567,3.5616,3.5047,3.3551,3.1149,0.0,0.0,3.0869,3.208,3.331,3.4517,3.5702,3.6284,3.6284,3.6284,3.6284,3.6284,3.6284,3.6284,3.6284,3.6284,3.5892,3.5012,3.396,3.2391,0.0,0.0,0.0,0.0,0.0,0.0,0.0,0.0,0.0,0.0,0.0,2.3391,0.0,0.0,0.0,0.0,2.7293,2.8141,2.8456,2.9229,0.0,0.0,0.0,0.0,0.0,0.0,0.0,3.0819,3.2619,3.4198,3.5286,3.5729,3.5946,3.6002,3.6367,3.6488,3.6162,0.0,3.7923,3.8561,3.8048,3.8112,3.9581,3.9699,3.9859,4.0718,4.1231,4.155,4.1574,4.1951,4.2225,4.2225,4.2242,4.2254,4.2271,4.1632,4.0898,4.034,4.0224,4.0207,4.0207,4.0609,4.093,3.1848,3.1732,2.9054,2.8366,2.9038,2.9059,2.9426,3.0064,3.0064,3.008,3.001,2.9356,2.8681,2.8017,2.7653,0.0,0.0,2.9297,3.0557,3.2539,3.255,3.3249,3.4543,3.4856,3.5217,3.5535,3.4794,3.5018,3.5962,3.4759,3.4497,3.5208,3.4583,3.3857,3.3093,3.3793,3.4522,3.5197,3.5927,3.6284,3.6284,3.6284,3.6284,3.6284,3.6284,3.6284,3.6284,3.6284,3.6284,3.6249,3.5,3.3879,3.296,0.0,0.0,0.0,0.0,0.0,0.0,0.0,0.0,0.0,0.0,0.0,0.0,0.0,0.0,0.0,3.0452,0.0,3.1826,3.0715,0.0,0.0,0.0,2.9612,3.1016,3.1263,3.2165,3.4235,0.0,0.0,0.0,0.0,3.8047,3.8217,3.8625,3.8664,3.7974,3.9075,3.983,3.9226,3.9121,3.9152,3.9624,4.0464,4.1555,4.2776,4.3227,4.3144,4.315,4.3179,4.3217,4.3191,4.3228,4.3231,4.3317,4.3217,4.3011,4.1952,4.1775,4.1764,4.1752,4.1799,4.184,3.1666,3.1636,3.094,3.0876,3.1223,3.1251,3.1326,3.1499,3.1488,3.1488,3.1483,3.1321,3.1148,3.097,3.0881,3.1105,3.1588,3.1682,3.2139,3.2873,3.2873,3.3067,3.3401,3.3533,3.3572,3.3511,3.3327,3.3612,3.4303,3.4326,3.4718,3.5482,3.5685,3.5116,3.3901,3.4569,3.5035,3.518,3.5927,3.6284,3.6284,3.6284,3.6284,3.6284,3.6284,3.6284,3.6284,3.6284,3.6284,3.6284,3.5978,3.518,3.3857,3.1309,0.0,0.0,0.0,0.0,0.0,0.0,0.0,0.0,0.0,2.5706,2.5278,0.0,2.9571,0.0,3.1504,3.3117,3.2679,3.2871,0.0,0.0,3.133,3.1734,3.316,3.3897,3.473,3.584,3.7014,3.7895,3.8307,3.8965,3.9643,4.0249,3.9507,3.8855,3.8766,3.9386,4.0117,4.0527,4.1082,4.1777,4.2312,4.2782,4.3094,4.3369,4.3529,4.3584,4.3584,4.359,4.359,4.3584,4.3578,4.3596,4.3625,4.3674,4.3681,4.3395,4.3209,4.3074,4.3185,4.318,4.3209,3.3419,3.3476,3.3467,3.3421,3.3267,3.2243,3.1816,3.1816,3.1822,3.1822,3.1828,3.1838,3.1812,3.1822,3.1838,3.1941,3.2095,3.2101,3.2347,3.2805,3.2817,3.2982,3.3294,3.3368,3.3415,3.348,3.3681,3.3937,3.4198,3.4706,3.5043,3.5248,3.5738,3.558,3.4827,3.5385,3.5702,3.5702,3.6099,3.6479,3.6823,3.6841,3.6841,3.6823,3.6479,3.6151,3.5823,3.5495,3.5306,3.5318,3.5323,3.4966,3.4108,3.1947,3.0321,0.0,0.0,0.0,0.0,0.0,0.0,0.0,0.0,0.0,0.0,0.0,3.1322,0.0,3.2943,0.0,3.3512,3.3845,3.4017,3.3822,3.3901,3.4503,3.5942,3.6568,3.7119,3.783,3.8677,3.9357,3.9725,4.0107,4.051,4.1047,4.0643,4.0181,4.0035,4.0447,4.1023,4.1532,4.2255,4.3037,4.3856,4.3967,4.4058,4.4289,4.4413,4.4463,4.4463,4.4446,4.4463,4.4457,4.4463,4.4446,4.4452,4.4519,4.4575,4.4556,4.444,4.4221,4.3867,4.3798,4.381,3.5643,3.576,3.5753,3.5486,3.4897,3.2933,3.2019,3.1926,3.2022,3.209,3.2168,3.2149,3.2143,3.2137,3.2121,3.2127,3.2143,3.2127,3.2441,3.299,3.3051,3.3415,3.4037,3.4079,3.4258,3.4542,3.494,3.5096,3.5002,3.5533,3.5574,3.5217,3.5706,3.5988,3.601,3.6389,3.6508,3.6284,3.6284,3.6634,3.7317,3.7334,3.7352,3.7312,3.6668,3.5956,3.5219,3.4586,3.4199,3.4108,3.4086,3.4155,3.4172,3.2171,3.1028,0.0,2.8441,0.0,0.0,0.0,0.0,0.0,0.0,0.0,0.0,3.2098,3.298,3.3175,3.4409,3.5023,3.4557,3.454,3.5104,3.641,3.6696,3.7288,3.8559,3.8845,3.9161,3.9784,3.9859,4.0135,4.0739,4.0888,4.0953,4.1225,4.1593,4.1714,4.1508,4.1812,4.2208,4.242,4.305,4.3869,4.4368,4.4487,4.4682,4.5258,4.5329,4.5423,4.5377,4.537,4.5409,4.5409,4.5342,4.5381,4.5406,4.5411,4.5435,4.5394,4.5388,4.513,4.4425,4.4218,4.4114,3.5457,3.547,3.547,3.542,3.5298,3.4868,3.4274,3.367,3.4264,3.4752,3.5152,3.5049,3.5002,3.5018,3.5002,3.4995,3.5008,3.5002,3.5066,3.5207,3.5472,3.5658,3.5827,3.6149,3.6117,3.5775,3.5854,3.5903,3.5948,3.6472,3.6905,3.7236,3.7781,3.8029,0.0,0.0,0.0,0.0,3.6284,3.637,3.653,3.6513,3.6525,3.653,3.6375,0.0,3.5237,3.5059,3.4707,3.4138,3.4086,0.0,0.0,0.0,0.0,0.0,0.0,0.0,0.0,0.0,0.0,0.0,3.2007,3.2059,3.1666,3.2408,3.3416,3.4633,3.5035,3.5656,3.6748,3.6869,3.7196,3.8048,3.8185,3.853,3.9376,3.9514,3.983,4.0578,4.0681,4.0716,4.0894,4.0888,4.1159,4.1729,4.193,4.226,4.2807,4.2906,4.3202,4.3819,4.4526,4.5141,4.5338,4.5314,4.5263,4.5432,4.5485,4.5554,4.5537,4.5561,4.5567,4.5561,4.5567,4.5561,4.555,4.5641,4.568,4.5712,4.5723,4.5625,4.5341,4.5271,4.531,3.6429,0.0,3.6429,3.6259,0.0,3.5992,3.5605,3.4957,3.5191,3.5452,3.5682,3.5636,3.5586,3.5608,3.5678,3.5698,3.5705,3.5772,3.5772,3.5712,3.5862,3.5923,3.5878,3.6065,3.6025,3.576,3.5979,3.5986,3.5833,3.6303,3.6709,3.7012,3.7531,3.8128,3.8772,3.9032,3.8583,3.7444,3.7444,3.7433,3.7427,3.7433,3.7427,3.7433,0.0,0.0,0.0,0.0,0.0,0.0,0.0,0.0,0.0,0.0,0.0,3.4564,3.3197,3.2684,3.3391,3.3133,3.3253,3.3978,3.4742,3.4685,3.3569,3.4517,3.5495,3.6254,3.6656,3.7191,3.7956,3.8031,3.833,3.9031,3.9152,3.9445,4.0141,4.029,4.0451,4.0785,4.0888,4.1009,4.14,4.1435,4.1751,4.2482,4.2901,4.3288,4.3688,4.3749,4.4018,4.4716,4.5169,4.5478,4.5502,4.5502,4.5496,4.5423,4.5456,4.5502,4.5502,4.5502,4.5509,4.5502,4.5502,4.5502,4.5509,4.5561,4.5596,4.5613,4.5613,4.5576,4.5522,4.5596,4.5705,3.751,3.751,3.751,3.7214,3.6747,3.6763,3.6508,3.607,0.0,0.0,0.0,3.5786,3.5765,3.5772,3.5869,3.5941,3.5932,3.6047,3.6033,3.5932,3.5934,3.5878,3.5781,3.5772,3.5788,3.5793,3.6156,3.6259,3.6091,3.6461,3.6716,3.6898,3.7306,3.8049,3.9011,3.9536,3.9487,3.891,3.8711,3.86,3.86,3.86,3.86,3.86,3.7887,3.7438,3.7295,3.653,3.6047,3.5904,3.5909,3.5973,3.6065,3.553,3.5264,3.5328,3.4209,3.4111,3.5478,3.5057,3.5276,3.6617,3.7306,3.7157,3.5892,3.6967,3.7697,3.7697,3.8243,3.8634,3.8767,3.879,3.9089,3.9825,3.9911,4.0187,4.0779,4.0888,4.0871,4.0912,4.1027,4.1326,4.1883,4.2131,4.2493,4.3276,4.3828,4.438,4.446,4.4488,4.4688,4.5221,4.54,4.5421,4.5404,4.541,4.5421,4.5421,4.5404,4.5421,4.5421,4.5421,4.5421,4.5427,4.5421,4.5404,4.5421,4.5417,4.5421,4.5421,4.5421,4.5438,4.5589,4.5788,4.5907,3.751,3.751,3.751,3.7454,3.7382,3.7374,3.7334,3.7221,3.6662,3.6777,3.7371,3.7253,3.7202,3.7225,3.7224,3.7247,3.7231,3.7269,3.7246,0.0,3.7231,3.7224,3.7195,3.7195,3.7195,3.7209,3.7267,3.7769,3.8576,3.8694,3.9,3.9364,3.9543,3.9422,3.9255,3.9811,4.0087,3.9967,3.9058,3.86,3.86,3.86,3.86,3.8571,3.7893,3.7162,3.6479,3.5801,3.5069,3.4453,3.4419,3.4685,3.5306,3.5323,3.5495,3.6082,3.5939,3.622,3.7082,3.7093,3.7386,3.818,3.8376,3.8347,3.8157,3.8312,3.8433,3.845,3.8606,3.8882,3.9445,3.9543,3.9859,4.0555,4.071,4.0785,4.0906,4.094,4.0957,4.0963,4.1469,4.1889,4.2131,4.2648,4.3287,4.3959,4.4304,4.454,4.5037,4.5255,4.5283,4.538,4.5421,4.5421,4.5421,4.5421,4.5421,4.5421,4.5421,4.5421,4.5421,4.5421,4.5421,4.5421,4.5421,4.5421,4.5421,4.5421,4.549,4.5507,4.5535,4.5714,4.6283,4.6464,4.6301,3.7405,3.7502,3.751,3.751,3.751,3.751,3.751,3.7471,3.7229,3.7283,3.7568,3.7532,3.751,3.751,3.7584,3.7613,3.7621,3.7678,3.7678,3.7605,3.7598,3.7576,3.751,3.751,3.751,3.751,3.751,3.7758,3.8237,3.8272,3.8558,3.9076,3.9404,3.9447,3.9242,3.9507,3.9666,3.9663,3.9885,3.9632,3.8915,3.8865,3.8685,3.8299,3.8247,3.8286,3.8298,3.8305,3.8145,3.78,3.7789,3.7938,3.8266,3.7893,3.7784,3.81,3.7767,3.7686,3.8065,3.8094,3.8427,3.9117,3.9186,3.9376,3.9813,3.9451,3.9192,3.9221,3.9572,3.9968,4.0319,4.0348,4.0509,4.0871,4.0888,4.0888,4.094,4.1303,4.1504,4.1561,4.2165,4.278,4.3194,4.358,4.4063,4.4734,4.4889,4.5031,4.5363,4.5421,4.5421,4.5421,4.5421,4.5421,4.5421,4.5421,4.5421,4.5421,4.5421,4.5421,4.5421,4.5421,4.5421,4.5421,4.5421,4.5421,4.5438,4.579,4.5996,4.61,4.6414,4.68,4.7117,4.7203,4.7044,3.7248,3.7391,3.7428,3.745,3.7502,3.751,3.751,3.751,3.751,3.751,3.751,3.751,3.751,3.7517,3.7621,3.7665,3.768,3.7759,3.7759,3.7656,3.7672,3.7606,3.751,3.751,3.751,3.751,3.751,3.7576,3.7663,3.7677,3.7886,3.8301,3.8652,3.882,3.883,3.897,3.9052,3.9111,4.0208,4.025,3.9188,3.9135,3.8854,3.8358,3.8534,3.8946,3.9529,3.983,4.0058,4.0188,4.02,4.0265,4.0325,3.9813,3.9445,3.9411,3.8928,3.8692,3.8853,3.902,3.9365,3.9917,3.9963,4.0227,4.075,4.0331,3.9963,4.0037,4.0486,4.0854,4.0854,4.0877,4.0888,4.0888,4.1055,4.1182,4.1216,4.1826,4.2269,4.2355,4.2965,4.369,4.4156,4.4436,4.4775,4.5221,4.5421,4.5421,4.5421,4.5421,4.5421,4.5421,4.5421,4.5421,4.5421,4.5421,4.5421,4.5421,4.5421,4.5421,4.5421,4.5421,4.5421,4.5432,4.5604,4.5731,4.5772,4.6307,4.6755,4.6876,4.7203,4.7662,4.791,4.8169,4.7996,3.703,3.706,3.7187,3.7329,3.7488,3.7502,3.7495,3.751,3.751,3.751,3.751,3.751,3.751,3.751,3.7501,3.7532,3.7532,3.7539,3.7532,3.7525,3.7525,3.751,3.751,3.751,3.751,3.751,3.751,3.772,3.8112,3.816,3.8231,3.8245,3.7887,3.7692,3.7749,3.8252,3.8562,3.8579,3.927,3.9516,3.9218,3.9176,3.9152,3.9076,3.8427,3.8115,3.8303,3.7577,3.7561,3.8012,3.8209,3.8387,3.8797,3.8778,3.8726,3.8744,3.8675,3.887,3.9549,4.0285,4.0664,4.0768,4.075,4.0768,4.0888,4.0819,4.0785,4.0802,4.0848,4.0888,4.0906,4.094,4.1009,4.1124,4.1579,4.1906,4.2004,4.2614,4.3092,4.3092,4.3741,4.4235,4.4425,4.4848,4.5266,4.5369,4.5421,4.5421,4.5421,4.5421,4.5421,4.5421,4.5421,4.5421,4.5421,4.5421,4.5421,4.5421,4.5421,4.5449,4.5483,4.5524,4.5455,4.5897,4.6076,4.6469,4.6634,4.7065,4.7558,4.7617,4.7789,4.7955,4.8582,4.9169,4.9137,3.6892,3.7015,3.7068,3.718,3.7315,3.7322,3.7405,3.7502,3.751,3.751,3.751,3.751,3.751,3.751,3.751,3.751,3.751,3.751,3.751,3.751,3.751,3.751,3.751,3.751,3.751,3.751,3.751,3.7635,3.7793,3.782,3.7829,3.7815,3.7598,3.751,3.7534,3.7772,3.7914,3.793,3.8175,3.8271,3.827,3.8578,3.8601,3.8274,3.8525,3.8709,3.8755,3.9045,3.9384,3.9622,3.964,3.9735,3.9957,3.9957,3.9957,3.9957,3.9968,4.0095,4.0382,4.0716,4.0888,4.0888,4.0888,4.0888,4.0888,4.0888,4.1044,4.1423,4.117,4.1044,4.1469,4.1561,4.1717,4.2165,4.2551,4.27,4.2723,4.3403,4.3845,4.3897,4.4481,4.4958,4.4986,4.5203,4.5404,4.5421,4.5421,4.5421,4.5421,4.5421,4.5421,4.5421,4.5421,4.5421,4.5438,4.5421,4.5432,4.5432,4.5421,4.5466,4.6007,4.611,4.6221,4.6621,4.6989,4.7238,4.7255,4.7841,4.8351,4.841,4.8848,4.9176,4.9469,4.9769,4.962,3.6731,3.6854,3.69,3.7021,3.7209,3.7209,3.7322,3.7495,3.751,3.759,3.7764,3.7772,3.789,3.7985,3.7676,3.751,3.7526,3.7685,3.7772,3.7788,3.7953,3.8056,3.8056,3.8048,3.8048,3.8041,3.808,3.8064,3.8032,3.7843,3.7764,3.7764,3.7605,3.751,3.751,3.751,3.751,3.751,3.751,3.751,3.7588,3.797,3.7986,3.7616,3.8293,3.8731,3.8758,3.9665,4.0274,4.0403,4.0555,4.0728,4.0894,4.0888,4.0888,4.0888,4.0888,4.0888,4.0888,4.0888,4.0888,4.0888,4.0888,4.0992,4.1153,4.1199,4.1561,4.2182,4.1826,4.1809,4.22,4.2332,4.2596,4.3138,4.3345,4.3483,4.3534,4.4143,4.4602,4.4654,4.502,4.5421,4.5404,4.5404,4.5421,4.5421,4.5421,4.5421,4.5421,4.5414,4.5466,4.5686,4.5748,4.5748,4.5731,4.58,4.5776,4.6017,4.6145,4.6352,4.6796,4.6865,4.6927,4.7248,4.7696,4.8007,4.8082,4.8582,4.91,4.922,4.9531,4.9917,4.9875,4.9986,4.9986,3.6515,3.6561,3.667,3.6985,3.7217,3.7264,3.7339,3.7645,3.7581,3.789,3.8421,3.8452,3.88,3.925,3.8173,3.7557,3.7629,3.8184,3.8452,3.8515,3.9044,3.9384,3.9424,3.9424,3.936,3.9234,3.921,3.9273,3.9297,3.876,3.8468,3.8452,3.7928,3.7588,3.7643,3.7627,3.7518,3.7604,3.7549,3.751,3.751,3.7542,3.7558,3.7517,3.7605,3.775,3.7787,3.8183,3.8774,3.9305,3.9861,4.0348,4.0823,4.0888,4.0888,4.0888,4.0888,4.0888,4.0888,4.094,4.0957,4.094,4.1061,4.1234,4.1889,4.1952,4.2303,4.3051,4.3045,4.3069,4.3183,4.3166,4.3213,4.3356,4.3897,4.4207,4.4276,4.482,4.53,4.53,4.5352,4.5421,4.5421,4.5421,4.5421,4.5421,4.5421,4.5455,4.5524,4.549,4.58,4.6341,4.6555,4.6555,4.6572,4.6531,4.6834,4.7024,4.71,4.7479,4.7582,4.7669,4.772,4.7903,4.842,4.8765,4.891,4.9203,4.9651,4.9824,4.9789,4.9979,4.9996,4.9996,4.9996,3.7392,3.7769,3.7817,3.8049,3.8333,3.8349,3.8505,3.8776,3.8784,3.891,3.9139,3.9279,3.9468,3.9666,3.9336,3.9013,3.8823,3.9037,3.9139,3.9163,3.9392,3.9487,3.9487,3.9487,3.9487,3.9487,3.9487,3.9557,3.9682,3.956,3.9533,3.9494,3.9302,3.9174,3.9072,3.8599,3.8332,3.8293,3.7799,3.751,3.7549,3.751,3.751,3.7554,3.8208,3.8742,3.9082,3.9665,4.0064,4.0268,4.0476,4.0668,4.0865,4.0888,4.0888,4.0888,4.0888,4.0888,4.094,4.1331,4.1607,4.1648,4.2102,4.243,4.2689,4.2786,4.3092,4.3707,4.3908,4.4063,4.4412,4.4195,4.4091,4.4555,4.4831,4.4992,4.5031,4.5248,4.5421,4.5421,4.5421,4.5421,4.5421,4.5421,4.5421,4.5421,4.5421,4.5645,4.6065,4.6162,4.6445,4.7065,4.7307,4.7479,4.7996,4.7548,4.7403,4.7531,4.7686,4.7996,4.8169,4.8376,4.8462,4.8875,4.9341,4.9393,4.9479,4.9531,4.9996,4.9996,4.9996,4.9996,4.9996,4.9996,4.9996,3.8084,3.8477,3.8508,3.8721,3.9068,3.9099,3.9314,3.9675,3.969,3.9817,4.0015,4.0164,4.0338,4.053,4.0679,4.0608,4.0309,4.0134,4.0023,4.0047,4.0245,4.0349,4.0325,4.0333,4.0341,4.0357,4.0349,4.042,4.0498,4.0455,4.042,4.0412,4.0228,4.0107,3.9988,3.949,3.9206,3.9095,3.8615,3.8371,3.8332,3.834,3.8413,3.8678,3.9348,3.9616,3.951,4.0032,4.0445,4.0608,4.0793,4.0888,4.0888,4.0888,4.1009,4.1199,4.1274,4.1395,4.1648,4.2102,4.2389,4.2407,4.2861,4.3265,4.3476,4.3552,4.3914,4.4436,4.466,4.4906,4.5145,4.4934,4.4872,4.5317,4.5421,4.5421,4.5421,4.5404,4.5421,4.5421,4.5421,4.5421,4.5421,4.5421,4.5542,4.5731,4.5783,4.6117,4.6755,4.6986,4.7227,4.7876,4.8041,4.841,4.8858,4.8738,4.8541,4.8634,4.8531,4.8738,4.8824,4.9031,4.9272,4.9772,4.9996,4.9996,4.9996,4.9996,4.9996,4.9996,4.9996,4.9996,4.9996,4.9996,4.9996,3.8546,3.8638,3.8522,3.8948,3.9383,3.9463,3.9692,4.0137,4.0198,4.055,4.0998,4.1085,4.1389,4.1893,4.1909,4.2005,4.1821,4.1325,4.1077,4.1102,4.1638,4.1877,4.1861,4.1797,4.1797,4.1861,4.2005,4.2013,4.1901,4.1421,4.1148,4.1012,4.061,4.0433,4.0203,4.0203,4.01,4.006,3.9925,3.9925,4.0084,3.9893,4.0064,4.0547,4.0691,4.005,3.8611,3.914,3.9808,4.0202,4.0672,4.0928,4.1036,4.1078,4.1309,4.1906,4.201,4.2389,4.2988,4.3144,4.3189,4.3224,4.3276,4.3701,4.4201,4.4322,4.4574,4.5117,4.5283,4.5386,4.5386,4.5328,4.5311,4.5421,4.5421,4.5421,4.5421,4.5421,4.5421,4.5421,4.5421,4.5421,4.5432,4.5535,4.5835,4.6417,4.6607,4.6865,4.7531,4.772,4.8031,4.8582,4.8841,4.91,4.9565,4.9944,4.991,4.9858,4.9703,4.9669,4.9565,4.9669,4.9634,4.9996,4.9996,4.9996,4.9996,4.9996,4.9996,4.9996,4.9996,4.9996,4.9996,4.9996,4.9996,3.9876,3.9891,3.9883,4.003,4.0356,4.0572,4.0867,4.1158,4.1366,4.1613,4.1805,4.1933,4.2117,4.2277,4.2389,4.2453,4.242,4.2219,4.2012,4.1869,4.1997,4.2101,4.2101,4.2093,4.2093,4.2117,4.2238,4.2294,4.2269,4.2155,4.213,4.2065,4.1904,4.1831,4.1719,4.1294,4.0999,4.0935,4.0394,4.0107,4.0107,4.0123,4.0206,4.0318,4.0355,4.0208,4.0143,4.0671,4.1069,4.1198,4.1408,4.1679,4.1972,4.2304,4.2596,4.2792,4.2827,4.2896,4.3196,4.369,4.3949,4.4046,4.4389,4.4779,4.5014,4.5037,4.5134,4.5386,4.5421,4.5421,4.5421,4.5421,4.5421,4.5421,4.5421,4.5421,4.5421,4.5421,4.5421,4.5421,4.5421,4.5628,4.6076,4.6221,4.6531,4.7186,4.7358,4.7634,4.8248,4.8472,4.8772,4.9444,4.9565,4.9565,4.9824,4.9996,4.9996,4.9996,4.9996,4.9996,4.9996,4.9996,4.9996,4.9996,4.9996,4.9996,4.9996,4.9996,4.9996,4.9996,4.9996,4.9996,4.9996,4.9996,4.9996,4.0489,4.0489,4.0489,4.0686,4.0918,4.1163,4.1365,4.1605,4.1818,4.1916,4.1956,4.2174,4.2278,4.2317,4.2492,4.2595,4.2602,4.2602,4.2476,4.2309,4.2286,4.2286,4.2278,4.2286,4.2278,4.2302,4.2405,4.2476,4.2476,4.2555,4.2602,4.2595,4.2602,4.2578,4.257,4.2128,4.1839,4.1751,4.1327,4.1039,4.1031,4.1031,4.1015,4.1039,4.1031,4.1215,4.1551,4.1899,4.2,4.1852,4.1812,4.2038,4.2462,4.2745,4.3116,4.3544,4.3638,4.3724,4.4011,4.4475,4.4706,4.4796,4.5145,4.538,4.5397,4.5421,4.5421,4.5421,4.5421,4.5421,4.5421,4.5421,4.5421,4.5421,4.5421,4.5421,4.5421,4.5421,4.561,4.5748,4.5886,4.6248,4.6755,4.702,4.7324,4.7903,4.8117,4.8393,4.8989,4.9262,4.9617,4.9841,4.9858,4.9875,4.9944,4.9996,4.9996,4.9996,4.9996,4.9996,4.9996,4.9996,4.9996,4.9996,4.9996,4.9996,4.9996,4.9996,4.9996,4.9996,4.9996,4.9996,4.9996,4.9996,4.9996,4.0489,4.0489,4.0489,4.0705,4.0996,4.1087,4.1273,4.1522,4.1613,4.1638,4.1687,4.1932,4.2045,4.2134,4.2365,4.2524,4.2571,4.2602,4.2587,4.2563,4.2555,4.2547,4.2547,4.2539,4.2539,4.2563,4.2579,4.2587,4.2579,4.2578,4.2602,4.2602,4.2602,4.2602,4.2578,4.257,4.2506,4.2466,4.2466,4.2433,4.2433,4.2466,4.2473,4.2433,4.2409,4.24,4.2423,4.2468,4.2346,4.1981,4.2078,4.2367,4.2606,4.2651,4.3393,4.4296,4.435,4.4671,4.5186,4.5231,4.53,4.53,4.5335,4.5421,4.5421,4.5421,4.5421,4.5421,4.5421,4.5421,4.5421,4.5421,4.5432,4.5483,4.5604,4.561,4.55,4.5587,4.6041,4.6514,4.6693,4.6927,4.7627,4.7755,4.8134,4.8644,4.8875,4.922,4.9565,4.9789,4.9927,4.9979,4.9986,4.9996,4.9996,4.9996,4.9996,4.9996,4.9996,4.9996,4.9996,4.9996,4.9996,4.9996,4.9996,4.9996,4.9996,4.9996,4.9996,4.9996,4.9996,4.9996,4.9996,4.9996,4.9996,4.0489,4.0489,4.0489,4.0574,4.0705,4.0953,4.1131,4.1272,4.1489,4.1539,4.1613,4.1695,4.1736,4.1761,4.2077,4.2246,4.2278,4.2476,4.2602,4.2602,4.2602,4.2602,4.2602,4.2602,4.2602,4.2602,4.2602,4.2602,4.2602,4.2602,4.2602,4.2602,4.2602,4.2602,4.2602,4.2602,4.2602,4.2602,4.2602,4.2602,4.2602,4.2602,4.2602,4.2602,4.2602,4.2602,4.2602,4.2602,4.2745,4.2932,4.326,4.3631,4.3987,4.4295,4.4593,4.4947,4.5089,4.5152,4.5352,4.5421,4.5421,4.5421,4.5421,4.5421,4.5421,4.5421,4.5421,4.5421,4.5421,4.5421,4.5421,4.5438,4.5638,4.6169,4.6324,4.6334,4.6358,4.6765,4.7196,4.7376,4.741,4.7765,4.8265,4.8541,4.8807,4.94,4.9624,4.9651,4.991,4.9986,4.9986,4.9986,4.9986,4.9986,4.9996,4.9996,4.9996,4.9996,4.9996,4.9996,4.9996,4.9996,4.9996,4.9996,4.9996,4.9996,4.9996,4.9996,4.9996,4.9996,4.9996,4.9996,4.9996,4.9996,4.9996,4.0489,4.0489,4.0489,4.0489,4.0539,4.0756,4.085,4.0884,4.1046,4.1139,4.1164,4.1339,4.1381,4.1439,4.1736,4.1899,4.1932,4.2238,4.2389,4.2429,4.2523,4.2595,4.2602,4.2602,4.2602,4.2602,4.2602,4.2602,4.2602,4.2602,4.2602,4.2602,4.2602,4.2602,4.2602,4.2602,4.2602,4.2602,4.2602,4.2602,4.2602,4.2602,4.2602,4.2602,4.2602,4.2602,4.2602,4.2602,4.2743,4.2996,4.3277,4.371,4.4352,4.4632,4.4981,4.5324,4.5421,4.5404,4.5421,4.5421,4.5421,4.5421,4.5421,4.5421,4.5421,4.5421,4.5421,4.5421,4.5421,4.5421,4.5466,4.5679,4.6255,4.6945,4.7348,4.7393,4.7117,4.74,4.7807,4.8031,4.8203,4.8455,4.9179,4.9272,4.9513,4.9824,4.991,4.9927,4.9979,4.9986,4.9855,4.971,4.9762,4.9772,4.9755,4.9755,4.9962,4.9996,4.9996,4.9996,4.9996,4.9996,4.9996,4.9996,4.9996,4.9996,4.9996,4.9996,4.9996,4.9996,4.9996,4.9996,4.9996,4.9996,4.9996,4.0489,4.0489,4.0489,4.0489,4.0489,4.0498,4.0557,4.0507,4.0558,4.0567,4.0627,4.0901,4.1013,4.1055,4.1381,4.1555,4.1564,4.1899,4.2069,4.2214,4.2413,4.2602,4.2602,4.2602,4.2602,4.2602,4.2602,4.2602,4.2602,4.2602,4.2602,4.2602,4.2602,4.2602,4.2602,4.2602,4.2602,4.2602,4.2602,4.2602,4.2602,4.2602,4.2602,4.2602,4.2602,4.2602,4.2602,4.2602,4.2634,4.261,4.2649,4.327,4.398,4.4117,4.4537,4.5207,4.5421,4.5421,4.5421,4.5421,4.5421,4.5421,4.5421,4.5421,4.5421,4.5421,4.5421,4.5421,4.5473,4.5697,4.5949,4.641,4.7117,4.78,4.842,4.8524,4.8144,4.7945,4.8196,4.8799,4.891,4.9306,4.972,4.9996,4.9979,4.991,4.9996,4.9996,4.9858,4.971,4.9427,4.9082,4.9255,4.9513,4.9513,4.9513,4.9789,4.9996,4.9996,4.9996,4.9996,4.9996,4.9996,4.9996,4.9996,4.9996,4.9996,4.9996,4.9996,4.9996,4.9996,4.9996,4.9996,4.9996,4.9996,4.0489,4.0489,4.0489,4.0489,4.0489,4.0489,4.0489,4.0489,4.0489,4.0489,4.0515,4.0617,4.0645,4.067,4.1021,4.1206,4.1264,4.1572,4.1818,4.2134,4.2436,4.2587,4.2602,4.2602,4.2602,4.2602,4.2602,4.2602,4.2602,4.2602,4.2602,4.2602,4.2602,4.2602,4.2602,4.2602,4.2602,4.2602,4.2602,4.2602,4.2602,4.2602,4.2602,4.2602,4.2602,4.2602,4.2602,4.2602,4.2602,4.2689,4.2974,4.3515,4.4235,4.4492,4.4807,4.5238,4.5421,4.5421,4.5421,4.5421,4.5421,4.5421,4.5421,4.5421,4.5421,4.5455,4.5438,4.5524,4.5955,4.6531,4.7076,4.7858,4.8272,4.8627,4.9179,4.96,4.9503,4.9459,4.9479,4.9617,4.9686,4.9806,4.9969,4.9979,4.9996,4.9996,4.9962,4.9962,4.9737,4.9427,4.9048,4.8644,4.9151,4.9427,4.9289,4.941,4.9806,4.9996,4.9996,4.9996,4.9996,4.9996,4.9996,4.9996,4.9996,4.9996,4.9996,4.9996,4.9996,4.9996,4.9996,4.9996,4.9996,4.9996,4.9996,4.0489,4.0489,4.0489,4.0489,4.0489,4.0489,4.0489,4.0489,4.0489,4.0489,4.0489,4.0489,4.0489,4.0507,4.0722,4.0824,4.096,4.1381,4.1785,4.2109,4.2429,4.2595,4.2602,4.2602,4.2602,4.2602,4.2602,4.2602,4.2602,4.2602,4.2602,4.2602,4.2602,4.2602,4.2602,4.2602,4.2602,4.2602,4.2602,4.2602,4.2602,4.2602,4.2602,4.2602,4.2602,4.2602,4.2602,4.2602,4.2602,4.2728,4.3074,4.3619,4.4288,4.459,4.493,4.5311,4.5421,4.5421,4.5421,4.5421,4.5421,4.5449,4.5414,4.5421,4.5542,4.5714,4.5962,4.6128,4.6686,4.741,4.8134,4.8455,4.8868,4.9358,4.972,4.9979,4.9996,4.9996,4.9996,4.9996,4.9944,4.9944,4.9979,4.9996,4.9944,4.9927,4.9368,4.9351,4.9317,4.9006,4.8651,4.8531,4.9117,4.9358,4.9151,4.9341,4.9858,4.9996,4.9996,4.9996,4.9996,4.9996,4.9996,4.9996,4.9996,4.9996,4.9996,4.9996,4.9996,4.9996,4.9996,4.9996,4.9996,4.9996,4.9996,4.0489,4.0489,4.0489,4.0489,4.0489,4.0489,4.0489,4.0489,4.0489,4.0489,4.0489,4.0489,4.0489,4.0498,4.0507,4.0498,4.0713,4.1256,4.1769,4.1973,4.2413,4.2571,4.2602,4.2602,4.2602,4.2602,4.2602,4.2602,4.2602,4.2602,4.2602,4.2602,4.2602,4.2602,4.2602,4.2602,4.2602,4.2602,4.2602,4.2602,4.2602,4.2602,4.2602,4.2602,4.2602,4.2602,4.2602,4.261,4.2642,4.2727,4.3262,4.3809,4.4222,4.4481,4.4917,4.5381,4.5552,4.5714,4.58,4.5817,4.5897,4.5759,4.5811,4.5817,4.6007,4.6386,4.6669,4.6979,4.7427,4.8169,4.8868,4.9075,4.9368,4.9772,4.9962,4.9996,4.9996,4.9996,4.9996,4.9996,4.9996,4.9996,4.9996,4.9979,4.9927,4.9737,4.9144,4.8782,4.8765,4.8644,4.8334,4.8386,4.8962,4.9538,4.941,4.9427,4.9927,4.9996,4.9996,4.9996,4.9996,4.9996,4.9996,4.9996,4.9996,4.9996,4.9996,4.9996,4.9996,4.9996,4.9996,4.9996,4.9996,4.9996,4.9996,4.0489,4.0489,4.0489,4.0489,4.0489,4.0489,4.0489,4.0489,4.0489,4.0489,4.0489,4.0489,4.0489,4.0489,4.0489,4.0489,4.067,4.124,4.1638,4.1834,4.2302,4.2595,4.2684,4.2709,4.2676,4.2602,4.2676,4.2733,4.2619,4.2602,4.2602,4.2602,4.2602,4.2602,4.2602,4.2602,4.2602,4.2602,4.2602,4.2602,4.2602,4.2602,4.2602,4.2602,4.2602,4.2602,4.261,4.2634,4.2782,4.3228,4.4271,4.5035,4.5355,4.5115,4.5169,4.559,4.611,4.6393,4.6427,4.691,4.7214,4.7317,4.7162,4.7196,4.7255,4.741,4.7548,4.7789,4.8238,4.8944,4.971,4.9686,4.9789,4.9979,4.9996,4.9944,4.9927,4.9893,4.9806,4.9669,4.9789,4.9875,4.9755,4.9565,4.9306,4.9031,4.8558,4.8437,4.8541,4.8393,4.8151,4.8386,4.8799,4.9358,4.9745,4.9789,4.9996,4.9996,4.9996,4.9996,4.9996,4.9996,4.9996,4.9996,4.9996,4.9996,4.9996,4.9996,4.9996,4.9996,4.9996,4.9996,4.9996,4.9996,4.9996,4.0489,4.0489,4.0489,4.0489,4.0489,4.0489,4.0489,4.0489,4.0489,4.0489,4.0489,4.0489,4.0489,4.0489,4.0489,4.0489,4.0705,4.1256,4.1564,4.1744,4.2254,4.279,4.2968,4.3001,4.321,4.3355,4.3435,4.3081,4.2659,4.2602,4.2635,4.2602,4.2602,4.2602,4.2602,4.2602,4.2602,4.2602,4.2602,4.2602,4.2602,4.2602,4.2602,4.2602,4.2626,4.2602,4.2722,4.336,4.3669,4.4153,4.5334,4.6087,4.6337,4.6434,4.634,4.6621,4.6962,4.7176,4.7169,4.7548,4.7634,4.7669,4.7738,4.7703,4.7824,4.8013,4.8427,4.8841,4.9065,4.9572,4.9934,4.9979,4.9996,4.9996,4.9962,4.9772,4.9513,4.9417,4.9238,4.9065,4.9075,4.9127,4.9213,4.8962,4.8634,4.8289,4.7938,4.8041,4.8272,4.8255,4.8117,4.8669,4.9092,4.9479,4.99,4.9927,4.9996,4.9996,4.9996,4.9996,4.9996,4.9996,4.9996,4.9996,4.9996,4.9996,4.9996,4.9996,4.9996,4.9996,4.9996,4.9996,4.9996,4.9996,4.9996,4.0489,4.0489,4.0489,4.0489,4.0489,4.0489,4.0489,4.0489,4.0489,4.0489,4.0489,4.0489,4.0489,4.0489,4.0507,4.0541,4.067,4.1332,4.1605,4.1882,4.247,4.3033,4.3299,4.3563,4.3722,4.3952,4.4039,4.3762,4.3218,4.3065,4.2904,4.2855,4.2782,4.2676,4.2635,4.2602,4.2602,4.2602,4.2602,4.2602,4.2602,4.2602,4.2602,4.2698,4.2842,4.3049,4.3249,4.424,4.4868,4.5411,4.6319,4.7262,4.7426,4.7883,4.8144,4.8134,4.8031,4.7945,4.7962,4.8203,4.8393,4.8427,4.8255,4.8203,4.8331,4.8841,4.9272,4.9841,4.9969,4.9917,4.9979,4.9979,4.9875,4.9703,4.9651,4.9496,4.8868,4.8541,4.8393,4.8289,4.8317,4.8368,4.8462,4.841,4.8082,4.7807,4.7479,4.7731,4.7972,4.8272,4.8393,4.9031,4.9479,4.9755,4.9962,4.9962,4.9996,4.9996,4.9996,4.9996,4.9996,4.9996,4.9996,4.9996,4.9996,4.9996,4.9996,4.9996,4.9996,4.9996,4.9996,4.9996,4.9996,4.9996,4.9996,4.0489,4.0489,4.0489,4.0489,4.0489,4.0489,4.0489,4.0489,4.0489,4.0489,4.0541,4.0498,4.0498,4.0533,4.0533,4.0722,4.1053,4.1431,4.18,4.2091,4.2831,4.3331,4.3531,4.392,4.4156,4.4407,4.4353,4.4165,4.3968,4.3952,4.3682,4.3379,4.3267,4.313,4.2863,4.2855,4.2602,4.2635,4.2651,4.2635,4.2651,4.266,4.2668,4.2899,4.3578,4.4187,4.4332,4.5349,4.6204,4.6675,4.7463,4.8162,4.8623,4.9322,4.9634,4.9521,4.9169,4.8679,4.8782,4.9117,4.9427,4.9393,4.9513,4.9676,4.9555,4.9538,4.9789,4.991,4.9996,4.991,4.9865,4.9917,4.9617,4.9213,4.8937,4.8565,4.8031,4.78,4.7634,4.7289,4.7231,4.7496,4.7686,4.7641,4.7555,4.7279,4.7158,4.7445,4.7886,4.8358,4.8755,4.9393,4.9669,4.991,4.9996,4.9996,4.9996,4.9996,4.9996,4.9996,4.9996,4.9996,4.9996,4.9996,4.9996,4.9996,4.9996,4.9996,4.9996,4.9996,4.9996,4.9996,4.9996,4.9996,4.9996,4.0489,4.0489,4.0489,4.0489,4.0489,4.0489,4.0489,4.0489,4.0489,4.0643,4.0756,4.0576,4.061,4.0766,4.0841,4.0919,4.1181,4.1629,4.2006,4.2391,4.3077,4.3738,4.4283,4.4573,4.4743,4.5004,4.5121,4.5181,4.4974,4.447,4.4039,4.3904,4.3841,4.3785,4.3411,4.3491,4.3515,4.3459,4.3275,4.3057,4.3049,4.3049,4.3065,4.313,4.4329,4.4859,4.5348,4.6534,4.7342,4.7805,4.8548,4.9225,4.9463,4.9772,4.9962,4.9959,4.971,4.9496,4.9531,4.9831,4.9952,4.9996,4.9996,4.9927,4.9979,4.9996,4.9996,4.9996,4.9996,4.9824,4.9486,4.9324,4.8858,4.8496,4.842,4.7876,4.7462,4.7169,4.6903,4.6507,4.63,4.6841,4.7151,4.6979,4.7083,4.7158,4.722,4.76,4.8289,4.9082,4.9444,4.9789,4.991,4.9979,4.9996,4.9996,4.9996,4.9996,4.9996,4.9996,4.9996,4.9996,4.9996,4.9996,4.9996,4.9996,4.9996,4.9996,4.9996,4.9996,4.9996,4.9996,4.9996,4.9996,4.9996,4.0489,4.0489,4.0489,4.0489,4.0489,4.0489,4.0489,4.0489,4.0489,4.0722,4.0977,4.0892,4.0943,4.1045,4.1087,4.1138,4.1272,4.1886,4.2275,4.2712,4.3403,4.4233,4.4759,4.5084,4.5397,4.5798,4.5647,4.5654,4.5464,4.508,4.4641,4.44,4.4392,4.4259,4.4196,4.4093,4.4046,4.4031,4.3762,4.361,4.3587,4.3603,4.3742,4.4205,4.4974,4.5815,4.6213,4.7625,4.8546,4.8795,4.9345,4.9822,4.991,4.9944,4.9996,4.9986,4.9883,4.9893,4.9875,4.9962,4.9979,4.9996,4.9996,4.9996,4.9996,4.9996,4.9996,4.9979,4.9676,4.9444,4.9186,4.9024,4.8662,4.8403,4.8162,4.7548,4.7083,4.71,4.7117,4.7024,4.6852,4.6738,4.6858,4.6472,4.6524,4.6876,4.7255,4.7772,4.86,4.9582,4.9789,4.9996,4.9996,4.9996,4.9996,4.9996,4.9996,4.9996,4.9996,4.9996,4.9996,4.9996,4.9996,4.9996,4.9996,4.9996,4.9996,4.9996,4.9996,4.9996,4.9996,4.9996,4.9996,4.9996,4.9996,4.0489,4.0489,4.0513,4.052,4.0505,4.0489,4.0529,4.0606,4.059,4.087,4.1282,4.1387,4.1409,4.1268,4.133,4.1433,4.1619,4.2133,4.2654,4.3338,4.4165,4.4779,4.5192,4.5466,4.5708,4.5792,4.5798,4.5798,4.5792,4.5631,4.5258,4.5013,4.496,4.4643,4.4478,4.4477,4.4454,4.4407,4.4227,4.4165,4.4149,4.4216,4.4443,4.5236,4.6256,4.7252,4.7879,4.9003,4.9639,4.9614,4.9849,4.9996,4.9996,4.9996,4.9996,4.9996,4.9996,4.9996,4.9996,4.9996,4.9996,4.9996,4.9996,4.9996,4.9996,4.9996,4.9996,4.9944,4.9624,4.941,4.9375,4.9289,4.873,4.8368,4.8117,4.7869,4.7548,4.7496,4.7514,4.7541,4.7455,4.7283,4.7462,4.7283,4.7231,4.76,4.822,4.873,4.91,4.9875,4.9893,4.9996,4.9996,4.9996,4.9996,4.9996,4.9996,4.9996,4.9996,4.9996,4.9996,4.9996,4.9996,4.9996,4.9996,4.9996,4.9996,4.9996,4.9996,4.9996,4.9996,4.9996,4.9996,4.9996,4.9996,4.0489,4.0544,4.0984,4.0907,4.0553,4.0968,4.1177,4.1287,4.1741,4.205,4.2189,4.2338,4.2246,4.2086,4.2169,4.2254,4.2491,4.3184,4.3541,4.3988,4.4651,4.5156,4.545,4.5647,4.5807,4.5798,4.5798,4.5798,4.5798,4.5798,4.5731,4.5534,4.5443,4.5411,4.5227,4.5089,4.5112,4.5027,4.485,4.4697,4.4697,4.4731,4.5016,4.5759,4.6945,4.7868,4.8589,4.947,4.9872,4.9996,4.9996,4.9996,4.9996,4.9996,4.9996,4.9996,4.9996,4.9996,4.9996,4.9996,4.9996,4.9996,4.9996,4.9996,4.9996,4.9996,4.9996,4.9883,4.9676,4.9496,4.911,4.8972,4.8644,4.8324,4.8151,4.811,4.8082,4.8065,4.8013,4.81,4.7955,4.7765,4.8065,4.8341,4.8317,4.842,4.9075,4.961,4.9841,4.9996,4.9996,4.9996,4.9996,4.9996,4.9996,4.9996,4.9996,4.9996,4.9996,4.9996,4.9996,4.9996,4.9996,4.9996,4.9996,4.9996,4.9996,4.9996,4.9996,4.9996,4.9996,4.9996,4.9996,4.9996,4.9996,4.0821,4.0907,4.1601,4.15,4.0968,4.1592,4.1921,4.2078,4.2589,4.2944,4.2987,4.3153,4.3143,4.3033,4.3058,4.3117,4.3307,4.3831,4.422,4.4611,4.4995,4.5439,4.5685,4.5798,4.5798,4.5798,4.5798,4.5798,4.5798,4.5798,4.5785,4.5769,4.5798,4.5753,4.5753,4.5798,4.5798,4.5685,4.5495,4.5236,4.5244,4.5494,4.5904,4.6635,4.7684,4.8503,4.9139,4.9759,4.9925,4.9996,4.9996,4.9996,4.9996,4.9996,4.9996,4.9996,4.9996,4.9996,4.9996,4.9996,4.9996,4.9996,4.9996,4.9996,4.9996,4.9996,4.9996,4.9969,4.9779,4.9479,4.8989,4.9006,4.9031,4.8831,4.8917,4.89,4.8848,4.8814,4.8727,4.8686,4.8617,4.8696,4.8824,4.9134,4.91,4.911,4.9427,4.9789,4.9875,4.9996,4.9996,4.9996,4.9996,4.9996,4.9996,4.9996,4.9996,4.9996,4.9996,4.9996,4.9996,4.9996,4.9996,4.9996,4.9996,4.9996,4.9996,4.9996,4.9996,4.9996,4.9996,4.9996,4.9996,4.9996,4.9996,4.1579,4.1663,4.23,4.2193,4.1731,4.2309,4.2695,4.2864,4.3051,4.322,4.3468,4.3894,4.3959,4.3736,4.3736,4.3771,4.3902,4.4324,4.4631,4.4858,4.5327,4.5703,4.5776,4.5798,4.5798,4.5798,4.5798,4.5798,4.5798,4.5798,4.5798,4.5798,4.5798,4.5798,4.5798,4.5798,4.5798,4.5798,4.5728,4.5699,4.5796,4.6204,4.683,4.7539,4.8267,4.9017,4.9634,4.986,4.9996,4.9996,4.9996,4.9996,4.9996,4.9996,4.9996,4.9996,4.9996,4.9996,4.9996,4.9996,4.9996,4.9996,4.9996,4.9996,4.9996,4.9996,4.9996,4.9969,4.9531,4.9462,4.9358,4.9393,4.9393,4.9434,4.9503,4.9503,4.9452,4.9417,4.9314,4.9227,4.96,4.9893,4.9875,4.9893,4.9841,4.9858,4.9927,4.9996,4.9996,4.9996,4.9996,4.9996,4.9996,4.9996,4.9996,4.9996,4.9996,4.9996,4.9996,4.9996,4.9996,4.9996,4.9996,4.9996,4.9996,4.9996,4.9996,4.9996,4.9996,4.9996,4.9996,4.9996,4.9996,5.0021,5.007,4.227,4.2325,4.298,4.3143,4.2983,4.3303,4.3493,4.3686,4.4256,4.4654,4.469,4.4797,4.4606,4.4457,4.4508,4.4536,4.4636,4.5112,4.536,4.5385,4.5692,4.5758,4.5798,4.5798,4.5798,4.5798,4.5798,4.5798,4.5798,4.5798,4.5798,4.5798,4.5798,4.5798,4.5798,4.5798,4.5798,4.5798,4.5798,4.5816,4.5898,4.6486,4.7204,4.7909,4.8557,4.9292,4.9928,4.9972,4.9996,4.9996,4.9996,4.9962,4.9927,4.991,4.9917,4.9934,4.9952,4.9996,4.9996,4.9996,4.9996,4.9962,4.9979,4.9979,4.9996,4.9996,4.9996,4.9979,4.9703,4.972,4.9796,4.9789,4.9789,4.9806,4.9848,4.9841,4.9824,4.9841,4.9806,4.9755,4.9979,4.9996,4.9996,4.9996,4.9996,4.9996,4.9996,4.9996,4.9996,4.9996,4.9996,4.9996,4.9996,4.9996,4.9996,4.9996,4.9996,4.9996,4.9996,4.9996,4.9996,4.9996,4.9996,4.9996,4.9996,4.9996,4.9996,4.9996,4.9996,4.9996,4.9996,4.9996,4.9996,5.0111,5.0261,4.2949,4.3026,4.3667,4.3975,4.405,4.4202,4.4319,4.4572,4.5256,4.5607,4.5545,4.5342,4.5196,4.515,4.5203,4.5274,4.5313,4.5602,4.5798,4.5798,4.5798,4.5798,4.5798,4.5798,4.5798,4.5798,4.5798,4.5798,4.5798,4.5798,4.5798,4.5798,4.5798,4.5798,4.5798,4.5798,4.5798,4.588,4.5981,4.6057,4.6264,4.6802,4.7671,4.8111,4.8739,4.955,4.986,4.9996,4.9979,4.9979,4.9944,4.9824,4.9703,4.959,4.9469,4.9314,4.9193,4.9151,4.91,4.9082,4.91,4.9462,4.9779,4.9969,4.9996,4.9996,4.9996,4.9996,4.9996,4.9986,4.9986,4.9996,4.9996,4.9996,4.9996,4.9996,4.9996,4.9996,4.9996,4.9996,4.9996,4.9996,4.9996,4.9996,4.9996,4.9996,4.9996,4.9996,4.9996,4.9996,4.9996,4.9996,4.9996,4.9996,4.9996,4.9996,4.9996,4.9996,4.9996,4.9996,4.9996,4.9996,4.9996,4.9996,4.9996,4.9996,4.9996,4.9996,4.9996,4.9996,4.9996,4.9996,4.9996,5.0163,5.0365,4.363,4.3713,4.4323,4.4674,4.4843,4.4868,4.5114,4.549,4.5692,4.578,4.5782,4.5751,4.5674,4.5744,4.5769,4.5731,4.5708,4.5776,4.5798,4.5798,4.5798,4.5798,4.5798,4.5798,4.5798,4.5798,4.5798,4.5798,4.5798,4.5798,4.5798,4.5798,4.5798,4.5798,4.5798,4.5798,4.5798,4.5918,4.6299,4.6301,4.6398,4.7688,4.8192,4.8581,4.9125,4.9733,4.9996,4.9996,4.991,4.9875,4.9873,4.9417,4.9048,4.8807,4.8317,4.8034,4.7989,4.811,4.8351,4.8496,4.8634,4.9289,4.9669,4.9893,4.9996,4.9996,4.9996,4.9996,4.9996,4.9996,4.9996,4.9996,4.9996,4.9996,4.9996,4.9996,4.9996,4.9996,4.9996,4.9996,4.9996,4.9996,4.9996,4.9996,4.9996,4.9996,4.9996,4.9996,4.9996,4.9996,4.9996,4.9996,4.9996,4.9996,4.9996,4.9996,4.9996,4.9996,4.9996,4.9996,4.9996,4.9996,4.9996,4.9996,4.9996,4.9996,4.9996,4.9996,4.9996,4.9996,4.9996,4.9996,4.9996,5.0262,5.0515,4.4298,4.4338,4.4514,4.4714,4.4921,4.5213,4.5478,4.5707,4.578,4.5798,4.5798,4.5798,4.5798,4.5798,4.5798,4.5798,4.5798,4.5798,4.5798,4.5798,4.5798,4.5798,4.5798,4.5798,4.5798,4.5798,4.5798,4.5798,4.5798,4.5798,4.5798,4.5798,4.5798,4.5798,4.5798,4.5816,4.5853,4.6046,4.6575,4.661,4.6923,4.8119,4.8509,4.8923,4.9431,4.9928,4.9996,4.9927,4.9737,4.9282,4.9179,4.8765,4.8117,4.8048,4.792,4.8524,4.8575,4.8713,4.9186,4.9289,4.9289,4.9358,4.9779,4.991,4.9996,4.9996,4.9996,4.9996,4.9996,4.9996,4.9996,4.9996,4.9996,4.9996,4.9996,4.9996,4.9996,4.9996,4.9996,4.9996,4.9996,4.9996,4.9996,4.9996,4.9996,4.9996,4.9996,4.9996,4.9996,4.9996,4.9996,4.9996,4.9996,4.9996,4.9996,4.9996,4.9996,4.9996,4.9996,4.9996,4.9996,4.9996,4.9996,4.9996,4.9996,4.9996,4.9996,4.9996,4.9996,5.0003,5.0021,4.9996,5.0048,5.0383,5.0949,4.4591,4.4591,4.4591,4.4767,4.5058,4.5444,4.5689,4.5789,4.5798,4.5778,4.5689,4.5762,4.5798,4.5798,4.5798,4.5798,4.5798,4.5798,4.5798,4.5798,4.5798,4.5798,4.5798,4.5798,4.5798,4.5798,4.5798,4.5798,4.5798,4.5798,4.5798,4.5798,4.5798,4.5798,4.5889,4.6082,4.6246,4.6486,4.6784,4.6965,4.7539,4.8366,4.8946,4.9108,4.9666,4.9921,4.9927,4.9814,4.9248,4.8758,4.8637,4.8007,4.7427,4.7289,4.76,4.81,4.8272,4.841,4.8693,4.8848,4.9176,4.9469,4.9607,4.971,4.9893,4.9996,4.9996,4.9996,4.9996,4.9996,4.9996,4.9996,4.9996,4.9996,4.9996,4.9996,4.9996,4.9996,4.9996,4.9996,4.9996,4.9996,4.9996,4.9996,4.9996,4.9996,4.9996,4.9996,4.9996,4.9996,4.9996,4.9996,4.9996,4.9996,4.9996,4.9996,4.9996,4.9996,4.9996,4.9996,4.9996,4.9996,4.9996,4.9996,4.9996,4.9996,4.9996,4.9996,4.9996,5.0055,5.0279,5.0496,5.0599,5.0728,5.1442,4.4591,4.46,4.4629,4.4889,4.5241,4.5625,4.5771,4.5805,4.5796,4.5698,4.5613,4.5741,4.5798,4.5798,4.5798,4.5798,4.5798,4.5798,4.5798,4.5798,4.5798,4.5798,4.5798,4.5798,4.5798,4.5798,4.5798,4.5798,4.5798,4.5798,4.5798,4.5798,4.5798,4.5798,4.5871,4.62,4.6416,4.6707,4.7094,4.7398,4.7713,4.8652,4.9656,4.9277,4.9597,4.9979,4.9789,4.9375,4.8758,4.8489,4.811,4.742,4.7134,4.6934,4.7314,4.772,4.81,4.8358,4.8565,4.871,4.8779,4.8927,4.8937,4.9452,4.9831,4.9979,4.9996,4.9996,4.9996,4.9996,4.9996,4.9996,4.9996,4.9996,4.9996,4.9996,4.9996,4.9996,4.9996,4.9996,4.9996,4.9996,4.9996,4.9996,4.9996,4.9996,4.9996,4.9996,4.9996,4.9996,5.0048,5.0031,4.9996,4.9996,4.9996,4.9996,4.9996,4.9996,4.9996,4.9996,4.9996,4.9996,4.9996,4.9996,4.9996,4.9996,4.9996,4.9996,5.0107,5.0365,5.0641,5.1048,5.1237,5.1434,5.1901,4.4591,4.4629,4.4918,4.521,4.5457,4.5689,4.5707,4.5589,4.5725,4.5771,4.575,4.578,4.5798,4.5798,4.5798,4.5798,4.5798,4.5798,4.5798,4.5798,4.5798,4.5798,4.5798,4.5798,4.5798,4.5798,4.5798,4.5798,4.5798,4.5798,4.5798,4.5798,4.5798,4.5798,4.5807,4.6156,4.6433,4.6923,4.7136,4.7827,4.8517,4.8689,4.9199,4.9506,4.9996,4.9996,4.9755,4.9272,4.8558,4.8013,4.7834,4.7593,4.7479,4.7445,4.7817,4.8368,4.8558,4.8782,4.9065,4.9169,4.9341,4.9479,4.9669,4.9796,4.9934,4.9969,4.9996,4.9996,4.9996,4.9996,4.9996,4.9996,4.9996,4.9996,4.9996,4.9996,4.9996,4.9996,4.9996,4.9996,4.9996,4.9996,4.9996,4.9996,4.9996,4.9996,4.9996,4.9996,5.0038,5.0072,5.0193,5.0176,5.0038,5.0003,4.9996,4.9996,4.9996,4.9996,4.9996,4.9996,4.9996,4.9996,4.9996,4.9996,4.9996,4.9996,5.0003,5.0021,5.02,5.0555,5.121,5.172,5.2366,5.2659,5.2913,4.4591,4.4638,4.5027,4.5322,4.5515,4.5716,4.575,4.5671,4.5753,4.5798,4.5798,4.5798,4.5798,4.5798,4.5798,4.5798,4.5798,4.5798,4.5798,4.5798,4.5798,4.5798,4.5798,4.5798,4.5798,4.5798,4.5798,4.5798,4.5798,4.5798,4.5798,4.5798,4.5798,4.5807,4.5844,4.6064,4.6523,4.7246,4.7229,4.8006,4.9085,4.9177,4.9307,4.9762,4.9996,4.9996,4.972,4.9265,4.8696,4.8144,4.7938,4.8041,4.8058,4.8189,4.8593,4.9075,4.9386,4.9531,4.9858,4.9996,4.9996,4.9996,4.9996,4.9969,4.9969,4.9996,4.9996,4.9996,4.9996,4.9996,4.9996,4.9996,4.9996,4.9996,4.9996,4.9996,4.9996,4.9996,4.9996,4.9996,4.9996,4.9996,4.9996,4.9996,4.9996,4.9996,4.9996,5.0031,5.0072,5.0314,5.0383,5.0452,5.04,5.0141,4.9996,4.9996,4.9996,4.9996,5.0048,4.9996,4.9996,4.9996,4.9996,4.9996,4.9996,4.9996,5.0003,5.0262,5.0503,5.0865,5.1659,5.2469,5.3107,5.3659,5.3755,4.4619,4.4729,4.5061,4.534,4.5543,4.5725,4.5798,4.5798,4.5798,4.5798,4.5798,4.5798,4.5798,4.5798,4.5798,4.5798,4.5798,4.5798,4.5798,4.5798,4.5798,4.5798,4.5798,4.5798,4.5798,4.5798,4.5798,4.5798,4.5798,4.5798,4.5798,4.5798,4.5798,4.5798,4.599,4.6353,4.6862,4.7431,4.7819,4.8535,4.9034,4.9322,4.9483,4.9733,4.9996,4.9996,4.9755,4.9334,4.8886,4.861,4.8282,4.8513,4.8772,4.8989,4.9272,4.9686,4.9806,4.9875,4.9996,4.9996,4.9996,4.9996,4.9996,4.9996,4.9996,4.9996,4.9996,4.9996,4.9996,4.9996,4.9996,4.9996,4.9996,4.9996,4.9996,4.9996,4.9996,4.9996,4.9996,4.9996,4.9996,4.9996,4.9996,4.9996,4.9996,4.9996,5.0031,5.0065,5.022,5.0617,5.0883,5.1003,5.1072,5.072,5.0427,5.0255,5.0358,5.022,5.0272,5.01,4.9996,4.9996,4.9996,5.0031,5.0031,5.0272,5.0548,5.0858,5.1065,5.1434,5.2124,5.2986,5.3538,5.4046,5.4279,4.4786,4.5108,4.5173,4.5395,4.5716,4.578,4.5798,4.5798,4.5798,4.5798,4.5798,4.5798,4.5798,4.5798,4.5798,4.5798,4.5798,4.5823,4.5807,4.5798,4.5825,4.5816,4.5798,4.5798,4.5798,4.5798,4.5798,4.5798,4.5798,4.5798,4.5798,4.5798,4.5798,4.5798,4.5825,4.6245,4.6714,4.7406,4.7786,4.8216,4.9333,4.956,4.9461,4.9696,4.9996,4.9996,4.9772,4.9196,4.8903,4.8748,4.8755,4.9065,4.9341,4.9617,4.9789,4.9858,4.9996,4.9996,4.9996,4.9996,4.9996,4.9996,4.9996,4.9996,4.9996,4.9996,4.9996,4.9996,4.9996,4.9996,4.9996,4.9996,4.9996,4.9996,4.9996,4.9996,4.9996,4.9996,4.9996,4.9996,4.9996,4.9996,4.9996,4.9996,4.9996,5.0013,5.0124,5.0227,5.0686,5.103,5.1427,5.1617,5.1797,5.1858,5.1789,5.1065,5.0927,5.072,5.0496,5.0365,5.021,5.0013,5.0031,5.0237,5.0607,5.0934,5.1203,5.1496,5.2082,5.2486,5.2866,5.3469,5.3994,5.4305,5.4435]},{"header":{"parameterUnit":"m.s-1","parameterCategory":1,"la1":31.0,"la2":29.5877,"lo1":-88.7671,"lo2":-86.6584,"dy":0.0162,"dx":0.0185,"nx":115,"ny":88,"refTime":"2024-02-15T18:00:00:Z","depth":0,"parameterNumber":3,"parameterNumberName":"V-component_of_WINDS"},"data":[0.0,0.0,0.0,0.0,0.0,0.0,0.0,0.0,0.0,0.0,0.0,0.0,0.0,0.0,0.0,0.0,0.0,0.0,0.0,0.0,0.0,0.0,0.0,0.0,0.0,0.0,0.0,0.0,0.0,0.0,0.0,0.0,0.0,0.0,0.0,0.0,0.0,0.0,0.0,0.0,0.0,0.0,0.0,0.0,0.0,0.0,0.0,0.0,0.0,0.0,0.0,0.0,0.0,0.0,0.0,0.0,0.0,0.0,0.0,0.0,0.0,0.0,0.0,0.0,0.0,0.0,0.0,0.0,0.0,0.0,0.0,0.0,0.0,0.0,0.0,0.0,0.0,0.0,0.0,0.0,0.0,0.0,0.0,0.0,0.0,0.0,0.0,0.0,0.0,0.0,0.0,0.0,0.0,0.0,0.0,0.0,0.0,0.0,0.0,0.0,0.0,0.0,0.0,0.0,0.0,0.0,0.0,0.0,0.0,0.0,0.0,0.0,0.0,0.0,0.0,0.0,0.0,0.0,0.0,0.0,0.0,0.0,0.0,0.0,0.0,0.0,0.0,0.0,0.0,0.0,0.0,0.0,0.0,0.0,0.0,0.0,0.0,0.0,0.0,0.0,0.0,0.0,0.0,0.0,0.0,0.0,0.0,0.0,0.0,0.0,0.0,0.0,0.0,0.0,0.0,0.0,0.0,0.0,0.0,0.0,0.0,0.0,0.0,0.0,0.0,0.0,0.0,0.0,0.0,0.0,0.0,0.0,0.0,0.0,0.0,0.0,0.0,0.0,0.0,0.0,0.0,0.0,0.0,0.0,0.0,0.0,0.0,0.0,0.0,0.0,0.0,0.0,0.0,0.0,0.0,0.0,0.0,0.0,0.0,0.0,0.0,0.0,0.0,0.0,0.0,0.0,0.0,0.0,0.0,0.0,0.0,0.0,0.0,0.0,0.0,0.0,0.0,0.0,0.0,0.0,0.0,0.0,0.0,0.0,0.0,0.0,0.0,0.0,0.0,0.0,0.0,0.0,0.0,0.0,0.0,0.0,0.0,0.0,0.0,0.0,0.0,0.0,0.0,0.0,0.0,0.0,0.0,0.0,0.0,0.0,0.0,0.0,0.0,0.0,0.0,0.0,0.0,0.0,0.0,0.0,0.0,0.0,0.0,0.0,0.0,0.0,0.0,0.0,0.0,0.0,0.0,0.0,0.0,0.0,0.0,0.0,0.0,0.0,0.0,0.0,0.0,0.0,0.0,0.0,0.0,0.0,0.0,0.0,0.0,0.0,0.0,0.0,0.0,0.0,0.0,0.0,0.0,0.0,0.0,0.0,0.0,0.0,0.0,0.0,0.0,0.0,0.0,0.0,0.0,0.0,0.0,0.0,0.0,0.0,0.0,0.0,0.0,0.0,0.0,0.0,0.0,0.0,0.0,0.0,0.0,0.0,0.0,0.0,0.0,0.0,0.0,0.0,0.0,0.0,0.0,0.0,0.0,0.0,0.0,0.0,0.0,0.0,0.0,0.0,0.0,0.0,0.0,0.0,0.0,0.0,0.0,0.0,0.0,0.0,0.0,0.0,0.0,0.0,0.0,0.0,0.0,0.0,0.0,0.0,0.0,0.0,0.0,0.0,0.0,0.0,0.0,0.0,0.0,0.0,0.0,0.0,0.0,0.0,0.0,0.0,0.0,0.0,0.0,0.0,0.0,0.0,0.0,0.0,0.0,0.0,0.0,0.0,0.0,0.0,0.0,0.0,0.0,0.0,0.0,0.0,0.0,0.0,0.0,0.0,0.0,0.0,0.0,0.0,0.0,0.0,0.0,0.0,0.0,0.0,0.0,0.0,0.0,0.0,0.0,0.0,0.0,0.0,0.0,0.0,0.0,0.0,0.0,0.0,0.0,0.0,0.0,0.0,0.0,0.0,0.0,0.0,0.0,0.0,0.0,0.0,0.0,0.0,0.0,0.0,0.0,0.0,0.0,0.0,0.0,0.0,0.0,0.0,0.0,0.0,0.0,0.0,0.0,0.0,0.0,0.0,0.0,0.0,0.0,0.0,0.0,0.0,0.0,0.0,0.0,0.0,0.0,0.0,0.0,0.0,0.0,0.0,0.0,0.0,0.0,0.0,0.0,0.0,0.0,0.0,0.0,0.0,0.0,0.0,0.0,0.0,0.0,0.0,0.0,0.0,0.0,0.0,0.0,0.0,0.0,0.0,0.0,0.0,0.0,0.0,0.0,0.0,0.0,0.0,0.0,0.0,0.0,0.0,0.0,0.0,0.0,0.0,0.0,0.0,0.0,0.0,0.0,0.0,0.0,0.0,0.0,0.0,0.0,0.0,0.0,0.0,0.0,0.0,0.0,0.0,0.0,0.0,0.0,0.0,0.0,0.0,0.0,0.0,0.0,0.0,0.0,0.0,0.0,0.0,0.0,0.0,0.0,0.0,0.0,0.0,0.0,0.0,0.0,0.0,0.0,0.0,0.0,0.0,0.0,0.0,0.0,0.0,0.0,0.0,0.0,0.0,0.0,0.0,0.0,0.0,0.0,0.0,0.0,0.0,0.0,0.0,0.0,0.0,0.0,0.0,0.0,0.0,0.0,0.0,0.0,0.0,0.0,0.0,0.0,0.0,0.0,0.0,0.0,0.0,0.0,0.0,0.0,0.0,0.0,0.0,0.0,0.0,0.0,0.0,0.0,0.0,0.0,0.0,0.0,0.0,0.0,0.0,0.0,0.0,0.0,0.0,0.0,0.0,0.0,0.0,0.0,0.0,0.0,0.0,0.0,0.0,0.0,0.0,0.0,0.0,0.0,0.0,0.0,0.0,0.0,0.0,0.0,0.0,0.0,0.0,0.0,0.0,0.0,0.0,0.0,0.0,0.0,0.0,0.0,0.0,0.0,0.0,0.0,0.0,0.0,0.0,0.0,0.0,0.0,0.0,0.0,0.0,0.0,0.0,0.0,0.0,0.0,0.0,0.0,0.0,0.0,0.0,0.0,0.0,0.0,0.0,0.0,0.0,0.0,0.0,0.0,0.0,0.0,0.0,0.0,0.0,0.0,0.0,0.0,0.0,0.0,0.0,0.0,0.0,0.0,0.0,0.0,0.0,0.0,0.0,0.0,0.0,0.0,0.0,0.0,0.0,0.0,0.0,0.0,0.0,0.0,0.0,0.0,0.0,0.0,0.0,0.0,0.0,0.0,0.0,0.0,0.0,0.0,0.0,0.0,0.0,0.0,0.0,0.0,0.0,0.0,0.0,0.0,0.0,0.0,0.0,0.0,0.0,0.0,0.0,0.0,0.0,0.0,0.0,0.0,0.0,0.0,0.0,0.0,0.0,0.0,0.0,0.0,0.0,0.0,0.0,0.0,0.0,0.0,0.0,0.0,0.0,0.0,0.0,0.0,0.0,0.0,0.0,0.0,0.0,0.0,0.0,0.0,0.0,0.0,0.0,0.0,0.0,0.0,0.0,0.0,0.0,0.0,0.0,0.0,0.0,0.0,0.0,0.0,0.0,0.0,0.0,0.0,0.0,0.0,0.0,0.0,0.0,0.0,0.0,0.0,0.0,0.0,0.0,0.0,0.0,0.0,0.0,0.0,0.0,0.0,0.0,0.0,0.0,0.0,0.0,0.0,0.0,0.0,0.0,0.0,0.0,0.0,0.0,0.0,0.0,0.0,0.0,0.0,0.0,0.0,0.0,0.0,0.0,0.0,0.0,0.0,0.0,0.0,0.0,0.0,0.0,0.0,0.0,0.0,0.0,0.0,0.0,0.0,0.0,0.0,0.0,0.0,0.0,0.0,0.0,0.0,0.0,0.0,0.0,0.0,0.0,0.0,0.0,0.0,0.0,0.0,0.0,0.0,0.0,0.0,0.0,0.0,0.0,0.0,0.0,0.0,0.0,0.0,0.0,0.0,0.0,0.0,0.0,0.0,0.0,0.0,0.0,0.0,0.0,0.0,0.0,0.0,0.0,0.0,0.0,0.0,0.0,0.0,0.0,0.0,0.0,0.0,0.0,0.0,0.0,0.0,0.0,0.0,0.0,0.0,0.0,0.0,0.0,0.0,0.0,0.0,0.0,0.0,0.0,0.0,0.0,0.0,0.0,0.0,0.0,0.0,0.0,0.0,0.0,0.0,0.0,0.0,0.0,0.0,0.0,0.0,0.0,0.0,0.0,0.0,0.0,0.0,0.0,0.0,0.0,0.0,0.0,0.0,0.0,0.0,0.0,0.0,0.0,0.0,0.0,0.0,0.0,0.0,0.0,0.0,0.0,0.4482,0.0,0.0,0.0,0.0,0.0,0.0,0.0,0.0,0.0,0.0,0.0,0.0,0.0,0.0,0.0,0.0,0.0,0.0,0.0,0.0,0.0,0.0,0.0,0.0,0.0,0.0,0.0,0.0,0.0,0.0,0.0,0.0,0.0,0.0,0.0,0.0,0.0,0.0,0.0,0.0,0.0,0.0,0.0,0.0,0.0,0.0,0.0,0.0,0.0,0.0,0.0,0.0,0.0,0.0,0.0,0.0,0.0,0.0,0.0,0.0,0.0,0.0,0.0,0.0,0.0,0.0,0.0,0.0,0.0,0.0,0.0,0.0,0.0,0.0,0.0,0.0,0.0,0.0,0.0,0.0,0.0,0.0,0.0,0.0,0.0,0.0,0.0,0.0,0.0,0.0,0.0,0.0,0.0,0.0,0.0,0.0,0.0,0.0,0.0,0.0,0.0,0.0,0.0,0.0,0.0,0.0,0.0,0.0,0.0,0.0,0.5141,0.4834,0.4732,0.4626,0.4511,0.0,0.0,0.0,0.0,0.0,0.0,0.0,0.0,0.0,0.0,0.0,0.0,0.0,0.0,0.0,0.0,0.0,0.0,0.0,0.0,0.0,0.0,0.0,0.0,0.0,0.0,0.0,0.0,0.0,0.0,0.0,0.0,0.0,0.0,0.0,0.0,0.0,0.0,0.0,0.0,0.0,0.0,0.0,0.0,0.0,0.0,0.0,0.0,0.0,0.0,0.0,0.0,0.0,0.0,0.0,0.0,0.0,0.0,0.0,0.0,0.0,0.0,0.0,0.0,0.0,0.0,0.0,0.0,0.0,0.0,0.0,0.0,0.0,0.0,0.0,0.0,0.0,0.0,0.0,0.0,0.0,0.0,0.0,0.0,0.0,0.0,0.0,0.0,0.0,0.0,0.0,0.0,0.0,0.0,0.0,0.0,0.0,0.0,0.0,0.0,0.0,0.0,0.0,0.0,0.0,0.0,0.0,0.0,0.0,0.0,0.0,0.0,0.4724,0.4567,0.4571,0.0,0.0,0.0,0.0,0.0,0.0,0.0,0.0,0.0,0.0,0.0,0.0,0.0,0.0,0.0,0.0,0.0,0.0,0.0,0.0,0.0,0.0,0.0,0.0,0.0,0.0,0.0,0.0,0.0,0.0,0.0,0.0,0.0,0.0,0.0,0.0,0.0,0.0,0.0,0.0,0.0,0.0,0.0,0.0,0.0,0.0,0.0,0.0,0.0,0.0,0.0,0.0,0.0,0.0,0.0,0.0,0.0,0.0,0.0,0.0,0.0,0.0,0.0,0.0,0.0,0.0,0.0,0.0,0.0,0.0,0.0,0.0,0.0,0.0,0.0,0.0,0.0,0.0,0.0,0.0,0.0,0.0,0.0,0.0,0.0,0.0,0.0,0.0,0.0,0.0,0.0,0.0,0.0,0.0,0.0,0.0,0.0,0.0,0.0,0.0,0.0,0.0,0.0,0.0,0.0,0.0,0.0,0.0,0.0,0.0,0.5131,0.4842,0.4792,0.0,0.4772,0.0,0.0,0.0,0.0,0.0,0.0,0.0,0.0,0.0,0.0,0.0,0.0,0.0,0.0,0.0,0.0,0.0,0.0,0.0,0.0,0.0,0.0,0.0,0.0,0.0,0.0,0.0,0.0,0.0,0.0,0.0,0.0,0.0,0.0,0.0,0.0,0.0,0.0,0.0,0.0,0.0,0.0,0.0,0.0,0.0,0.0,0.0,0.0,0.0,0.0,0.0,0.0,0.0,0.0,0.0,0.0,0.0,0.0,0.0,0.0,0.0,0.0,0.0,0.0,0.0,0.0,0.0,0.0,0.0,0.0,0.0,0.0,0.0,0.0,0.0,0.0,0.0,0.0,0.0,0.0,0.0,0.0,0.0,0.0,0.0,0.0,0.0,0.0,0.0,0.0,0.0,0.0,0.0,0.0,0.0,0.0,0.0,0.0,0.0,0.0,0.0,0.0,0.0,0.0,0.0,0.0,0.0,0.0,0.0,0.0,0.5435,0.5099,0.4912,0.4898,0.0,0.0,0.0,0.0,0.0,0.0,0.0,0.0,0.0,0.0,0.0,0.0,0.0,0.0,0.0,0.0,0.0,0.0,0.0,0.0,0.0,0.0,0.0,0.0,0.0,0.0,0.0,0.0,0.0,0.0,0.0,0.0,0.0,0.0,0.0,0.0,0.0,0.0,0.0,0.0,0.0,0.0,0.0,0.0,0.0,0.0,0.0,0.0,0.0,0.0,0.0,0.0,0.0,0.0,0.0,0.0,0.0,0.0,0.0,0.0,0.0,0.0,0.0,0.0,0.0,0.0,0.0,0.0,0.0,0.0,0.0,0.0,0.0,0.0,0.0,0.0,0.0,0.0,0.0,0.0,0.0,0.0,0.0,0.0,0.0,0.0,0.0,0.0,0.0,0.0,0.0,0.0,0.0,0.0,0.0,0.0,0.0,0.0,0.0,0.0,0.0,0.0,0.0,0.0,0.0,0.0,0.0,0.0,0.0,0.0,0.5753,0.5592,0.5186,0.4922,0.4906,0.5145,0.0,0.0,0.0,0.0,0.0,0.0,0.0,0.0,0.0,0.0,0.0,0.0,0.0,0.0,0.0,0.0,0.0,0.0,0.0,0.0,0.0,0.0,0.0,0.0,0.0,0.0,0.0,0.0,0.0,0.0,0.0,0.0,0.0,0.0,0.0,0.0,0.0,0.0,0.0,0.0,0.0,0.0,0.0,0.0,0.0,0.0,0.0,0.0,0.0,0.0,0.0,0.0,0.0,0.0,0.0,0.0,0.0,0.0,0.0,0.0,0.0,0.0,0.0,0.0,0.0,0.0,0.0,0.0,0.0,0.0,0.0,0.0,0.0,0.0,0.0,0.0,0.0,0.0,0.0,0.0,0.0,0.0,0.0,0.0,0.0,0.0,0.0,0.0,0.0,0.0,0.0,0.0,0.0,0.0,0.0,0.0,0.0,0.0,0.0,0.0,0.0,0.0,0.0,0.0,0.0,0.0,0.0,0.0,0.5391,0.5635,0.5478,0.4874,0.4822,0.48,0.0,0.0,0.0,0.0,0.0,0.0,0.0,0.0,0.0,0.0,0.0,0.0,0.0,0.0,0.0,0.0,0.0,0.0,0.0,0.0,0.0,0.0,0.0,0.0,0.0,0.0,0.0,0.0,0.0,0.0,0.0,0.0,0.0,0.0,0.0,0.0,0.0,0.0,0.0,0.0,0.0,0.0,0.0,0.0,0.0,0.0,0.0,0.0,0.0,0.0,0.0,0.0,0.0,0.0,0.0,0.0,0.0,0.0,0.0,0.0,0.0,0.0,0.0,0.0,0.0,0.0,0.0,0.0,0.0,0.0,0.0,0.0,0.0,0.0,0.0,0.0,0.0,0.0,0.0,0.0,0.0,0.0,0.0,0.0,0.0,0.0,0.0,0.0,0.0,0.0,0.0,0.0,0.0,0.0,0.0,0.0,0.0,0.0,0.0,0.0,0.0,0.0,0.0,0.0,0.0,0.0,0.0,0.0,0.0,0.5955,0.5632,0.5367,0.5133,0.4912,0.4902,0.0,0.0,0.0,0.0,0.0,0.0,0.0,0.0,0.0,0.0,0.0,0.0,0.0,0.0,0.0,0.0,0.0,0.0,0.0,0.0,0.0,0.0,0.0,0.0,0.0,0.0,0.0,0.0,0.0,0.0,0.0,0.0,0.0,0.0,0.0,0.0,0.0,0.0,0.0,0.0,0.0,0.0,0.0,0.0,0.0,0.0,0.0,0.0,0.0,0.0,0.0,0.0,0.0,0.0,0.0,0.0,0.0,0.0,0.0,0.0,0.0,0.0,0.0,0.0,0.0,0.0,0.0,0.0,0.0,0.0,0.0,0.0,0.0,0.0,0.0,0.0,0.0,0.0,0.0,0.0,0.0,0.0,0.0,0.0,0.0,0.0,0.0,0.0,0.0,0.0,0.0,0.0,0.0,0.0,0.0,0.0,0.0,0.0,0.0,0.0,0.0,0.0,0.0,0.0,0.0,0.0,0.0,0.0,0.0,0.6122,0.0,0.5419,0.5305,0.5182,0.5123,0.0,0.0,0.0,0.0,0.0,0.0,0.0,0.0,0.0,0.0,0.0,0.0,0.0,0.0,0.0,0.0,0.0,0.0,0.0,0.0,0.0,0.0,0.0,0.0,0.0,0.0,0.0,0.0,0.0,0.0,0.0,0.0,0.0,0.0,0.0,0.0,0.0,0.0,0.0,0.0,0.0,0.0,0.0,0.0,0.0,0.0,0.0,0.0,0.0,0.0,0.0,0.0,0.0,0.0,0.0,0.0,0.0,0.0,0.0,0.0,0.0,0.0,0.0,0.0,0.0,0.0,0.0,0.0,0.0,0.0,0.0,0.0,0.0,0.0,0.0,0.0,0.0,0.0,0.0,0.0,0.0,0.0,0.0,0.0,0.0,0.0,0.0,0.0,0.0,0.0,0.0,0.0,0.0,0.0,0.0,0.0,0.0,0.0,0.0,0.0,0.0,0.0,0.0,0.0,0.0,0.0,0.0,0.0,0.5807,0.5806,0.5798,0.5615,0.5322,0.562,0.5491,0.0,0.0,0.0,0.0,0.0,0.0,0.0,0.0,0.0,0.0,0.0,0.0,0.0,0.0,0.0,0.0,0.0,0.0,0.0,0.0,0.0,0.0,0.0,0.0,0.0,0.0,0.0,0.0,0.0,0.0,0.0,0.0,0.0,0.0,0.0,0.0,0.0,0.0,0.0,0.0,0.0,0.0,0.0,0.0,0.0,0.0,0.0,0.0,0.0,0.0,0.0,0.0,0.0,0.0,0.0,0.0,0.0,0.0,0.0,0.0,0.0,0.0,0.0,0.0,0.0,0.0,0.0,0.0,0.0,0.0,0.0,0.0,0.0,0.0,0.0,0.0,0.0,0.0,0.0,0.0,0.0,0.0,0.0,0.0,0.0,0.0,0.0,0.0,0.0,0.0,0.0,0.0,0.0,0.0,0.0,0.0,0.0,0.0,0.0,0.0,0.0,0.0,0.0,0.0,0.0,0.0,0.0,0.0,0.0,0.5413,0.5568,0.5606,0.5525,0.5878,0.588,0.0,0.0,0.0,0.0,0.0,0.0,0.0,0.0,0.0,0.0,0.0,0.0,0.0,0.0,0.0,0.0,0.0,0.0,0.0,0.0,0.0,0.0,0.0,0.0,0.0,0.0,0.0,0.0,0.0,0.0,0.0,0.0,0.0,0.0,0.0,0.0,0.0,0.0,0.0,0.0,0.0,0.0,0.0,0.0,0.0,0.0,0.0,0.0,0.0,0.0,0.0,0.0,0.0,0.0,0.0,0.0,0.0,0.0,0.0,0.0,0.0,0.0,0.0,0.0,0.0,0.0,0.0,0.0,0.0,0.0,0.0,0.0,0.0,0.0,0.0,0.0,0.0,0.0,0.0,0.0,0.0,0.0,0.0,0.0,0.0,0.0,0.0,0.0,0.0,0.0,0.0,0.0,0.0,0.0,0.0,0.0,0.0,0.0,0.0,0.0,0.0,0.0,0.0,0.0,0.0,0.0,0.0,0.0,0.0,0.6433,0.6462,0.6361,0.6101,0.6596,0.6554,0.5938,0.0,0.0,0.0,0.0,0.0,0.0,0.0,0.0,0.0,0.0,0.0,0.0,0.0,0.0,0.0,0.0,0.0,0.0,0.0,0.0,0.0,0.0,0.0,0.0,0.0,0.0,0.0,0.0,0.0,0.0,0.0,0.0,0.0,0.0,0.0,0.0,0.0,0.0,0.0,0.0,0.0,0.0,0.0,0.0,0.0,0.0,0.0,0.0,0.0,0.0,0.0,0.0,0.0,0.0,0.0,0.0,0.0,0.0,0.0,0.0,0.0,0.0,0.0,0.0,0.0,0.0,0.0,0.0,0.0,0.0,0.0,0.0,0.0,0.0,0.0,0.0,0.0,0.0,0.0,0.0,0.0,0.0,0.0,0.0,0.0,0.0,0.0,0.0,0.0,0.0,0.0,0.0,0.0,0.0,0.0,0.0,0.0,0.0,0.0,0.0,0.0,0.0,0.0,0.0,0.0,0.0,0.0,0.0,0.8474,0.8205,0.7755,0.711,0.772,0.7514,0.0,0.0,0.0,0.0,0.0,0.0,0.0,0.0,0.0,0.0,0.0,0.0,0.0,0.0,0.0,0.0,0.0,0.0,0.0,0.0,0.0,0.0,0.0,0.0,0.0,0.0,0.0,0.0,0.0,0.0,0.0,0.0,0.0,0.0,0.0,0.0,0.0,0.0,0.0,0.0,0.0,0.0,0.0,0.0,0.0,0.0,0.0,0.0,0.0,0.0,0.0,0.0,0.0,0.0,0.0,0.0,0.0,0.0,0.0,0.0,0.0,0.0,0.0,0.0,0.0,0.0,0.0,0.0,0.0,0.0,0.0,0.0,0.0,0.0,0.0,0.0,0.0,0.0,0.0,0.0,0.0,0.0,0.0,0.0,0.0,0.0,0.0,0.0,0.0,0.0,0.0,0.0,0.0,0.0,0.0,0.0,0.0,0.0,0.0,0.0,0.0,0.0,0.0,0.0,0.0,0.0,0.0,0.0,0.0,0.9399,0.917,0.9072,0.9113,0.8776,0.847,0.0,0.0,0.0,0.0,0.0,0.0,0.0,0.0,0.0,0.0,0.0,0.0,0.0,0.0,0.0,0.0,0.0,0.0,0.0,0.0,0.0,0.0,0.0,0.0,0.0,0.0,0.0,0.0,0.0,0.0,0.0,0.0,0.0,0.0,0.0,0.0,0.0,0.0,0.0,0.0,0.0,0.0,0.0,0.0,0.0,0.0,0.0,0.0,0.0,0.0,0.0,0.0,0.0,0.0,0.0,0.0,0.0,0.0,0.0,0.0,0.0,0.0,0.0,0.0,0.0,0.0,0.0,0.0,0.0,0.0,0.0,0.0,0.0,0.0,0.0,0.0,0.0,0.0,0.0,0.0,0.0,0.0,0.0,0.0,0.0,0.0,0.0,0.0,0.0,0.0,0.0,0.0,0.0,0.0,0.0,0.0,0.0,0.0,0.0,0.0,0.0,0.0,0.0,0.0,0.0,0.0,0.0,0.0,1.0028,1.0624,1.0962,1.122,1.1419,0.9996,0.92,0.0,0.0,0.0,0.0,0.0,0.0,0.0,0.0,0.0,0.0,0.0,0.0,0.0,0.0,0.0,0.0,0.0,0.0,0.0,0.0,0.0,0.0,0.0,0.0,0.0,0.0,0.0,0.0,0.0,0.0,0.0,0.0,0.0,0.0,0.0,0.0,0.0,0.0,0.0,0.0,0.0,0.0,0.0,0.0,0.0,0.0,0.0,0.0,0.0,0.0,0.0,0.0,0.0,0.0,0.0,0.0,0.0,0.0,0.0,0.0,0.0,0.0,0.0,0.0,0.0,0.0,0.0,0.0,0.0,0.0,0.0,0.0,0.0,0.0,0.0,0.0,0.0,0.0,0.0,0.0,0.0,0.0,0.0,0.0,0.0,0.0,0.0,0.0,0.0,0.0,0.0,0.0,0.0,0.0,0.0,0.0,0.0,0.0,0.0,0.0,0.0,0.0,0.0,0.0,0.0,0.0,0.0,0.0,1.1389,1.182,1.2782,1.3321,1.3341,1.115,0.9869,0.0,0.0,0.0,0.0,0.0,0.0,0.0,0.0,0.0,0.0,0.0,0.0,0.0,0.0,0.0,0.0,0.0,0.0,0.0,0.0,0.0,0.0,0.0,0.0,0.0,0.0,0.0,0.0,0.0,0.0,0.0,0.0,0.0,0.0,0.0,0.0,0.0,0.0,0.0,0.0,0.0,0.0,0.0,0.0,0.0,0.0,0.0,0.0,0.0,0.0,0.0,0.0,0.0,0.0,0.0,0.0,0.0,0.0,0.0,0.0,0.0,0.0,0.0,0.0,0.0,0.0,0.0,0.0,0.0,0.0,0.0,0.0,0.0,0.0,0.0,0.0,0.0,0.0,0.0,0.0,0.0,0.0,0.0,0.0,0.0,0.0,0.0,0.0,0.0,0.0,0.0,0.0,0.0,0.0,0.0,0.0,0.0,0.0,0.0,0.0,0.0,0.0,0.0,0.0,0.0,0.0,0.0,0.0,1.099,1.1932,1.1942,1.2181,1.2688,1.1545,1.0916,0.0,0.0,0.0,0.0,0.0,0.0,0.0,0.0,0.0,0.0,0.0,0.0,0.0,0.0,0.0,0.0,0.0,0.0,0.0,0.0,0.0,0.0,0.0,0.0,0.0,0.0,0.0,0.0,0.0,0.0,0.0,0.0,0.0,0.0,0.0,0.0,0.0,0.0,0.0,0.0,0.0,0.0,0.0,0.0,0.0,0.0,0.0,0.0,0.7237,0.0,0.0,0.0,0.0,0.0,0.0,0.0,0.0,0.0,0.0,0.0,0.0,0.0,0.0,0.0,0.0,0.0,0.0,0.0,0.0,0.0,0.0,0.0,0.0,0.0,0.0,0.0,0.0,0.0,0.0,0.0,0.0,0.0,0.0,0.0,0.0,0.0,0.0,0.0,0.0,0.0,0.0,0.0,0.0,0.0,0.0,0.0,0.0,0.0,0.0,0.0,0.0,0.0,0.0,0.0,0.0,0.0,0.0,0.0,1.1483,1.2436,1.2458,1.2627,1.2923,1.2378,1.1817,0.0,0.0,0.0,0.0,0.0,0.0,0.0,0.0,0.0,0.0,0.0,0.0,0.0,0.0,0.0,0.0,0.0,0.0,0.0,0.0,0.0,0.0,0.0,0.0,0.0,0.0,0.0,0.0,0.0,0.0,0.0,0.0,0.0,0.0,0.0,0.0,0.0,0.0,0.0,0.0,0.0,0.0,0.0,0.0,0.0,0.0,0.0,0.0,0.0,0.0,0.0,0.0,0.0,0.0,0.0,0.0,0.0,0.0,0.0,0.0,0.0,0.0,0.0,0.0,0.0,0.0,0.0,0.0,0.0,0.0,0.0,0.0,0.0,0.0,0.0,0.0,0.0,0.0,0.0,0.0,0.0,0.0,0.0,0.0,0.0,0.0,0.0,0.0,0.0,0.0,0.0,0.0,0.0,0.0,0.0,0.0,0.0,0.0,0.0,0.0,0.0,0.0,0.0,0.0,0.0,0.0,0.0,1.1452,1.2208,1.3039,1.3341,1.3518,1.3532,1.3212,1.2537,0.0,0.0,0.0,0.0,0.0,0.0,0.0,0.0,0.0,0.0,0.0,0.0,0.0,0.0,0.0,0.0,0.0,0.0,0.0,0.0,0.0,0.0,0.0,0.0,0.0,0.0,0.0,0.0,0.0,0.0,0.0,0.0,0.0,0.0,0.0,0.0,0.0,0.0,0.0,0.6171,0.6355,0.0,0.0,0.0,0.0,0.0,0.0,0.0,0.0,0.7647,0.0,0.0,0.0,0.0,0.0,0.0,0.0,0.0,0.0,0.0,0.0,0.0,0.0,0.0,0.0,0.0,0.0,0.0,0.0,0.0,0.0,0.0,0.0,0.0,0.0,0.0,0.0,0.0,0.0,0.0,0.0,0.0,0.0,0.0,0.0,0.0,0.0,0.0,0.0,0.0,0.0,0.0,0.0,0.0,0.0,0.0,0.0,0.0,0.0,0.0,0.0,0.0,0.0,0.0,0.0,0.0,1.1196,1.1599,1.232,1.3383,1.3469,1.3579,1.3729,1.3367,1.2833,1.2144,0.0,0.0,0.0,0.0,0.0,0.0,0.0,0.0,0.0,0.0,0.0,0.0,0.0,0.0,0.0,0.0,0.0,0.0,0.0,0.0,0.0,0.0,0.0,0.0,0.0,0.0,0.0,0.0,0.0,0.0,0.0,0.0,0.0,0.0,0.0,0.0,0.0,0.0,0.0,0.6848,0.6957,0.0,0.0,0.0,0.0,0.0,0.0,0.0,0.0,0.8024,0.0,0.0,0.0,0.0,0.0,0.0,0.0,0.0,0.0,0.0,0.0,0.0,0.0,0.0,0.0,0.0,0.0,0.0,0.0,0.0,0.0,0.0,0.0,0.0,0.0,0.0,0.0,0.0,0.0,0.0,0.0,0.0,0.0,0.0,0.0,0.0,0.0,0.0,0.0,0.0,0.0,0.0,0.0,0.0,0.0,0.0,0.0,0.0,0.0,0.0,0.0,0.0,0.0,0.0,0.0,1.1544,1.2291,1.3044,1.3786,1.4016,1.4158,1.4236,1.3683,1.3083,0.0,0.0,0.0,0.0,0.0,0.0,0.0,0.0,0.0,0.0,0.0,0.0,0.0,0.0,0.0,0.0,0.0,0.0,0.0,0.0,0.0,0.0,0.0,0.0,0.0,0.0,0.0,0.0,0.0,0.0,0.0,0.0,0.0,0.0,0.0,0.0,0.0,0.0,0.0,0.0,0.7382,0.7617,0.8282,0.0,0.0,0.0,0.0,0.0,0.0,0.8865,0.8607,0.0,0.0,0.0,0.0,0.0,0.0,0.0,0.0,0.0,0.0,0.0,0.0,0.0,0.0,0.0,0.0,0.0,0.0,0.0,0.0,0.0,0.0,0.0,0.0,0.0,0.0,0.0,0.0,0.0,0.0,0.0,0.0,0.0,0.0,0.0,0.0,0.0,0.0,0.0,0.0,0.0,0.0,0.0,0.0,0.0,0.0,0.0,0.0,0.0,0.0,0.0,0.0,0.0,0.0,0.0,1.1919,1.3035,1.3811,1.422,1.4562,1.4765,1.4781,1.3968,1.3313,0.0,0.0,0.0,0.0,0.0,0.0,0.0,0.0,0.0,0.0,0.0,0.0,0.0,0.0,0.0,0.0,0.0,0.0,0.0,0.0,0.0,0.0,0.0,0.0,0.0,0.0,0.0,0.0,0.0,0.0,0.0,0.0,0.0,0.0,0.0,0.0,0.0,0.0,0.0,0.0,0.0,0.8264,0.8979,0.8928,0.0,0.0,0.0,0.0,0.9556,0.9442,0.0,0.0,0.0,0.0,0.0,0.0,0.0,0.0,0.0,0.0,0.0,0.0,0.0,0.0,0.0,0.0,0.0,0.0,0.0,0.0,0.0,0.0,0.0,0.0,0.0,0.0,0.0,0.0,0.0,0.0,0.0,0.0,0.0,0.0,0.0,0.0,0.0,0.0,0.0,0.0,0.0,0.0,0.0,0.0,0.0,0.0,0.0,0.0,0.0,0.0,0.0,0.0,0.0,0.0,0.0,0.0,1.2345,1.3451,1.4229,1.4606,1.4788,1.4952,1.5123,1.4132,1.3634,0.0,0.0,0.0,0.0,0.0,0.0,0.0,0.0,0.0,0.0,0.0,0.0,0.0,0.0,0.0,0.0,0.0,0.0,0.0,0.0,0.0,0.0,0.0,0.0,0.0,0.0,0.0,0.0,0.0,0.0,0.0,0.0,0.0,0.0,0.0,0.0,0.0,0.0,0.0,0.0,0.0,0.8462,0.903,0.9079,0.9073,0.0,0.0,0.0,0.9845,1.0027,0.0,0.0,0.0,0.0,0.0,0.0,0.0,0.0,0.0,0.0,0.0,0.0,0.0,0.0,0.0,0.0,0.0,0.0,0.0,0.0,0.0,0.0,0.0,0.0,0.0,0.0,0.0,0.0,0.0,0.0,0.0,0.0,0.0,0.0,0.0,0.0,0.0,0.0,0.0,0.0,0.0,0.0,0.0,0.0,0.0,0.0,0.0,0.0,0.0,0.0,0.0,0.0,0.0,0.0,0.0,1.277,1.3387,1.4939,1.5711,1.5676,1.5946,1.5998,1.582,1.4755,1.4146,0.0,0.0,0.0,0.0,0.0,0.0,0.0,0.0,0.0,0.0,0.0,0.0,0.0,0.0,0.0,0.0,0.0,0.0,0.0,0.0,0.0,0.0,0.0,0.0,0.0,0.0,0.0,0.0,0.0,0.0,0.0,0.0,0.0,0.0,0.0,0.0,0.0,0.0,0.0,0.0,0.0,0.0,0.9512,0.9813,0.0,0.0,0.0,1.0315,1.0148,0.0,0.0,0.0,0.0,0.0,0.0,0.0,0.0,0.0,0.0,0.0,0.0,0.0,0.0,0.0,0.0,0.0,0.0,0.0,0.0,0.0,0.0,0.0,0.0,0.0,0.0,0.0,0.0,0.0,0.0,0.0,0.0,0.0,0.0,0.0,0.0,0.0,0.0,0.0,0.0,0.0,0.0,0.0,0.0,0.0,0.0,0.0,0.0,0.0,0.0,0.0,0.0,0.0,0.0,0.0,0.0,0.0,1.4248,1.6085,1.6936,1.6723,1.6892,1.6884,1.6661,1.5598,0.0,0.0,0.0,0.0,0.0,0.0,0.0,0.0,0.0,0.0,0.0,0.0,0.0,0.0,0.0,0.0,0.0,0.0,0.0,0.0,0.0,0.0,0.0,0.0,0.0,0.0,0.0,0.0,0.0,0.0,0.0,0.0,0.0,0.0,0.0,0.0,0.0,0.0,0.0,0.0,0.0,0.0,0.967,0.9877,1.037,1.0716,0.0,0.0,1.0746,1.0635,1.0834,1.0722,0.0,0.0,0.0,0.0,0.0,0.0,0.0,0.0,0.0,0.0,0.0,0.0,0.0,0.0,0.0,0.0,0.0,0.0,0.0,0.0,0.0,0.0,0.0,0.0,0.0,0.0,0.0,0.0,0.0,0.0,0.0,0.0,0.0,0.0,0.0,0.0,0.0,0.0,0.0,0.0,0.0,0.0,0.0,0.0,0.0,0.0,0.0,0.0,0.0,0.0,0.0,0.0,0.0,0.0,0.0,1.461,1.6307,1.7309,1.7497,1.7123,1.7169,1.7648,1.6715,1.5979,0.0,0.0,0.0,0.0,0.0,0.0,0.0,0.0,0.0,0.0,0.0,0.0,0.0,0.0,0.0,0.0,0.0,0.0,0.0,0.0,0.0,0.0,0.0,0.0,0.0,0.0,0.0,0.0,0.0,0.0,0.0,0.0,0.0,0.0,0.0,0.0,0.0,0.0,0.0,0.0,0.0,0.9891,0.9884,1.0361,1.0791,0.0,0.0,1.1147,1.1378,1.1647,1.1545,1.0749,0.0,0.0,0.0,0.0,0.0,0.0,0.0,0.0,0.0,0.0,0.0,0.0,0.0,0.0,0.0,0.0,0.0,0.0,0.0,0.0,0.0,0.0,0.0,0.0,0.0,0.0,0.0,0.0,0.0,0.0,0.0,0.0,0.0,0.0,0.0,0.0,0.0,0.0,0.0,0.0,0.0,0.0,0.0,0.0,0.0,0.0,0.0,0.0,0.0,0.0,0.0,0.0,0.0,1.5217,1.5658,1.7514,1.8425,1.8276,1.8094,1.8005,1.7979,1.7377,1.6633,0.0,0.0,0.0,0.0,0.0,0.0,0.0,0.0,0.0,0.0,0.0,0.0,0.0,0.0,0.0,0.0,0.0,0.0,0.0,0.0,0.0,0.0,0.0,0.0,0.0,0.0,0.0,0.0,1.1135,1.1282,1.0916,0.0,0.0,0.0,0.0,0.0,0.0,0.0,0.0,0.0,0.0,1.0262,1.059,1.1089,0.0,0.0,1.1603,1.1575,1.1505,1.1599,1.1378,1.0575,1.0234,0.0,0.0,0.0,0.0,0.0,0.0,0.0,0.0,0.0,0.0,0.0,0.0,0.0,0.0,0.0,0.0,0.0,0.0,0.0,0.0,0.0,0.0,0.0,0.0,0.0,0.0,0.0,0.0,0.0,0.0,0.0,0.0,0.0,0.0,0.0,0.0,0.0,0.0,0.0,0.0,0.0,0.0,0.0,0.0,0.0,0.0,0.0,0.0,0.0,0.0,0.0,0.0,1.5801,1.6296,1.8227,1.9104,1.8879,1.8711,1.8565,1.8458,1.8073,1.7412,0.0,0.0,0.0,0.0,0.0,0.0,0.0,0.0,0.0,0.0,0.0,0.0,0.0,0.0,0.0,0.0,0.0,0.0,0.0,0.0,0.0,0.0,0.0,0.0,0.0,0.0,0.0,0.0,1.2071,1.2213,1.1547,0.0,0.0,0.0,0.0,0.0,0.0,0.0,0.0,0.0,0.0,1.0773,1.1066,1.15,1.1776,1.1786,1.1776,1.1749,1.1647,1.1629,1.1402,1.0755,0.0,0.0,0.0,0.0,0.0,0.0,0.0,0.0,0.0,0.0,0.0,0.0,0.0,0.0,0.0,0.0,0.0,0.0,0.0,0.0,0.0,0.0,0.0,0.0,0.0,0.0,0.0,0.0,0.0,0.0,0.0,0.0,0.0,0.0,0.0,0.0,0.0,0.0,0.0,0.0,0.0,0.0,0.0,0.0,0.0,0.0,0.0,0.0,0.0,0.0,0.0,0.0,0.0,0.0,1.6315,1.8105,1.9102,1.9254,1.8721,1.8694,1.9237,1.8898,1.8476,1.8018,0.0,0.0,0.0,0.0,0.0,0.0,0.0,0.0,0.0,0.0,0.0,0.0,0.0,0.0,0.0,0.0,0.0,0.0,0.0,0.0,0.0,0.0,0.0,0.0,0.0,0.0,1.0824,1.1056,1.115,0.0,0.0,0.0,0.0,0.0,0.0,0.0,0.0,0.0,0.0,1.122,1.1388,1.116,1.1346,1.158,1.1589,1.1558,1.163,1.1924,1.1924,1.1804,0.0,0.0,0.0,0.0,0.0,0.0,0.0,0.0,0.0,0.0,0.0,0.0,0.0,0.0,0.0,0.0,0.0,0.0,0.0,0.0,0.0,0.0,0.0,0.0,0.0,0.0,0.0,0.0,1.1961,0.0,0.0,0.0,0.0,0.0,0.0,0.0,0.0,0.0,0.0,0.0,1.5024,1.5225,0.0,0.0,0.0,0.0,0.0,0.0,0.0,0.0,0.0,0.0,0.0,0.0,1.6028,1.6727,1.8364,1.9232,1.9282,1.9094,1.9085,1.9282,1.9173,1.865,1.7724,0.0,0.0,0.0,0.0,0.0,0.0,0.0,0.0,0.0,0.0,0.0,0.0,0.0,0.0,0.0,0.0,0.0,0.0,0.0,0.0,0.0,0.0,0.0,0.0,0.0,1.1696,0.0,0.0,0.0,0.0,0.0,0.0,0.0,0.0,0.0,0.0,0.0,1.2445,1.2437,1.2206,1.2063,1.2147,1.2396,1.2741,0.0,0.0,0.0,0.0,0.0,0.0,0.0,0.0,0.0,0.0,0.0,0.0,0.0,0.0,1.4156,1.2017,1.1596,1.1727,1.2312,0.0,0.0,0.0,0.0,0.0,0.0,0.0,0.0,0.0,0.0,0.0,0.0,0.0,0.0,0.0,0.0,1.3734,0.0,0.0,0.0,0.0,0.0,0.0,0.0,0.0,1.563,1.6344,1.6928,1.6924,1.6704,0.0,1.5907,1.4818,0.0,0.0,0.0,0.0,0.0,0.0,0.0,0.0,1.6303,1.7128,1.8549,1.9292,1.9292,1.9292,1.9292,1.9292,1.9292,1.8926,1.8146,1.7211,1.6238,0.0,0.0,0.0,0.0,0.0,0.0,0.0,0.0,0.0,0.0,0.0,0.0,0.0,0.0,0.0,0.0,0.0,0.0,0.0,0.0,0.0,0.0,0.0,1.2332,0.0,0.0,0.0,0.0,0.0,0.0,0.0,0.0,0.0,1.226,1.3236,1.3947,1.3843,1.3561,1.335,1.33,0.0,0.0,0.0,0.0,0.0,0.0,0.0,1.4233,1.4798,1.4533,1.4478,1.5127,1.5699,1.6072,1.6082,0.0,0.0,1.4147,1.3717,1.3855,1.443,1.4419,1.4308,1.4334,1.4609,1.4846,0.0,0.0,0.0,0.0,0.0,0.0,0.0,0.0,1.582,1.5803,0.0,1.5354,0.0,0.0,0.0,0.0,0.0,0.0,0.0,0.0,1.7558,1.8134,1.7847,1.77,1.7585,1.7476,1.6373,1.6024,1.6296,1.5946,0.0,0.0,0.0,0.0,0.0,0.0,1.6708,1.7523,1.8687,1.9292,1.9292,1.9292,1.9292,1.9292,1.9292,1.9273,1.9246,1.8174,1.7532,1.7468,1.5284,0.0,0.0,0.0,0.0,0.0,0.0,0.0,0.0,0.0,0.0,0.0,0.0,0.0,0.0,0.0,0.0,0.0,0.0,0.0,0.0,1.2526,0.0,0.0,0.0,0.0,0.0,0.0,0.0,0.0,0.0,0.0,1.3566,1.4107,1.4694,1.5006,0.0,0.0,0.0,0.0,1.5332,1.482,1.4893,1.5054,1.5098,1.5508,1.5949,1.625,0.0,0.0,1.6895,1.6708,1.6595,1.6538,1.6852,1.6926,1.6983,1.6368,1.598,1.6029,1.577,1.5468,1.5466,1.582,1.5966,1.7464,0.0,0.0,0.0,0.0,1.6676,1.675,1.687,1.687,1.6863,1.6859,1.6721,0.0,0.0,0.0,0.0,0.0,0.0,1.6326,1.6443,1.7838,1.8597,1.8751,1.9443,1.9343,1.8502,1.8134,1.7993,1.8009,1.7908,1.6862,1.4957,0.0,0.0,0.0,0.0,1.7129,1.7926,1.8843,1.9292,1.9292,1.9292,1.9292,1.9292,1.9292,1.9292,1.9282,1.8962,1.8513,1.7944,1.7,0.0,0.0,0.0,0.0,0.0,0.0,0.0,0.0,0.0,0.0,0.0,0.0,0.0,0.0,0.0,0.0,0.0,0.0,0.0,1.3109,1.3933,1.4121,0.0,0.0,0.0,0.0,0.0,0.0,0.0,0.0,0.0,1.589,1.6058,1.6254,0.0,0.0,1.5627,1.5622,1.6047,1.6497,1.682,0.0,0.0,0.0,1.7493,1.7215,1.8167,1.864,1.886,1.8871,1.904,1.9173,1.9184,1.9245,1.9311,1.9243,1.8333,1.7768,1.8123,1.8156,1.8089,1.8095,1.8334,1.8531,1.9742,1.8932,1.824,1.801,1.8126,1.8137,1.8247,1.8407,1.8396,1.8414,1.8392,1.8214,1.8035,1.7831,1.7478,0.0,0.0,0.0,1.7675,1.8243,1.9048,1.9725,2.0303,2.0706,2.0379,1.9429,1.9247,1.9099,1.8925,1.8623,1.7816,1.6551,0.0,0.0,1.6413,1.7046,1.7688,1.8329,1.8971,1.9292,1.9292,1.9292,1.9292,1.9292,1.9292,1.9292,1.9292,1.9292,1.9072,1.8604,1.8045,1.7211,0.0,0.0,0.0,0.0,0.0,0.0,0.0,0.0,0.0,0.0,0.0,1.238,0.0,0.0,0.0,0.0,1.4274,1.4718,1.4833,1.5124,0.0,0.0,0.0,0.0,0.0,0.0,0.0,1.5576,1.6475,1.7202,1.7605,1.7765,1.7812,1.7742,1.7529,1.7367,1.737,0.0,1.8305,1.86,1.8892,1.9288,1.9802,1.943,1.9414,2.0496,2.0824,2.0972,2.0969,2.1174,2.1326,2.1326,2.1335,2.1312,2.1234,2.0502,1.9823,1.9675,1.9646,1.9637,1.9637,1.9793,1.9936,2.1799,2.1517,1.9864,1.9313,1.9575,1.9578,1.9802,2.0219,2.0219,2.023,2.0194,1.9766,1.9335,1.8887,1.8023,0.0,0.0,1.8462,1.9538,2.0717,2.0662,2.1093,2.1861,2.132,2.0757,2.0169,1.9811,1.9573,1.9437,1.8664,1.8451,1.8819,1.8413,1.799,1.7596,1.7944,1.832,1.8715,1.909,1.9292,1.9292,1.9292,1.9292,1.9292,1.9292,1.9292,1.9292,1.9292,1.9292,1.9274,1.8586,1.799,1.7514,0.0,0.0,0.0,0.0,0.0,0.0,0.0,0.0,0.0,0.0,0.0,0.0,0.0,0.0,0.0,1.5947,0.0,1.69,1.6203,0.0,0.0,0.0,1.4976,1.5963,1.5865,1.6246,1.7561,0.0,0.0,0.0,0.0,1.9373,1.9211,1.9614,1.9753,1.9388,1.9937,2.039,2.0027,2.0189,2.03,2.0408,2.0994,2.169,2.2431,2.2833,2.2654,2.2643,2.2672,2.2768,2.2649,2.2789,2.27,2.2534,2.2303,2.2063,2.0603,2.0432,2.0454,2.0434,2.0471,2.0477,2.2096,2.2036,2.1601,2.1282,2.1085,2.1079,2.1142,2.1234,2.1251,2.1251,2.1223,2.1114,2.1022,2.0902,2.0683,2.0345,1.9991,2.0208,2.0254,2.0182,2.0071,2.0127,2.033,2.0149,2.0085,2.011,2.0037,2.0246,2.0688,1.9881,1.9668,2.0024,1.9375,1.8659,1.799,1.8357,1.8604,1.8705,1.909,1.9292,1.9292,1.9292,1.9292,1.9292,1.9292,1.9292,1.9292,1.9292,1.9292,1.9292,1.9117,1.8705,1.799,1.6625,0.0,0.0,0.0,0.0,0.0,0.0,0.0,0.0,0.0,1.3641,1.3449,0.0,1.5651,0.0,1.6674,1.7551,1.7376,1.7432,0.0,0.0,1.6375,1.6531,1.7469,1.7704,1.8007,1.8583,1.9204,1.9583,1.9637,2.0109,2.0541,2.0771,2.0293,1.9851,1.9726,2.0272,2.0814,2.0999,2.1159,2.1301,2.1414,2.1608,2.1943,2.2307,2.2209,2.2058,2.2058,2.2046,2.2046,2.2058,2.2069,2.2034,2.2063,2.1835,2.1645,2.1253,2.1455,2.1681,2.1502,2.1426,2.1367,2.3577,2.3495,2.3475,2.3199,2.2664,2.2121,2.1879,2.1879,2.1871,2.1871,2.1862,2.1882,2.1851,2.1871,2.1882,2.1697,2.1433,2.1424,2.1372,2.1278,2.1223,2.1291,2.1493,2.145,2.1377,2.1239,2.0881,2.0988,2.1382,2.0584,2.0475,2.1049,2.0245,1.9608,1.9193,1.9026,1.8971,1.8971,1.9182,1.9383,1.9567,1.9576,1.9576,1.9567,1.9383,1.9209,1.9035,1.8861,1.876,1.8779,1.8769,1.8567,1.81,1.6964,1.6111,0.0,0.0,0.0,0.0,0.0,0.0,0.0,0.0,0.0,0.0,0.0,1.6643,0.0,1.7504,0.0,1.7807,1.7972,1.8063,1.7972,1.7824,1.8105,1.9061,1.9214,1.9426,1.9877,2.0322,2.0625,2.0679,2.1003,2.1243,2.1396,2.1157,2.0861,2.0633,2.1069,2.1526,2.1649,2.1953,2.2269,2.2512,2.2553,2.2676,2.2994,2.2966,2.2869,2.2869,2.286,2.2869,2.2882,2.2869,2.286,2.2848,2.276,2.2651,2.2687,2.2873,2.2699,2.1841,2.1629,2.156,2.5336,2.5171,2.518,2.4847,2.4223,2.3113,2.2511,2.2303,2.237,2.2444,2.2537,2.2564,2.2572,2.2581,2.257,2.2561,2.2572,2.2561,2.2794,2.3167,2.3115,2.3276,2.3681,2.3586,2.3326,2.2903,2.2219,2.1971,2.2085,2.1258,2.1151,2.174,2.0927,2.0517,2.0478,1.9796,1.9412,1.9292,1.9292,1.9466,1.9803,1.9812,1.9821,1.9813,1.9484,1.9118,1.8714,1.8366,1.8136,1.81,1.81,1.8137,1.8146,1.7083,1.6487,0.0,1.5112,0.0,0.0,0.0,0.0,0.0,0.0,0.0,0.0,1.7055,1.7559,1.7651,1.8283,1.8585,1.8338,1.8329,1.864,1.9347,1.9307,1.9566,2.0421,2.0424,2.0535,2.1112,2.1179,2.1326,2.1604,2.1698,2.1618,2.1604,2.1912,2.1976,2.1694,2.1998,2.2295,2.2185,2.2665,2.3081,2.339,2.3499,2.3633,2.4048,2.4038,2.4152,2.4032,2.4044,2.4097,2.4097,2.4014,2.4066,2.4143,2.405,2.4047,2.3915,2.3927,2.3493,2.2255,2.1881,2.1695,2.5629,2.5578,2.5578,2.5513,2.5382,2.5144,2.4194,2.2871,2.3248,2.3745,2.4301,2.4484,2.4551,2.4562,2.4551,2.4561,2.4542,2.4551,2.4596,2.4667,2.418,2.401,2.4038,2.3588,2.3637,2.4116,2.3999,2.389,2.3822,2.3012,2.2312,2.1715,2.0915,2.0501,0.0,0.0,0.0,0.0,1.9292,1.9338,1.9411,1.9402,1.9421,1.9411,1.9328,0.0,1.8723,1.8641,1.843,1.8128,1.81,0.0,0.0,0.0,0.0,0.0,0.0,0.0,0.0,0.0,0.0,0.0,1.7018,1.7046,1.6826,1.722,1.7779,1.8403,1.8604,1.8934,1.9501,1.9565,1.9739,2.0217,2.025,2.0433,2.0923,2.0955,2.1109,2.1533,2.1588,2.1606,2.1687,2.1698,2.1813,2.2071,2.2236,2.2322,2.2373,2.2604,2.288,2.3176,2.3426,2.364,2.3727,2.3731,2.383,2.4093,2.3994,2.3904,2.3895,2.3892,2.3879,2.3892,2.3879,2.3892,2.387,2.3696,2.3621,2.3559,2.358,2.3514,2.3383,2.3348,2.3273,2.6452,0.0,2.6452,2.6253,0.0,2.5955,2.5221,2.4068,2.4484,2.4896,2.5247,2.5346,2.5383,2.5385,2.5287,2.5258,2.5249,2.512,2.512,2.5239,2.4922,2.4834,2.4933,2.4628,2.4687,2.5069,2.4684,2.4675,2.4931,2.4171,2.3513,2.2959,2.2177,2.1654,2.1381,2.0986,2.0501,1.9896,1.9896,1.9877,1.9887,1.9877,1.9887,1.9877,0.0,0.0,0.0,0.0,0.0,0.0,0.0,0.0,0.0,0.0,0.0,1.8366,1.7651,1.7367,1.7743,1.7605,1.7669,1.8054,1.8448,1.843,1.7825,1.8329,1.8861,1.9264,1.9465,1.9749,2.0142,2.0208,2.0353,2.074,2.0804,2.096,2.1315,2.1409,2.148,2.1643,2.1698,2.1762,2.1984,2.2002,2.2156,2.2529,2.2781,2.2926,2.3046,2.314,2.3343,2.3776,2.3922,2.4007,2.4003,2.4003,2.4016,2.4152,2.409,2.4003,2.4003,2.4003,2.3991,2.4003,2.4003,2.4003,2.3991,2.3892,2.3783,2.3792,2.3792,2.382,2.3966,2.3783,2.3571,2.719,2.719,2.719,2.6899,2.6378,2.6389,2.6041,2.5477,0.0,0.0,0.0,2.5941,2.597,2.596,2.5792,2.5725,2.5704,2.5475,2.5495,2.5704,2.5735,2.5814,2.5981,2.596,2.5972,2.5931,2.5287,2.5139,2.5447,2.4811,2.436,2.4048,2.341,2.2947,2.2665,2.2099,2.1663,2.1333,2.08,2.051,2.051,2.051,2.051,2.051,2.0105,1.9867,1.9804,1.9411,1.9154,1.9091,1.9081,1.9127,1.9163,1.8879,1.8713,1.876,1.8201,1.8137,1.8852,1.8603,1.8732,1.9457,1.9823,1.9731,1.9072,1.963,2.0004,2.0004,2.0308,2.0529,2.0613,2.0611,2.0756,2.1161,2.1207,2.1354,2.1654,2.1698,2.1689,2.1696,2.1771,2.1916,2.224,2.2357,2.2549,2.295,2.3242,2.3535,2.3593,2.3623,2.3746,2.4076,2.4155,2.4198,2.4189,2.4177,2.4198,2.4198,2.4189,2.4198,2.4198,2.4198,2.4198,2.4186,2.4198,2.4189,2.4198,2.4164,2.4198,2.4198,2.4198,2.4208,2.4256,2.3963,2.3691,2.719,2.719,2.719,2.7134,2.7066,2.7045,2.7,2.6857,2.6362,2.6369,2.6749,2.6911,2.6982,2.6984,2.6952,2.6953,2.6942,2.6923,2.6921,0.0,2.6942,2.6952,2.6993,2.6993,2.6993,2.6972,2.6859,2.608,2.4798,2.4577,2.409,2.3375,2.3148,2.3468,2.4159,2.4486,2.4596,2.4492,2.1873,2.051,2.051,2.051,2.051,2.0482,2.0135,1.972,1.9383,1.9036,1.8622,1.8283,1.8265,1.843,1.876,1.8769,1.8861,1.9172,1.9109,1.9246,1.9704,1.9684,1.9839,2.0261,2.0391,2.0363,2.0262,2.0344,2.0408,2.0418,2.05,2.0647,2.096,2.1025,2.1179,2.1535,2.1617,2.1643,2.1707,2.1725,2.1735,2.1723,2.202,2.2229,2.2357,2.2632,2.297,2.3328,2.3511,2.3651,2.3963,2.4094,2.4125,2.4192,2.4198,2.4198,2.4198,2.4198,2.4198,2.4198,2.4198,2.4198,2.4198,2.4198,2.4198,2.4198,2.4198,2.4198,2.4198,2.4198,2.4235,2.4244,2.4275,2.4355,2.4658,2.4608,2.4457,2.7301,2.72,2.719,2.719,2.719,2.719,2.719,2.7177,2.6878,2.6871,2.7076,2.7159,2.719,2.719,2.7088,2.7047,2.7036,2.6922,2.6922,2.7025,2.7035,2.7098,2.719,2.719,2.719,2.719,2.719,2.6777,2.6019,2.5967,2.5506,2.4595,2.4103,2.407,2.4477,2.4717,2.4831,2.4799,2.395,2.3229,2.2752,2.2722,2.2603,2.2335,2.1681,2.1332,2.1352,2.069,2.0242,2.0059,2.004,2.0132,2.0306,2.0135,2.009,2.0245,2.0081,2.0025,2.0226,2.0215,2.0419,2.0785,2.0822,2.0923,2.1141,2.0949,2.0811,2.084,2.1013,2.1224,2.1396,2.1425,2.1496,2.1689,2.1698,2.1698,2.1725,2.1918,2.2039,2.2055,2.2375,2.2717,2.2936,2.3126,2.3382,2.3785,2.3868,2.3975,2.4183,2.4198,2.4198,2.4198,2.4198,2.4198,2.4198,2.4198,2.4198,2.4198,2.4198,2.4198,2.4198,2.4198,2.4198,2.4198,2.4198,2.4198,2.4208,2.4379,2.4489,2.4544,2.4744,2.4933,2.5086,2.5131,2.5014,2.7515,2.7353,2.7302,2.724,2.72,2.719,2.719,2.719,2.719,2.719,2.719,2.719,2.719,2.718,2.7036,2.6975,2.6954,2.6809,2.6809,2.6953,2.6964,2.7057,2.719,2.719,2.719,2.719,2.719,2.7098,2.6911,2.689,2.6528,2.5819,2.5327,2.5105,2.5126,2.5232,2.5285,2.5338,2.6158,2.5951,2.4636,2.4573,2.4397,2.4012,2.324,2.2969,2.3212,2.2492,2.1962,2.1764,2.1742,2.1663,2.1427,2.1141,2.096,2.0941,2.0685,2.0546,2.0618,2.072,2.0903,2.1196,2.1234,2.1361,2.1625,2.1416,2.1234,2.126,2.1498,2.168,2.168,2.1678,2.1698,2.1698,2.1801,2.1854,2.1872,2.2181,2.243,2.2476,2.2785,2.3169,2.3416,2.3596,2.3791,2.4076,2.4198,2.4198,2.4198,2.4198,2.4198,2.4198,2.4198,2.4198,2.4198,2.4198,2.4198,2.4198,2.4198,2.4198,2.4198,2.4198,2.4198,2.422,2.4312,2.4364,2.437,2.4654,2.4893,2.4957,2.5131,2.5392,2.5508,2.5645,2.5554,2.7841,2.78,2.7564,2.7371,2.7221,2.72,2.721,2.719,2.719,2.719,2.719,2.719,2.719,2.719,2.7168,2.7159,2.7159,2.7149,2.7159,2.717,2.717,2.719,2.719,2.719,2.719,2.719,2.719,2.6797,2.6133,2.6028,2.5924,2.5903,2.656,2.687,2.6957,2.7363,2.7633,2.7677,2.8189,2.7159,2.47,2.4509,2.451,2.4447,2.4012,2.3774,2.3804,2.3381,2.2736,2.1974,2.1866,2.1512,2.0764,2.0592,2.0564,2.0573,2.0537,2.0668,2.1015,2.1377,2.1579,2.1634,2.1625,2.1634,2.1698,2.1661,2.1643,2.1652,2.1691,2.1698,2.1707,2.1725,2.1762,2.1837,2.2064,2.2238,2.2304,2.2613,2.2837,2.2837,2.3197,2.3474,2.3575,2.3862,2.4116,2.4171,2.4198,2.4198,2.4198,2.4198,2.4198,2.4198,2.4198,2.4198,2.4198,2.4198,2.4198,2.4198,2.4198,2.4229,2.4248,2.4253,2.4217,2.4468,2.4547,2.4724,2.4829,2.5058,2.5337,2.5352,2.5443,2.5548,2.5866,2.6178,2.6195,2.8022,2.7893,2.779,2.7606,2.7391,2.7381,2.7301,2.72,2.719,2.719,2.719,2.719,2.719,2.719,2.719,2.719,2.719,2.719,2.719,2.719,2.719,2.719,2.719,2.719,2.719,2.719,2.719,2.7016,2.6694,2.6621,2.6642,2.6663,2.7035,2.719,2.7223,2.7427,2.7531,2.7542,2.7704,2.7235,2.6317,2.6421,2.6421,2.5999,2.4914,2.4261,2.4114,2.3071,2.2169,2.1822,2.179,2.1616,2.1245,2.1204,2.1204,2.1204,2.1224,2.1277,2.1443,2.1606,2.1698,2.1698,2.1698,2.1698,2.1698,2.1698,2.178,2.1982,2.1833,2.178,2.202,2.2055,2.2137,2.2375,2.2565,2.2659,2.2657,2.3002,2.3251,2.3279,2.3636,2.3904,2.3935,2.4067,2.4189,2.4198,2.4198,2.4198,2.4198,2.4198,2.4198,2.4198,2.4198,2.4198,2.4208,2.4198,2.422,2.422,2.4198,2.4238,2.4511,2.4566,2.4608,2.4854,2.5034,2.515,2.5159,2.5471,2.576,2.5774,2.599,2.6164,2.632,2.6463,2.6453,2.8201,2.8072,2.8012,2.7787,2.7502,2.7502,2.7381,2.721,2.719,2.7279,2.7405,2.7427,2.7497,2.7566,2.7326,2.719,2.7201,2.7348,2.7427,2.7439,2.7543,2.7602,2.7602,2.7612,2.7612,2.7622,2.7635,2.7623,2.7601,2.7463,2.7405,2.7405,2.7259,2.719,2.719,2.719,2.719,2.719,2.719,2.719,2.7215,2.7587,2.7598,2.711,2.5936,2.5242,2.52,2.3671,2.2699,2.2468,2.2235,2.1956,2.1729,2.1698,2.1698,2.1698,2.1698,2.1698,2.1698,2.1698,2.1698,2.1698,2.1698,2.1753,2.1824,2.1863,2.2055,2.2385,2.2181,2.2172,2.2394,2.2478,2.2604,2.2876,2.2986,2.3059,2.3087,2.344,2.37,2.3727,2.3953,2.4198,2.4189,2.4189,2.4198,2.4198,2.4198,2.4198,2.4198,2.4211,2.4238,2.4324,2.4373,2.4373,2.4364,2.44,2.4404,2.4532,2.4584,2.4694,2.4898,2.4935,2.4985,2.5172,2.5411,2.5576,2.56,2.5866,2.6141,2.6205,2.6371,2.6559,2.6554,2.6596,2.6596,2.848,2.8453,2.8281,2.7997,2.7524,2.7558,2.7425,2.7303,2.7258,2.7497,2.793,2.7953,2.8206,2.8484,2.7639,2.7224,2.7292,2.7758,2.7953,2.7999,2.8367,2.8598,2.8643,2.8643,2.8597,2.8505,2.8472,2.8517,2.8518,2.8161,2.7965,2.7921,2.7478,2.7215,2.7239,2.7228,2.7212,2.7227,2.7203,2.719,2.719,2.7245,2.7256,2.718,2.7025,2.6788,2.6736,2.6029,2.5105,2.4338,2.3378,2.2567,2.182,2.1698,2.1698,2.1698,2.1698,2.1698,2.1698,2.1725,2.1735,2.1725,2.1789,2.1881,2.2229,2.2277,2.2449,2.2831,2.2842,2.284,2.2916,2.2906,2.2901,2.3007,2.3279,2.3444,2.348,2.3831,2.4134,2.4134,2.4162,2.4198,2.4198,2.4198,2.4198,2.4198,2.4198,2.4217,2.4253,2.4235,2.44,2.4672,2.477,2.477,2.4779,2.4773,2.4951,2.5052,2.5076,2.5278,2.5333,2.5379,2.5407,2.5521,2.5796,2.598,2.604,2.6196,2.6435,2.6527,2.6508,2.6609,2.6618,2.6618,2.6618,2.9198,2.9508,2.9447,2.9147,2.8739,2.8718,2.8508,2.8172,2.8162,2.8254,2.8404,2.831,2.8348,2.8474,2.7961,2.7876,2.8174,2.8378,2.8436,2.847,2.862,2.8689,2.8689,2.8689,2.8689,2.8689,2.8689,2.8625,2.8485,2.8153,2.7988,2.7976,2.7808,2.7718,2.7693,2.7548,2.7452,2.744,2.729,2.719,2.7203,2.719,2.719,2.7129,2.6061,2.5189,2.4585,2.3671,2.3029,2.271,2.2378,2.2067,2.1742,2.1698,2.1698,2.1698,2.1698,2.1698,2.1725,2.1947,2.2094,2.2101,2.2327,2.2501,2.2638,2.2705,2.2837,2.3178,2.33,2.3382,2.3599,2.3468,2.3413,2.3706,2.3853,2.3923,2.3975,2.4107,2.4198,2.4198,2.4198,2.4198,2.4198,2.4198,2.4198,2.4198,2.4198,2.4318,2.4526,2.4593,2.4728,2.5058,2.5186,2.5278,2.5554,2.5315,2.5254,2.5306,2.5388,2.5554,2.5645,2.5756,2.5801,2.6022,2.627,2.6297,2.6343,2.6371,2.6618,2.6618,2.6618,2.6618,2.6618,2.6618,2.6618,2.9771,3.0062,3.0086,2.9779,2.929,2.928,2.8958,2.8496,2.8474,2.8565,2.8658,2.855,2.8574,2.871,2.8566,2.8633,2.8918,2.8793,2.868,2.8714,2.8873,2.8963,2.8963,2.8952,2.8941,2.8952,2.8963,2.8898,2.8721,2.8409,2.822,2.8231,2.8086,2.7986,2.7951,2.7812,2.774,2.7694,2.756,2.7465,2.7452,2.7474,2.7305,2.6894,2.5798,2.48,2.4005,2.3084,2.2433,2.2178,2.1876,2.1698,2.1698,2.1698,2.1762,2.1863,2.1888,2.1952,2.2101,2.2327,2.2494,2.2504,2.273,2.2929,2.3071,2.3096,2.3288,2.3596,2.3715,2.3877,2.4051,2.3908,2.3859,2.4143,2.4198,2.4198,2.4198,2.4189,2.4198,2.4198,2.4198,2.4198,2.4198,2.4198,2.4263,2.4364,2.4391,2.4553,2.4893,2.4999,2.5128,2.5489,2.5594,2.5774,2.6013,2.5948,2.5861,2.5893,2.5838,2.5948,2.5994,2.6104,2.6233,2.6499,2.6618,2.6618,2.6618,2.6618,2.6618,2.6618,2.6618,2.6618,2.6618,2.6618,2.6618,3.0132,3.0204,3.0131,2.9835,2.9292,2.9217,2.8706,2.8284,2.8163,2.8443,2.8791,2.8735,2.8947,2.9317,2.926,2.9395,2.9284,2.8903,2.8746,2.8813,2.924,2.9442,2.9431,2.942,2.942,2.9431,2.9464,2.9452,2.934,2.8869,2.8645,2.8601,2.8255,2.8099,2.802,2.802,2.7997,2.7985,2.794,2.794,2.7986,2.7917,2.7568,2.6853,2.6599,2.6258,2.5708,2.486,2.3964,2.3181,2.2386,2.179,2.192,2.1841,2.1906,2.2238,2.2293,2.2494,2.2782,2.2865,2.2904,2.2922,2.295,2.319,2.3456,2.352,2.3669,2.4021,2.4125,2.418,2.418,2.4165,2.4156,2.4198,2.4198,2.4198,2.4198,2.4198,2.4198,2.4198,2.4198,2.4198,2.422,2.4275,2.4419,2.4697,2.4797,2.4935,2.5306,2.5407,2.5572,2.5866,2.6003,2.6141,2.6389,2.6591,2.6572,2.6545,2.6462,2.6444,2.6389,2.6444,2.6426,2.6618,2.6618,2.6618,2.6618,2.6618,2.6618,2.6618,2.6618,2.6618,2.6618,2.6618,2.6618,3.119,3.1202,3.1212,3.096,3.0566,3.0245,2.9879,2.9477,2.9184,2.9138,2.9205,2.9056,2.9064,2.9141,2.9082,2.9024,2.9002,2.8847,2.8941,2.9215,2.9407,2.9497,2.9497,2.9508,2.9508,2.9474,2.9301,2.9221,2.9153,2.8905,2.8769,2.8725,2.8615,2.8549,2.8505,2.8364,2.8277,2.8266,2.8087,2.7986,2.7986,2.7997,2.7843,2.7613,2.7558,2.7184,2.6366,2.5507,2.4937,2.4571,2.4331,2.3942,2.3385,2.282,2.2604,2.2693,2.2712,2.2748,2.2892,2.3169,2.3306,2.3373,2.3602,2.3825,2.3966,2.3963,2.403,2.418,2.4198,2.4198,2.4198,2.4198,2.4198,2.4198,2.4198,2.4198,2.4198,2.4198,2.4198,2.4198,2.4198,2.4309,2.4547,2.4608,2.4773,2.5122,2.5214,2.5361,2.5704,2.5824,2.5967,2.6325,2.6389,2.6389,2.6527,2.6618,2.6618,2.6618,2.6618,2.6618,2.6618,2.6618,2.6618,2.6618,2.6618,2.6618,2.6618,2.6618,2.6618,2.6618,2.6618,2.6618,2.6618,2.6618,2.6618,3.1705,3.1705,3.1705,3.1485,3.115,3.0825,3.0521,3.0193,2.9897,2.976,2.9703,2.9393,2.9244,2.9186,2.8932,2.8815,2.8803,2.8803,2.8955,2.9198,2.9232,2.9232,2.9244,2.9232,2.9244,2.9209,2.9059,2.8989,2.8989,2.8873,2.8803,2.8815,2.8803,2.8804,2.8781,2.8633,2.8537,2.8527,2.8386,2.8288,2.8299,2.8299,2.8288,2.8288,2.8299,2.7996,2.7388,2.6853,2.6181,2.549,2.5294,2.4917,2.4146,2.3602,2.3289,2.3153,2.3142,2.3187,2.3355,2.3648,2.3755,2.3834,2.4051,2.4192,2.4202,2.4198,2.4198,2.4198,2.4198,2.4198,2.4198,2.4198,2.4198,2.4198,2.4198,2.4198,2.4198,2.4198,2.4299,2.4373,2.4446,2.4639,2.4893,2.5018,2.5196,2.5521,2.5618,2.5765,2.6099,2.621,2.6416,2.6536,2.6545,2.6554,2.6591,2.6618,2.6618,2.6618,2.6618,2.6618,2.6618,2.6618,2.6618,2.6618,2.6618,2.6618,2.6618,2.6618,2.6618,2.6618,2.6618,2.6618,2.6618,2.6618,2.6618,3.1705,3.1705,3.1705,3.1428,3.1015,3.0926,3.0645,3.0306,3.0182,3.0148,3.008,2.9737,2.9543,2.9451,2.9117,2.8919,2.885,2.8803,2.8827,2.8861,2.8873,2.8885,2.8885,2.8896,2.8896,2.8861,2.8838,2.8827,2.8838,2.8804,2.8803,2.8803,2.8803,2.8803,2.8804,2.8781,2.8772,2.8762,2.8762,2.874,2.874,2.8762,2.875,2.874,2.874,2.8684,2.8581,2.8443,2.7565,2.5805,2.5533,2.5127,2.4367,2.4131,2.3883,2.3568,2.355,2.3736,2.4058,2.4097,2.4134,2.4134,2.4152,2.4198,2.4198,2.4198,2.4198,2.4198,2.4198,2.4198,2.4198,2.4198,2.422,2.4248,2.4312,2.4299,2.4257,2.4303,2.4529,2.4764,2.4843,2.4985,2.5374,2.5425,2.5627,2.5916,2.6022,2.6205,2.6389,2.6508,2.6582,2.6609,2.6596,2.6618,2.6618,2.6618,2.6618,2.6618,2.6618,2.6618,2.6618,2.6618,2.6618,2.6618,2.6618,2.6618,2.6618,2.6618,2.6618,2.6618,2.6618,2.6618,2.6618,2.6618,2.6618,3.1705,3.1705,3.1705,3.1629,3.1428,3.1071,3.0836,3.0679,3.0352,3.0284,3.0182,3.0068,3.0011,2.9943,2.9531,2.9324,2.9244,2.8955,2.8803,2.8803,2.8803,2.8803,2.8803,2.8803,2.8803,2.8803,2.8803,2.8803,2.8803,2.8803,2.8803,2.8803,2.8803,2.8803,2.8803,2.8803,2.8803,2.8803,2.8803,2.8803,2.8803,2.8803,2.8803,2.8803,2.8803,2.8803,2.8803,2.8803,2.8309,2.7121,2.6445,2.5829,2.5061,2.4553,2.4212,2.4009,2.399,2.4039,2.4162,2.4198,2.4198,2.4198,2.4198,2.4198,2.4198,2.4198,2.4198,2.4198,2.4198,2.4198,2.4198,2.4208,2.433,2.4581,2.4663,2.4685,2.4682,2.4915,2.5144,2.5223,2.5242,2.5447,2.5714,2.5861,2.5985,2.6284,2.6403,2.6435,2.6572,2.6596,2.6596,2.6596,2.6596,2.6596,2.6618,2.6618,2.6618,2.6618,2.6618,2.6618,2.6618,2.6618,2.6618,2.6618,2.6618,2.6618,2.6618,2.6618,2.6618,2.6618,2.6618,2.6618,2.6618,2.6618,2.6618,3.1705,3.1705,3.1705,3.1705,3.1673,3.1362,3.1239,3.1195,3.0948,3.0825,3.0791,3.0589,3.0499,3.0454,3.0011,2.9817,2.9737,2.9301,2.9116,2.9058,2.8885,2.8815,2.8803,2.8803,2.8803,2.8803,2.8803,2.8803,2.8803,2.8803,2.8803,2.8803,2.8803,2.8803,2.8803,2.8803,2.8803,2.8803,2.8803,2.8803,2.8803,2.8803,2.8803,2.8803,2.8803,2.8803,2.8803,2.8803,2.856,2.8106,2.767,2.6982,2.5914,2.5428,2.4885,2.4338,2.4198,2.4189,2.4198,2.4198,2.4198,2.4198,2.4198,2.4198,2.4198,2.4198,2.4198,2.4198,2.4198,2.4198,2.4238,2.4336,2.4627,2.4994,2.5192,2.5232,2.5086,2.5219,2.5453,2.5572,2.5664,2.5815,2.62,2.6233,2.6361,2.6527,2.6572,2.6582,2.6609,2.6596,2.6509,2.6449,2.6476,2.6499,2.649,2.649,2.66,2.6618,2.6618,2.6618,2.6618,2.6618,2.6618,2.6618,2.6618,2.6618,2.6618,2.6618,2.6618,2.6618,2.6618,2.6618,2.6618,2.6618,2.6618,3.1705,3.1705,3.1705,3.1705,3.1705,3.1694,3.1651,3.1683,3.1617,3.1606,3.1528,3.1172,3.0993,3.0937,3.0499,3.0261,3.025,2.9783,2.9543,2.9336,2.9047,2.8803,2.8803,2.8803,2.8803,2.8803,2.8803,2.8803,2.8803,2.8803,2.8803,2.8803,2.8803,2.8803,2.8803,2.8803,2.8803,2.8803,2.8803,2.8803,2.8803,2.8803,2.8803,2.8803,2.8803,2.8803,2.8803,2.8803,2.8757,2.8792,2.8734,2.7682,2.654,2.6312,2.5633,2.4514,2.4198,2.4198,2.4198,2.4198,2.4198,2.4198,2.4198,2.4198,2.4198,2.4198,2.4198,2.4198,2.4226,2.4345,2.4496,2.4709,2.5086,2.5466,2.5796,2.5851,2.5649,2.5526,2.5677,2.5998,2.604,2.6251,2.6472,2.6618,2.6609,2.6572,2.6618,2.6618,2.6545,2.6449,2.6315,2.6132,2.6224,2.6361,2.6361,2.6361,2.6508,2.6618,2.6618,2.6618,2.6618,2.6618,2.6618,2.6618,2.6618,2.6618,2.6618,2.6618,2.6618,2.6618,2.6618,2.6618,2.6618,2.6618,2.6618,3.1705,3.1705,3.1705,3.1705,3.1705,3.1705,3.1705,3.1705,3.1705,3.1705,3.1672,3.1573,3.1506,3.1473,3.0982,3.0735,3.0691,3.0238,2.9863,2.9451,2.9013,2.8827,2.8803,2.8803,2.8803,2.8803,2.8803,2.8803,2.8803,2.8803,2.8803,2.8803,2.8803,2.8803,2.8803,2.8803,2.8803,2.8803,2.8803,2.8803,2.8803,2.8803,2.8803,2.8803,2.8803,2.8803,2.8803,2.8803,2.8803,2.8675,2.8175,2.7258,2.6073,2.5671,2.5157,2.4498,2.4198,2.4198,2.4198,2.4198,2.4198,2.4198,2.4198,2.4198,2.4198,2.4217,2.4208,2.4253,2.4483,2.4773,2.508,2.548,2.57,2.5907,2.62,2.6407,2.6339,2.6298,2.6343,2.6416,2.6453,2.6517,2.6586,2.6609,2.6618,2.6618,2.66,2.66,2.6481,2.6315,2.6114,2.5916,2.6169,2.6315,2.6242,2.6306,2.6517,2.6618,2.6618,2.6618,2.6618,2.6618,2.6618,2.6618,2.6618,2.6618,2.6618,2.6618,2.6618,2.6618,2.6618,2.6618,2.6618,2.6618,2.6618,3.1705,3.1705,3.1705,3.1705,3.1705,3.1705,3.1705,3.1705,3.1705,3.1705,3.1705,3.1705,3.1705,3.1683,3.1406,3.1273,3.1094,3.0499,2.9943,2.9485,2.9024,2.8815,2.8803,2.8803,2.8803,2.8803,2.8803,2.8803,2.8803,2.8803,2.8803,2.8803,2.8803,2.8803,2.8803,2.8803,2.8803,2.8803,2.8803,2.8803,2.8803,2.8803,2.8803,2.8803,2.8803,2.8803,2.8803,2.8803,2.8803,2.8617,2.8022,2.7091,2.6022,2.5501,2.4937,2.4362,2.4198,2.4198,2.4198,2.4198,2.4198,2.4229,2.4211,2.4198,2.4263,2.4355,2.4471,2.4575,2.4856,2.5242,2.5627,2.5815,2.6035,2.6279,2.6472,2.6609,2.6618,2.6618,2.6618,2.6618,2.6591,2.6591,2.6609,2.6618,2.6591,2.6582,2.6301,2.6292,2.6274,2.6109,2.5902,2.5838,2.615,2.6279,2.6169,2.627,2.6545,2.6618,2.6618,2.6618,2.6618,2.6618,2.6618,2.6618,2.6618,2.6618,2.6618,2.6618,2.6618,2.6618,2.6618,2.6618,2.6618,2.6618,2.6618,3.1705,3.1705,3.1705,3.1705,3.1705,3.1705,3.1705,3.1705,3.1705,3.1705,3.1705,3.1705,3.1705,3.1694,3.1683,3.1694,3.1417,3.0668,2.9966,2.9646,2.9047,2.885,2.8803,2.8803,2.8803,2.8803,2.8803,2.8803,2.8803,2.8803,2.8803,2.8803,2.8803,2.8803,2.8803,2.8803,2.8803,2.8803,2.8803,2.8803,2.8803,2.8803,2.8803,2.8803,2.8803,2.8803,2.8803,2.8792,2.8745,2.8583,2.7911,2.7193,2.644,2.573,2.4962,2.4273,2.4284,2.4355,2.44,2.441,2.4468,2.4395,2.4422,2.441,2.4511,2.4713,2.4847,2.5012,2.5251,2.5645,2.6035,2.6145,2.6301,2.6499,2.66,2.6618,2.6618,2.6618,2.6618,2.6618,2.6618,2.6618,2.6618,2.6609,2.6582,2.6481,2.6182,2.5989,2.598,2.5916,2.575,2.5778,2.6068,2.6357,2.6306,2.6315,2.6582,2.6618,2.6618,2.6618,2.6618,2.6618,2.6618,2.6618,2.6618,2.6618,2.6618,2.6618,2.6618,2.6618,2.6618,2.6618,2.6618,2.6618,2.6618,3.1705,3.1705,3.1705,3.1705,3.1705,3.1705,3.1705,3.1705,3.1705,3.1705,3.1705,3.1705,3.1705,3.1705,3.1705,3.1705,3.1473,3.069,3.0148,2.9875,2.9243,2.8815,2.8927,2.896,2.8904,2.8803,2.8904,2.8994,2.8814,2.8803,2.8803,2.8803,2.8803,2.8803,2.8803,2.8803,2.8803,2.8803,2.8803,2.8803,2.8803,2.8803,2.8803,2.8803,2.8803,2.8803,2.8792,2.8757,2.8501,2.7855,2.7412,2.6793,2.6169,2.5606,2.4989,2.4544,2.4566,2.47,2.4718,2.4975,2.5153,2.5209,2.5126,2.5144,2.5159,2.5242,2.5315,2.5443,2.5682,2.6058,2.6449,2.6453,2.6508,2.6609,2.6618,2.6591,2.6582,2.6563,2.6517,2.6444,2.6508,2.6554,2.649,2.6389,2.6251,2.6104,2.587,2.5805,2.5861,2.5765,2.5636,2.5778,2.5998,2.6279,2.6467,2.6508,2.6618,2.6618,2.6618,2.6618,2.6618,2.6618,2.6618,2.6618,2.6618,2.6618,2.6618,2.6618,2.6618,2.6618,2.6618,2.6618,2.6618,2.6618,2.6618,3.1705,3.1705,3.1705,3.1705,3.1705,3.1705,3.1705,3.1705,3.1705,3.1705,3.1705,3.1705,3.1705,3.1705,3.1705,3.1705,3.1428,3.0668,3.025,3.0,2.9278,2.9049,2.9308,2.9364,2.9646,2.9849,2.9939,2.9454,2.8859,2.8803,2.8859,2.8803,2.8803,2.8803,2.8803,2.8803,2.8803,2.8803,2.8803,2.8803,2.8803,2.8803,2.8803,2.8803,2.8803,2.8803,2.8766,2.8547,2.8325,2.7858,2.7206,2.6659,2.6183,2.5689,2.521,2.4936,2.5003,2.51,2.5113,2.5315,2.5361,2.5379,2.5416,2.5398,2.5462,2.5563,2.5783,2.6003,2.6123,2.6375,2.6568,2.6609,2.6618,2.6618,2.66,2.6499,2.6361,2.6293,2.6215,2.6123,2.6145,2.6173,2.6219,2.6068,2.5893,2.571,2.5539,2.5594,2.57,2.5691,2.5618,2.5912,2.6154,2.6343,2.655,2.6582,2.6618,2.6618,2.6618,2.6618,2.6618,2.6618,2.6618,2.6618,2.6618,2.6618,2.6618,2.6618,2.6618,2.6618,2.6618,2.6618,2.6618,2.6618,2.6618,3.1705,3.1705,3.1705,3.1705,3.1705,3.1705,3.1705,3.1705,3.1705,3.1705,3.1705,3.1705,3.1705,3.1705,3.1683,3.1639,3.1473,3.0566,3.0193,2.9909,2.9446,2.9386,2.9758,3.0133,3.0349,3.0668,3.0782,3.0394,2.9634,2.9443,2.9229,2.9162,2.9061,2.8904,2.8859,2.8803,2.8803,2.8803,2.8803,2.8803,2.8803,2.8803,2.8803,2.8766,2.8728,2.8663,2.8609,2.8303,2.7968,2.7607,2.7114,2.657,2.6356,2.5931,2.5649,2.5627,2.5572,2.5526,2.5535,2.5664,2.5765,2.5783,2.5691,2.5664,2.5715,2.6003,2.6233,2.6536,2.6586,2.6559,2.6609,2.6609,2.6554,2.6462,2.6435,2.6352,2.6035,2.5861,2.5765,2.571,2.5741,2.5769,2.5801,2.5774,2.56,2.5453,2.5278,2.5429,2.5558,2.57,2.5765,2.6104,2.6343,2.649,2.66,2.66,2.6618,2.6618,2.6618,2.6618,2.6618,2.6618,2.6618,2.6618,2.6618,2.6618,2.6618,2.6618,2.6618,2.6618,2.6618,2.6618,2.6618,2.6618,2.6618,3.1705,3.1705,3.1705,3.1705,3.1705,3.1705,3.1705,3.1705,3.1705,3.1705,3.1639,3.1694,3.1694,3.165,3.165,3.1406,3.0971,3.0431,3.0057,2.9885,2.9748,2.9815,3.0076,3.0611,3.0955,3.1311,3.1219,3.0943,3.0679,3.0668,3.0303,2.9883,2.9736,2.9521,2.915,2.9162,2.8803,2.8859,2.887,2.8859,2.887,2.8893,2.8881,2.8783,2.8571,2.8422,2.8413,2.8045,2.754,2.6931,2.7007,2.668,2.6246,2.6346,2.6426,2.6348,2.6178,2.5934,2.5989,2.615,2.6315,2.6297,2.6361,2.643,2.6366,2.6357,2.6508,2.6572,2.6618,2.6572,2.6531,2.6559,2.6416,2.6219,2.6072,2.5857,2.5572,2.5466,2.5361,2.5177,2.5163,2.5287,2.5388,2.5348,2.5302,2.5155,2.5091,2.526,2.5512,2.5746,2.5958,2.6297,2.6444,2.6572,2.6618,2.6618,2.6618,2.6618,2.6618,2.6618,2.6618,2.6618,2.6618,2.6618,2.6618,2.6618,2.6618,2.6618,2.6618,2.6618,2.6618,2.6618,2.6618,2.6618,2.6618,3.1705,3.1705,3.1705,3.1705,3.1705,3.1705,3.1705,3.1705,3.1705,3.154,3.1362,3.1594,3.155,3.1316,3.125,3.1116,3.0769,3.0193,3.0171,3.0272,3.0215,3.036,3.108,3.1483,3.1749,3.2157,3.2296,3.2414,3.2098,3.1392,3.0782,3.06,3.052,3.0428,2.9905,3.003,3.0064,2.9973,2.9724,2.9454,2.9432,2.9432,2.9408,2.9383,2.8994,2.8785,2.8526,2.7788,2.7298,2.684,2.6911,2.6692,2.6456,2.6499,2.66,2.6564,2.6449,2.6352,2.6371,2.6513,2.6577,2.6618,2.6618,2.6582,2.6609,2.6618,2.6618,2.6618,2.6618,2.6527,2.633,2.626,2.6013,2.582,2.5796,2.5489,2.5269,2.5113,2.4988,2.4777,2.4667,2.4939,2.5104,2.5012,2.5067,2.5091,2.5141,2.5343,2.571,2.6132,2.6325,2.6508,2.6572,2.6609,2.6618,2.6618,2.6618,2.6618,2.6618,2.6618,2.6618,2.6618,2.6618,2.6618,2.6618,2.6618,2.6618,2.6618,2.6618,2.6618,2.6618,2.6618,2.6618,2.6618,2.6618,3.1705,3.1705,3.1705,3.1705,3.1705,3.1705,3.1705,3.1705,3.1705,3.1406,3.1072,3.1183,3.1116,3.0982,3.0926,3.0859,3.0679,3.0171,3.0433,3.0695,3.087,3.1152,3.1761,3.2214,3.2681,3.3293,3.307,3.3093,3.2823,3.2286,3.1623,3.1288,3.1265,3.108,3.1,3.0874,3.0806,3.0759,3.0394,3.0201,3.0167,3.0178,2.9975,2.9711,2.9399,2.903,2.8615,2.7705,2.6996,2.6908,2.6757,2.6613,2.6572,2.6591,2.6618,2.6596,2.6541,2.6563,2.6554,2.66,2.6609,2.6618,2.6618,2.6618,2.6618,2.6618,2.6618,2.6609,2.643,2.6325,2.6187,2.6118,2.5925,2.5787,2.5659,2.5315,2.5067,2.5076,2.5086,2.5052,2.4961,2.4884,2.4948,2.4759,2.4786,2.4957,2.5159,2.5434,2.5875,2.6398,2.6508,2.6618,2.6618,2.6618,2.6618,2.6618,2.6618,2.6618,2.6618,2.6618,2.6618,2.6618,2.6618,2.6618,2.6618,2.6618,2.6618,2.6618,2.6618,2.6618,2.6618,2.6618,2.6618,2.6618,2.6618,3.1705,3.1705,3.1706,3.1729,3.1717,3.1705,3.1718,3.1778,3.1766,3.1502,3.109,3.059,3.0659,3.0816,3.0863,3.0659,3.0307,3.0894,3.1008,3.1163,3.1484,3.1867,3.2365,3.2787,3.3152,3.3269,3.3293,3.3293,3.3269,3.3058,3.2507,3.2145,3.2051,3.1587,3.138,3.1415,3.138,3.1311,3.1058,3.0943,3.0931,3.0835,3.0473,2.957,2.9027,2.8374,2.7382,2.6936,2.6707,2.6711,2.6645,2.6618,2.6618,2.6618,2.6618,2.6618,2.6618,2.6618,2.6618,2.6618,2.6618,2.6618,2.6618,2.6618,2.6618,2.6618,2.6618,2.6591,2.6403,2.6306,2.6288,2.6242,2.5962,2.5769,2.5618,2.5502,2.5315,2.5287,2.5297,2.5328,2.5282,2.519,2.5269,2.519,2.5163,2.5343,2.5673,2.5962,2.6141,2.6554,2.6563,2.6618,2.6618,2.6618,2.6618,2.6618,2.6618,2.6618,2.6618,2.6618,2.6618,2.6618,2.6618,2.6618,2.6618,2.6618,2.6618,2.6618,2.6618,2.6618,2.6618,2.6618,2.6618,2.6618,2.6618,3.1705,3.173,3.2056,3.1996,3.1719,3.2044,3.2189,3.2239,3.2355,3.2339,3.2027,3.1044,3.064,3.0859,3.0779,3.0629,3.0501,3.0874,3.1381,3.1831,3.2181,3.2414,3.2776,3.307,3.3281,3.3293,3.3293,3.3293,3.3293,3.3293,3.3187,3.2893,3.2752,3.2729,3.2484,3.2273,3.2308,3.2192,3.1936,3.168,3.168,3.1631,3.1156,3.0126,2.9656,2.8904,2.7912,2.7018,2.6727,2.6618,2.6618,2.6618,2.6618,2.6618,2.6618,2.6618,2.6618,2.6618,2.6618,2.6618,2.6618,2.6618,2.6618,2.6618,2.6618,2.6618,2.6618,2.6541,2.643,2.6352,2.6164,2.609,2.5916,2.5728,2.5636,2.5631,2.56,2.559,2.5563,2.5609,2.5548,2.5447,2.559,2.5737,2.5741,2.5796,2.6145,2.643,2.6536,2.6618,2.6618,2.6618,2.6618,2.6618,2.6618,2.6618,2.6618,2.6618,2.6618,2.6618,2.6618,2.6618,2.6618,2.6618,2.6618,2.6618,2.6618,2.6618,2.6618,2.6618,2.6618,2.6618,2.6618,2.6618,2.6618,3.1947,3.1996,3.2503,3.2442,3.2044,3.2514,3.2697,3.2654,3.2791,3.2841,3.2688,3.1352,3.0898,3.1051,3.1051,3.0968,3.1105,3.1481,3.2109,3.2468,3.2672,3.2824,3.3116,3.3293,3.3293,3.3293,3.3293,3.3293,3.3293,3.3293,3.3246,3.3234,3.3293,3.3223,3.3223,3.3293,3.3293,3.3116,3.2846,3.2471,3.2459,3.2041,3.1347,3.0285,2.958,2.8642,2.7695,2.6894,2.6668,2.6618,2.6618,2.6618,2.6618,2.6618,2.6618,2.6618,2.6618,2.6618,2.6618,2.6618,2.6618,2.6618,2.6618,2.6618,2.6618,2.6618,2.6618,2.6586,2.6485,2.6343,2.6099,2.6109,2.6104,2.5981,2.6027,2.6018,2.599,2.5972,2.5926,2.5921,2.5884,2.5943,2.5994,2.6159,2.6141,2.6164,2.6315,2.6508,2.6554,2.6618,2.6618,2.6618,2.6618,2.6618,2.6618,2.6618,2.6618,2.6618,2.6618,2.6618,2.6618,2.6618,2.6618,2.6618,2.6618,2.6618,2.6618,2.6618,2.6618,2.6618,2.6618,2.6618,2.6618,2.6618,2.6618,3.2467,3.2551,3.3067,3.2983,3.2622,3.3056,3.3133,3.2946,3.2959,3.2865,3.257,3.1527,3.1302,3.1612,3.1612,3.1565,3.175,3.2332,3.2838,3.2892,3.3045,3.3225,3.3258,3.3293,3.3293,3.3293,3.3293,3.3293,3.3293,3.3293,3.3293,3.3293,3.3293,3.3293,3.3293,3.3293,3.3293,3.3293,3.3224,3.3164,3.293,3.2184,3.1125,3.0068,2.9037,2.8069,2.7125,2.6791,2.6618,2.6618,2.6618,2.6618,2.6618,2.6618,2.6618,2.6618,2.6618,2.6618,2.6618,2.6618,2.6618,2.6618,2.6618,2.6618,2.6618,2.6618,2.6618,2.6586,2.6371,2.6334,2.6279,2.6297,2.6297,2.6302,2.6339,2.6339,2.6311,2.6293,2.6238,2.6192,2.6407,2.6563,2.6554,2.6563,2.6536,2.6545,2.6582,2.6618,2.6618,2.6618,2.6618,2.6618,2.6618,2.6618,2.6618,2.6618,2.6618,2.6618,2.6618,2.6618,2.6618,2.6618,2.6618,2.6618,2.6618,2.6618,2.6618,2.6618,2.6618,2.6618,2.6618,2.6618,2.6618,2.6614,2.6605,3.3043,3.3068,3.3561,3.3669,3.3526,3.3528,3.3505,3.3446,3.3406,3.3364,3.3088,3.2212,3.1909,3.2115,3.2078,3.2006,3.2134,3.2776,3.3165,3.3164,3.3273,3.3283,3.3293,3.3293,3.3293,3.3293,3.3293,3.3293,3.3293,3.3293,3.3293,3.3293,3.3293,3.3293,3.3293,3.3293,3.3293,3.3293,3.3293,3.3268,3.3156,3.2155,3.0985,2.9846,2.8781,2.7622,2.6705,2.6623,2.6618,2.6618,2.6618,2.66,2.6582,2.6572,2.6559,2.6568,2.6577,2.6618,2.6618,2.6618,2.6618,2.66,2.6609,2.6609,2.6618,2.6618,2.6618,2.6609,2.6462,2.6472,2.6495,2.6508,2.6508,2.6517,2.6522,2.6536,2.6527,2.6536,2.6517,2.649,2.6609,2.6618,2.6618,2.6618,2.6618,2.6618,2.6618,2.6618,2.6618,2.6618,2.6618,2.6618,2.6618,2.6618,2.6618,2.6618,2.6618,2.6618,2.6618,2.6618,2.6618,2.6618,2.6618,2.6618,2.6618,2.6618,2.6618,2.6618,2.6618,2.6618,2.6618,2.6618,2.6618,2.661,2.6619,3.3537,3.3597,3.4078,3.4222,3.4126,3.3994,3.3873,3.3702,3.3603,3.3555,3.3376,3.2792,3.2593,3.2691,3.2617,3.2518,3.2564,3.2999,3.3293,3.3293,3.3293,3.3293,3.3293,3.3293,3.3293,3.3293,3.3293,3.3293,3.3293,3.3293,3.3293,3.3293,3.3293,3.3293,3.3293,3.3293,3.3293,3.3181,3.3007,3.2833,3.2507,3.1624,3.0224,2.9519,2.8548,2.7237,2.6791,2.6618,2.6609,2.6609,2.6591,2.6527,2.6462,2.6385,2.632,2.6238,2.6174,2.6169,2.6141,2.6132,2.6141,2.6334,2.6485,2.6586,2.6618,2.6618,2.6618,2.6618,2.6618,2.6596,2.6596,2.6618,2.6618,2.6618,2.6618,2.6618,2.6618,2.6618,2.6618,2.6618,2.6618,2.6618,2.6618,2.6618,2.6618,2.6618,2.6618,2.6618,2.6618,2.6618,2.6618,2.6618,2.6618,2.6618,2.6618,2.6618,2.6618,2.6618,2.6618,2.6618,2.6618,2.6618,2.6618,2.6618,2.6618,2.6618,2.6618,2.6618,2.6618,2.6618,2.6618,2.6618,2.6618,2.6637,2.6674,3.403,3.4114,3.4571,3.4629,3.4409,3.4312,3.4053,3.368,3.3407,3.3318,3.3282,3.3259,3.3165,3.3235,3.3234,3.3187,3.3152,3.3258,3.3293,3.3293,3.3293,3.3293,3.3293,3.3293,3.3293,3.3293,3.3293,3.3293,3.3293,3.3293,3.3293,3.3293,3.3293,3.3293,3.3293,3.3293,3.3293,3.3094,3.2457,3.242,3.2281,3.0198,2.9387,2.8777,2.7918,2.6985,2.6618,2.6618,2.6572,2.6554,2.6518,2.6293,2.6114,2.5985,2.5741,2.5607,2.5567,2.5631,2.576,2.582,2.5893,2.6242,2.6444,2.6563,2.6618,2.6618,2.6618,2.6618,2.6618,2.6618,2.6618,2.6618,2.6618,2.6618,2.6618,2.6618,2.6618,2.6618,2.6618,2.6618,2.6618,2.6618,2.6618,2.6618,2.6618,2.6618,2.6618,2.6618,2.6618,2.6618,2.6618,2.6618,2.6618,2.6618,2.6618,2.6618,2.6618,2.6618,2.6618,2.6618,2.6618,2.6618,2.6618,2.6618,2.6618,2.6618,2.6618,2.6618,2.6618,2.6618,2.6618,2.6618,2.6618,2.6742,2.6807,3.4571,3.4583,3.4739,3.4641,3.4372,3.4051,3.3729,3.3418,3.3318,3.3293,3.3293,3.3293,3.3293,3.3293,3.3293,3.3293,3.3293,3.3293,3.3293,3.3293,3.3293,3.3293,3.3293,3.3293,3.3293,3.3293,3.3293,3.3293,3.3293,3.3293,3.3293,3.3293,3.3293,3.3293,3.3293,3.3268,3.3218,3.2882,3.1991,3.1941,3.1409,2.9469,2.886,2.8192,2.7453,2.6705,2.6618,2.6582,2.6481,2.6255,2.62,2.598,2.5618,2.5581,2.553,2.5851,2.5879,2.5952,2.6187,2.6242,2.6242,2.6279,2.6485,2.6572,2.6618,2.6618,2.6618,2.6618,2.6618,2.6618,2.6618,2.6618,2.6618,2.6618,2.6618,2.6618,2.6618,2.6618,2.6618,2.6618,2.6618,2.6618,2.6618,2.6618,2.6618,2.6618,2.6618,2.6618,2.6618,2.6618,2.6618,2.6618,2.6618,2.6618,2.6618,2.6618,2.6618,2.6618,2.6618,2.6618,2.6618,2.6618,2.6618,2.6618,2.6618,2.6618,2.6618,2.6618,2.6618,2.6605,2.6614,2.6618,2.6646,2.6807,2.6948,3.4799,3.4799,3.4799,3.4604,3.4224,3.3742,3.3443,3.3306,3.3293,3.3355,3.3443,3.3343,3.3293,3.3293,3.3293,3.3293,3.3293,3.3293,3.3293,3.3293,3.3293,3.3293,3.3293,3.3293,3.3293,3.3293,3.3293,3.3293,3.3293,3.3293,3.3293,3.3293,3.3293,3.3293,3.3168,3.2832,3.2533,3.2155,3.1649,3.1381,3.0432,2.9061,2.8152,2.7908,2.7107,2.6718,2.6582,2.6504,2.6237,2.5993,2.5929,2.5576,2.5251,2.5177,2.5343,2.5609,2.57,2.5774,2.5908,2.599,2.6164,2.632,2.6394,2.6449,2.6563,2.6618,2.6618,2.6618,2.6618,2.6618,2.6618,2.6618,2.6618,2.6618,2.6618,2.6618,2.6618,2.6618,2.6618,2.6618,2.6618,2.6618,2.6618,2.6618,2.6618,2.6618,2.6618,2.6618,2.6618,2.6618,2.6618,2.6618,2.6618,2.6618,2.6618,2.6618,2.6618,2.6618,2.6618,2.6618,2.6618,2.6618,2.6618,2.6618,2.6618,2.6618,2.6618,2.6618,2.6618,2.6632,2.6752,2.6885,2.694,2.699,2.7101,3.4799,3.4787,3.475,3.4445,3.4014,3.353,3.3331,3.3317,3.333,3.3431,3.3579,3.3405,3.3293,3.3293,3.3293,3.3293,3.3293,3.3293,3.3293,3.3293,3.3293,3.3293,3.3293,3.3293,3.3293,3.3293,3.3293,3.3293,3.3293,3.3293,3.3293,3.3293,3.3293,3.3293,3.3193,3.2632,3.2256,3.1764,3.1152,3.0652,3.0159,2.8658,2.7084,2.7649,2.7192,2.6609,2.6508,2.6288,2.5993,2.5833,2.5631,2.5264,2.5095,2.4972,2.5174,2.5407,2.5609,2.5746,2.5857,2.5917,2.5953,2.6049,2.6072,2.6311,2.6513,2.6609,2.6618,2.6618,2.6618,2.6618,2.6618,2.6618,2.6618,2.6618,2.6618,2.6618,2.6618,2.6618,2.6618,2.6618,2.6618,2.6618,2.6618,2.6618,2.6618,2.6618,2.6618,2.6618,2.6618,2.6618,2.6646,2.6637,2.6618,2.6618,2.6618,2.6618,2.6618,2.6618,2.6618,2.6618,2.6618,2.6618,2.6618,2.6618,2.6618,2.6618,2.6618,2.6618,2.666,2.6797,2.6944,2.7178,2.7279,2.7366,2.7361,3.4799,3.475,3.4408,3.4088,3.379,3.3443,3.3418,3.358,3.3393,3.3331,3.3392,3.3318,3.3293,3.3293,3.3293,3.3293,3.3293,3.3293,3.3293,3.3293,3.3293,3.3293,3.3293,3.3293,3.3293,3.3293,3.3293,3.3293,3.3293,3.3293,3.3293,3.3293,3.3293,3.3293,3.3281,3.2695,3.2231,3.1409,3.1088,2.9977,2.8847,2.8555,2.7747,2.7318,2.6618,2.6618,2.649,2.6233,2.587,2.5563,2.5484,2.5356,2.5278,2.526,2.5475,2.5769,2.587,2.5989,2.6123,2.6178,2.627,2.6343,2.6444,2.6495,2.6568,2.6586,2.6618,2.6618,2.6618,2.6618,2.6618,2.6618,2.6618,2.6618,2.6618,2.6618,2.6618,2.6618,2.6618,2.6618,2.6618,2.6618,2.6618,2.6618,2.6618,2.6618,2.6618,2.6618,2.6623,2.6641,2.6706,2.6696,2.6623,2.6605,2.6618,2.6618,2.6618,2.6618,2.6618,2.6618,2.6618,2.6618,2.6618,2.6618,2.6618,2.6618,2.6605,2.6614,2.6692,2.6898,2.7247,2.7536,2.7862,2.8018,2.7913,3.4799,3.4738,3.4297,3.394,3.3679,3.3406,3.3392,3.3468,3.3356,3.3293,3.3293,3.3293,3.3293,3.3293,3.3293,3.3293,3.3293,3.3293,3.3293,3.3293,3.3293,3.3293,3.3293,3.3293,3.3293,3.3293,3.3293,3.3293,3.3293,3.3293,3.3293,3.3293,3.3293,3.3281,3.3231,3.2857,3.2068,3.0884,3.0946,2.9689,2.7948,2.7787,2.7596,2.6931,2.6618,2.6618,2.6472,2.6246,2.5943,2.5649,2.5539,2.5594,2.5603,2.569,2.5888,2.6145,2.6311,2.6371,2.6545,2.6618,2.6618,2.6618,2.6618,2.6586,2.6586,2.6618,2.6618,2.6618,2.6618,2.6618,2.6618,2.6618,2.6618,2.6618,2.6618,2.6618,2.6618,2.6618,2.6618,2.6618,2.6618,2.6618,2.6618,2.6618,2.6618,2.6618,2.6618,2.6637,2.6641,2.677,2.6807,2.6843,2.6816,2.6678,2.6618,2.6618,2.6618,2.6618,2.6646,2.6618,2.6618,2.6618,2.6618,2.6618,2.6618,2.6618,2.6605,2.6742,2.6871,2.7063,2.7485,2.7917,2.8256,2.855,2.8451,3.4762,3.4653,3.4285,3.3915,3.3642,3.3393,3.3293,3.3293,3.3293,3.3293,3.3293,3.3293,3.3293,3.3293,3.3293,3.3293,3.3293,3.3293,3.3293,3.3293,3.3293,3.3293,3.3293,3.3293,3.3293,3.3293,3.3293,3.3293,3.3293,3.3293,3.3293,3.3293,3.3293,3.3293,3.2994,3.2381,3.1534,3.06,2.999,2.8893,2.8078,2.7569,2.7359,2.6985,2.6618,2.6618,2.649,2.6283,2.6044,2.5897,2.5723,2.5829,2.5967,2.6099,2.6233,2.6453,2.6517,2.6554,2.6618,2.6618,2.6618,2.6618,2.6618,2.6618,2.6618,2.6618,2.6618,2.6618,2.6618,2.6618,2.6618,2.6618,2.6618,2.6618,2.6618,2.6618,2.6618,2.6618,2.6618,2.6618,2.6618,2.6618,2.6618,2.6618,2.6618,2.6618,2.6637,2.6655,2.6738,2.6949,2.7073,2.7137,2.7174,2.7004,2.6848,2.6756,2.6811,2.6738,2.6765,2.6673,2.6618,2.6618,2.6618,2.6637,2.6637,2.6765,2.6912,2.7077,2.7187,2.7366,2.7733,2.8192,2.8485,2.8737,2.888,3.4579,3.4223,3.4137,3.3841,3.3406,3.3318,3.3293,3.3293,3.3293,3.3293,3.3293,3.3293,3.3293,3.3293,3.3293,3.3293,3.3293,3.3292,3.3281,3.3293,3.3256,3.3268,3.3293,3.3293,3.3293,3.3293,3.3293,3.3293,3.3293,3.3293,3.3293,3.3293,3.3293,3.3293,3.3256,3.2569,3.1788,3.0675,3.0042,2.9384,2.7628,2.726,2.7399,2.7053,2.6618,2.6618,2.6499,2.621,2.6053,2.5971,2.5958,2.6123,2.627,2.6416,2.6508,2.6545,2.6618,2.6618,2.6618,2.6618,2.6618,2.6618,2.6618,2.6618,2.6618,2.6618,2.6618,2.6618,2.6618,2.6618,2.6618,2.6618,2.6618,2.6618,2.6618,2.6618,2.6618,2.6618,2.6618,2.6618,2.6618,2.6618,2.6618,2.6618,2.6618,2.6628,2.6669,2.6724,2.6986,2.7169,2.738,2.7481,2.7559,2.761,2.7573,2.7187,2.7114,2.7004,2.6885,2.6797,2.6715,2.6628,2.6637,2.6747,2.6926,2.71,2.7261,2.7417,2.7729,2.7926,2.8128,2.8449,2.8709,2.8874,2.8962]}]]